<?xml version="1.0" encoding="UTF-8" standalone="no" ?>
<gpx xmlns="http://www.topografix.com/GPX/1/1" xmlns:xsi="http://www.w3.org/2001/XMLSchema-instance" xsi:schemaLocation="http://www.topografix.com/GPX/1/1 http://www.topografix.com/GPX/1/1/gpx.xsd" version="1.1" creator="VisuGPX - https://www.visugpx.com">
  <metadata>
    <name>Tête du Jardin en boucle au départ d'Archiane</name>
    <desc><![CDATA[Sortie CAF Valence du 3 novembre 2024 organisée par Louis-Michel. Boucle au départ d'Archiane. Montée par la combe de l'Aubaise puis à droite au Quatre Chemins pour rejoindre le Petit Jardin, la Tête du Peyssé, et la Tête du Jardin. Retour à Archiane par Tussac et le GR.

Au carrefour des Quatre Chemins un sentier monte à droite et rejoint le plateau. Ensuite petite sente cairnée vers le Petit Jardin puis hors sentier jusqu'à la Tête du Peyssé, la Tête du Jardin et jusqu'à rejoindre la piste reliant Tussac à la bergerie du Jardin du Roi. Randonnée à faire par beau temps, l'orientation et la progression pouvant devenir très compliqués si on se fait prendre par le brouillard.

Un peu avant la Tête du Peyssé, sur la crête, on pourra admirer l'arche de la Cacahuète.]]></desc>
  </metadata>
  <wpt lat="44.76797" lon="5.50299">
    <ele>1714</ele>
    <name><![CDATA[Arche de la Cacahuète]]></name>
  </wpt>
  <trk>
    <name><![CDATA[2024-11-03 16:31:28]]></name>
    <trkseg>
      <trkpt lat="44.74536" lon="5.5068">
        <ele>768.23</ele>
        <time>2024-11-03T07:34:00Z</time>
      </trkpt>
      <trkpt lat="44.74543" lon="5.50675">
        <ele>767.75</ele>
        <time>2024-11-03T07:34:54Z</time>
      </trkpt>
      <trkpt lat="44.74538" lon="5.5066">
        <ele>765.35</ele>
        <time>2024-11-03T07:35:08Z</time>
      </trkpt>
      <trkpt lat="44.74537" lon="5.50652">
        <ele>763.9</ele>
        <time>2024-11-03T07:35:12Z</time>
      </trkpt>
      <trkpt lat="44.74543" lon="5.50647">
        <ele>763.42</ele>
        <time>2024-11-03T07:35:26Z</time>
      </trkpt>
      <trkpt lat="44.74544" lon="5.50647">
        <ele>763.42</ele>
        <time>2024-11-03T07:35:27Z</time>
      </trkpt>
      <trkpt lat="44.74546" lon="5.50647">
        <ele>763.42</ele>
        <time>2024-11-03T07:35:29Z</time>
      </trkpt>
      <trkpt lat="44.74549" lon="5.50648">
        <ele>763.42</ele>
        <time>2024-11-03T07:35:32Z</time>
      </trkpt>
      <trkpt lat="44.74556" lon="5.50651">
        <ele>763.42</ele>
        <time>2024-11-03T07:35:38Z</time>
      </trkpt>
      <trkpt lat="44.74567" lon="5.5067">
        <ele>763.42</ele>
        <time>2024-11-03T07:35:54Z</time>
      </trkpt>
      <trkpt lat="44.74569" lon="5.50677">
        <ele>763.42</ele>
        <time>2024-11-03T07:35:59Z</time>
      </trkpt>
      <trkpt lat="44.74575" lon="5.50694">
        <ele>763.42</ele>
        <time>2024-11-03T07:36:09Z</time>
      </trkpt>
      <trkpt lat="44.74576" lon="5.50703">
        <ele>764.39</ele>
        <time>2024-11-03T07:36:16Z</time>
      </trkpt>
      <trkpt lat="44.7458" lon="5.50708">
        <ele>764.39</ele>
        <time>2024-11-03T07:36:21Z</time>
      </trkpt>
      <trkpt lat="44.74597" lon="5.50704">
        <ele>764.87</ele>
        <time>2024-11-03T07:36:36Z</time>
      </trkpt>
      <trkpt lat="44.74612" lon="5.50698">
        <ele>765.83</ele>
        <time>2024-11-03T07:36:50Z</time>
      </trkpt>
      <trkpt lat="44.74614" lon="5.50697">
        <ele>765.83</ele>
        <time>2024-11-03T07:36:53Z</time>
      </trkpt>
      <trkpt lat="44.74632" lon="5.50689">
        <ele>766.79</ele>
        <time>2024-11-03T07:37:09Z</time>
      </trkpt>
      <trkpt lat="44.74646" lon="5.50679">
        <ele>767.27</ele>
        <time>2024-11-03T07:37:17Z</time>
      </trkpt>
      <trkpt lat="44.74649" lon="5.50648">
        <ele>767.75</ele>
        <time>2024-11-03T07:37:33Z</time>
      </trkpt>
      <trkpt lat="44.74644" lon="5.5062">
        <ele>768.23</ele>
        <time>2024-11-03T07:37:49Z</time>
      </trkpt>
      <trkpt lat="44.74635" lon="5.50596">
        <ele>768.71</ele>
        <time>2024-11-03T07:38:04Z</time>
      </trkpt>
      <trkpt lat="44.74627" lon="5.50567">
        <ele>769.19</ele>
        <time>2024-11-03T07:38:20Z</time>
      </trkpt>
      <trkpt lat="44.7463" lon="5.50538">
        <ele>769.67</ele>
        <time>2024-11-03T07:38:36Z</time>
      </trkpt>
      <trkpt lat="44.74642" lon="5.50515">
        <ele>770.15</ele>
        <time>2024-11-03T07:38:53Z</time>
      </trkpt>
      <trkpt lat="44.74641" lon="5.5051">
        <ele>770.15</ele>
        <time>2024-11-03T07:38:56Z</time>
      </trkpt>
      <trkpt lat="44.74638" lon="5.50504">
        <ele>770.15</ele>
        <time>2024-11-03T07:39:01Z</time>
      </trkpt>
      <trkpt lat="44.74632" lon="5.505">
        <ele>770.15</ele>
        <time>2024-11-03T07:39:07Z</time>
      </trkpt>
      <trkpt lat="44.74628" lon="5.505">
        <ele>770.15</ele>
        <time>2024-11-03T07:39:10Z</time>
      </trkpt>
      <trkpt lat="44.74616" lon="5.50495">
        <ele>771.6</ele>
        <time>2024-11-03T07:39:21Z</time>
      </trkpt>
      <trkpt lat="44.74613" lon="5.50467">
        <ele>772.56</ele>
        <time>2024-11-03T07:39:37Z</time>
      </trkpt>
      <trkpt lat="44.74614" lon="5.50442">
        <ele>772.56</ele>
        <time>2024-11-03T07:39:52Z</time>
      </trkpt>
      <trkpt lat="44.74617" lon="5.50431">
        <ele>773.04</ele>
        <time>2024-11-03T07:39:58Z</time>
      </trkpt>
      <trkpt lat="44.74626" lon="5.50421">
        <ele>774.96</ele>
        <time>2024-11-03T07:40:12Z</time>
      </trkpt>
      <trkpt lat="44.74637" lon="5.50421">
        <ele>777.84</ele>
        <time>2024-11-03T07:40:24Z</time>
      </trkpt>
      <trkpt lat="44.74646" lon="5.50403">
        <ele>779.77</ele>
        <time>2024-11-03T07:40:39Z</time>
      </trkpt>
      <trkpt lat="44.74652" lon="5.50376">
        <ele>779.77</ele>
        <time>2024-11-03T07:40:51Z</time>
      </trkpt>
      <trkpt lat="44.74657" lon="5.50352">
        <ele>780.25</ele>
        <time>2024-11-03T07:41:04Z</time>
      </trkpt>
      <trkpt lat="44.74659" lon="5.50344">
        <ele>780.25</ele>
        <time>2024-11-03T07:41:08Z</time>
      </trkpt>
      <trkpt lat="44.74663" lon="5.50336">
        <ele>780.73</ele>
        <time>2024-11-03T07:41:13Z</time>
      </trkpt>
      <trkpt lat="44.74676" lon="5.50316">
        <ele>780.73</ele>
        <time>2024-11-03T07:41:29Z</time>
      </trkpt>
      <trkpt lat="44.74688" lon="5.5029">
        <ele>780.73</ele>
        <time>2024-11-03T07:41:46Z</time>
      </trkpt>
      <trkpt lat="44.74689" lon="5.50286">
        <ele>780.73</ele>
        <time>2024-11-03T07:41:48Z</time>
      </trkpt>
      <trkpt lat="44.747" lon="5.50264">
        <ele>780.73</ele>
        <time>2024-11-03T07:42:02Z</time>
      </trkpt>
      <trkpt lat="44.74705" lon="5.50252">
        <ele>781.21</ele>
        <time>2024-11-03T07:42:10Z</time>
      </trkpt>
      <trkpt lat="44.74711" lon="5.50227">
        <ele>781.69</ele>
        <time>2024-11-03T07:42:27Z</time>
      </trkpt>
      <trkpt lat="44.74715" lon="5.50199">
        <ele>782.65</ele>
        <time>2024-11-03T07:42:44Z</time>
      </trkpt>
      <trkpt lat="44.74718" lon="5.50186">
        <ele>783.13</ele>
        <time>2024-11-03T07:42:51Z</time>
      </trkpt>
      <trkpt lat="44.74722" lon="5.50164">
        <ele>784.09</ele>
        <time>2024-11-03T07:43:07Z</time>
      </trkpt>
      <trkpt lat="44.74727" lon="5.50153">
        <ele>786.02</ele>
        <time>2024-11-03T07:43:21Z</time>
      </trkpt>
      <trkpt lat="44.74731" lon="5.50149">
        <ele>786.5</ele>
        <time>2024-11-03T07:43:26Z</time>
      </trkpt>
      <trkpt lat="44.74739" lon="5.50133">
        <ele>787.94</ele>
        <time>2024-11-03T07:43:38Z</time>
      </trkpt>
      <trkpt lat="44.74737" lon="5.50127">
        <ele>788.42</ele>
        <time>2024-11-03T07:43:42Z</time>
      </trkpt>
      <trkpt lat="44.74738" lon="5.50107">
        <ele>789.86</ele>
        <time>2024-11-03T07:43:52Z</time>
      </trkpt>
      <trkpt lat="44.74741" lon="5.50089">
        <ele>790.82</ele>
        <time>2024-11-03T07:44:03Z</time>
      </trkpt>
      <trkpt lat="44.74746" lon="5.5007">
        <ele>791.78</ele>
        <time>2024-11-03T07:44:16Z</time>
      </trkpt>
      <trkpt lat="44.74749" lon="5.50058">
        <ele>792.74</ele>
        <time>2024-11-03T07:44:25Z</time>
      </trkpt>
      <trkpt lat="44.74753" lon="5.50041">
        <ele>794.19</ele>
        <time>2024-11-03T07:44:37Z</time>
      </trkpt>
      <trkpt lat="44.74756" lon="5.50024">
        <ele>795.15</ele>
        <time>2024-11-03T07:44:48Z</time>
      </trkpt>
      <trkpt lat="44.74757" lon="5.50022">
        <ele>795.63</ele>
        <time>2024-11-03T07:44:50Z</time>
      </trkpt>
      <trkpt lat="44.74757" lon="5.50001">
        <ele>796.59</ele>
        <time>2024-11-03T07:45:02Z</time>
      </trkpt>
      <trkpt lat="44.74757" lon="5.49977">
        <ele>798.03</ele>
        <time>2024-11-03T07:45:18Z</time>
      </trkpt>
      <trkpt lat="44.74758" lon="5.49959">
        <ele>798.51</ele>
        <time>2024-11-03T07:45:30Z</time>
      </trkpt>
      <trkpt lat="44.74759" lon="5.49951">
        <ele>798.99</ele>
        <time>2024-11-03T07:45:35Z</time>
      </trkpt>
      <trkpt lat="44.74759" lon="5.49926">
        <ele>800.44</ele>
        <time>2024-11-03T07:45:50Z</time>
      </trkpt>
      <trkpt lat="44.74762" lon="5.49914">
        <ele>801.4</ele>
        <time>2024-11-03T07:46:01Z</time>
      </trkpt>
      <trkpt lat="44.74764" lon="5.49904">
        <ele>802.36</ele>
        <time>2024-11-03T07:46:08Z</time>
      </trkpt>
      <trkpt lat="44.74768" lon="5.49884">
        <ele>804.76</ele>
        <time>2024-11-03T07:46:21Z</time>
      </trkpt>
      <trkpt lat="44.74768" lon="5.4988">
        <ele>805.24</ele>
        <time>2024-11-03T07:46:24Z</time>
      </trkpt>
      <trkpt lat="44.7477" lon="5.49864">
        <ele>806.2</ele>
        <time>2024-11-03T07:46:37Z</time>
      </trkpt>
      <trkpt lat="44.74772" lon="5.4985">
        <ele>808.61</ele>
        <time>2024-11-03T07:46:49Z</time>
      </trkpt>
      <trkpt lat="44.74775" lon="5.49837">
        <ele>811.01</ele>
        <time>2024-11-03T07:47:03Z</time>
      </trkpt>
      <trkpt lat="44.74778" lon="5.49824">
        <ele>812.93</ele>
        <time>2024-11-03T07:47:17Z</time>
      </trkpt>
      <trkpt lat="44.7478" lon="5.49808">
        <ele>815.34</ele>
        <time>2024-11-03T07:47:31Z</time>
      </trkpt>
      <trkpt lat="44.74784" lon="5.49795">
        <ele>817.74</ele>
        <time>2024-11-03T07:47:44Z</time>
      </trkpt>
      <trkpt lat="44.74793" lon="5.49784">
        <ele>819.66</ele>
        <time>2024-11-03T07:47:58Z</time>
      </trkpt>
      <trkpt lat="44.74797" lon="5.49775">
        <ele>820.62</ele>
        <time>2024-11-03T07:48:06Z</time>
      </trkpt>
      <trkpt lat="44.74799" lon="5.49773">
        <ele>821.1</ele>
        <time>2024-11-03T07:48:09Z</time>
      </trkpt>
      <trkpt lat="44.74801" lon="5.49767">
        <ele>821.58</ele>
        <time>2024-11-03T07:48:13Z</time>
      </trkpt>
      <trkpt lat="44.74811" lon="5.49754">
        <ele>823.03</ele>
        <time>2024-11-03T07:48:27Z</time>
      </trkpt>
      <trkpt lat="44.7482" lon="5.49746">
        <ele>823.51</ele>
        <time>2024-11-03T07:48:37Z</time>
      </trkpt>
      <trkpt lat="44.74823" lon="5.49737">
        <ele>823.99</ele>
        <time>2024-11-03T07:48:44Z</time>
      </trkpt>
      <trkpt lat="44.74828" lon="5.49719">
        <ele>825.91</ele>
        <time>2024-11-03T07:48:58Z</time>
      </trkpt>
      <trkpt lat="44.74829" lon="5.49714">
        <ele>826.39</ele>
        <time>2024-11-03T07:49:02Z</time>
      </trkpt>
      <trkpt lat="44.74837" lon="5.497">
        <ele>828.31</ele>
        <time>2024-11-03T07:49:16Z</time>
      </trkpt>
      <trkpt lat="44.74849" lon="5.49699">
        <ele>830.72</ele>
        <time>2024-11-03T07:52:09Z</time>
      </trkpt>
      <trkpt lat="44.74854" lon="5.49694">
        <ele>832.16</ele>
        <time>2024-11-03T07:52:27Z</time>
      </trkpt>
      <trkpt lat="44.74862" lon="5.49683">
        <ele>835.04</ele>
        <time>2024-11-03T07:52:41Z</time>
      </trkpt>
      <trkpt lat="44.74872" lon="5.49677">
        <ele>836.96</ele>
        <time>2024-11-03T07:52:55Z</time>
      </trkpt>
      <trkpt lat="44.74876" lon="5.49674">
        <ele>837.45</ele>
        <time>2024-11-03T07:53:00Z</time>
      </trkpt>
      <trkpt lat="44.74886" lon="5.49666">
        <ele>838.89</ele>
        <time>2024-11-03T07:53:14Z</time>
      </trkpt>
      <trkpt lat="44.74899" lon="5.49655">
        <ele>840.81</ele>
        <time>2024-11-03T07:53:29Z</time>
      </trkpt>
      <trkpt lat="44.74906" lon="5.49642">
        <ele>843.21</ele>
        <time>2024-11-03T07:53:42Z</time>
      </trkpt>
      <trkpt lat="44.74907" lon="5.49626">
        <ele>846.1</ele>
        <time>2024-11-03T07:53:59Z</time>
      </trkpt>
      <trkpt lat="44.74914" lon="5.49611">
        <ele>848.02</ele>
        <time>2024-11-03T07:54:13Z</time>
      </trkpt>
      <trkpt lat="44.7492" lon="5.49602">
        <ele>849.46</ele>
        <time>2024-11-03T07:54:25Z</time>
      </trkpt>
      <trkpt lat="44.74927" lon="5.49588">
        <ele>852.35</ele>
        <time>2024-11-03T07:54:40Z</time>
      </trkpt>
      <trkpt lat="44.74928" lon="5.49571">
        <ele>854.27</ele>
        <time>2024-11-03T07:54:53Z</time>
      </trkpt>
      <trkpt lat="44.74925" lon="5.4955">
        <ele>856.67</ele>
        <time>2024-11-03T07:55:10Z</time>
      </trkpt>
      <trkpt lat="44.74928" lon="5.49539">
        <ele>859.56</ele>
        <time>2024-11-03T07:55:24Z</time>
      </trkpt>
      <trkpt lat="44.74936" lon="5.49534">
        <ele>861.48</ele>
        <time>2024-11-03T07:55:38Z</time>
      </trkpt>
      <trkpt lat="44.74944" lon="5.49522">
        <ele>863.88</ele>
        <time>2024-11-03T07:55:51Z</time>
      </trkpt>
      <trkpt lat="44.74952" lon="5.49514">
        <ele>866.77</ele>
        <time>2024-11-03T07:56:06Z</time>
      </trkpt>
      <trkpt lat="44.7496" lon="5.49506">
        <ele>869.65</ele>
        <time>2024-11-03T07:56:21Z</time>
      </trkpt>
      <trkpt lat="44.74969" lon="5.49498">
        <ele>871.57</ele>
        <time>2024-11-03T07:56:35Z</time>
      </trkpt>
      <trkpt lat="44.74978" lon="5.4949">
        <ele>874.46</ele>
        <time>2024-11-03T07:56:51Z</time>
      </trkpt>
      <trkpt lat="44.74985" lon="5.49479">
        <ele>877.34</ele>
        <time>2024-11-03T07:57:06Z</time>
      </trkpt>
      <trkpt lat="44.74995" lon="5.49469">
        <ele>879.26</ele>
        <time>2024-11-03T07:57:22Z</time>
      </trkpt>
      <trkpt lat="44.75003" lon="5.49461">
        <ele>881.67</ele>
        <time>2024-11-03T07:57:37Z</time>
      </trkpt>
      <trkpt lat="44.75012" lon="5.49453">
        <ele>884.55</ele>
        <time>2024-11-03T07:57:51Z</time>
      </trkpt>
      <trkpt lat="44.75019" lon="5.49445">
        <ele>886.47</ele>
        <time>2024-11-03T07:58:05Z</time>
      </trkpt>
      <trkpt lat="44.75021" lon="5.49445">
        <ele>886.95</ele>
        <time>2024-11-03T07:58:08Z</time>
      </trkpt>
      <trkpt lat="44.75032" lon="5.49444">
        <ele>890.32</ele>
        <time>2024-11-03T07:58:23Z</time>
      </trkpt>
      <trkpt lat="44.7504" lon="5.4944">
        <ele>892.24</ele>
        <time>2024-11-03T07:58:38Z</time>
      </trkpt>
      <trkpt lat="44.75049" lon="5.49433">
        <ele>894.64</ele>
        <time>2024-11-03T07:58:52Z</time>
      </trkpt>
      <trkpt lat="44.75057" lon="5.49427">
        <ele>896.57</ele>
        <time>2024-11-03T07:59:05Z</time>
      </trkpt>
      <trkpt lat="44.75064" lon="5.49421">
        <ele>898.97</ele>
        <time>2024-11-03T07:59:17Z</time>
      </trkpt>
      <trkpt lat="44.75072" lon="5.49415">
        <ele>901.37</ele>
        <time>2024-11-03T07:59:31Z</time>
      </trkpt>
      <trkpt lat="44.75079" lon="5.49405">
        <ele>904.26</ele>
        <time>2024-11-03T07:59:46Z</time>
      </trkpt>
      <trkpt lat="44.75086" lon="5.49399">
        <ele>905.7</ele>
        <time>2024-11-03T07:59:59Z</time>
      </trkpt>
      <trkpt lat="44.75096" lon="5.49387">
        <ele>909.06</ele>
        <time>2024-11-03T08:00:16Z</time>
      </trkpt>
      <trkpt lat="44.75104" lon="5.49375">
        <ele>911.47</ele>
        <time>2024-11-03T08:00:31Z</time>
      </trkpt>
      <trkpt lat="44.75108" lon="5.49367">
        <ele>912.91</ele>
        <time>2024-11-03T08:00:44Z</time>
      </trkpt>
      <trkpt lat="44.75108" lon="5.49365">
        <ele>911.47</ele>
        <time>2024-11-03T08:00:54Z</time>
      </trkpt>
      <trkpt lat="44.75111" lon="5.49366">
        <ele>911.47</ele>
        <time>2024-11-03T08:01:18Z</time>
      </trkpt>
      <trkpt lat="44.75119" lon="5.49365">
        <ele>914.35</ele>
        <time>2024-11-03T08:02:14Z</time>
      </trkpt>
      <trkpt lat="44.75121" lon="5.49365">
        <ele>914.83</ele>
        <time>2024-11-03T08:03:27Z</time>
      </trkpt>
      <trkpt lat="44.75125" lon="5.49364">
        <ele>915.31</ele>
        <time>2024-11-03T08:03:49Z</time>
      </trkpt>
      <trkpt lat="44.75128" lon="5.4936">
        <ele>916.75</ele>
        <time>2024-11-03T08:04:04Z</time>
      </trkpt>
      <trkpt lat="44.75134" lon="5.49357">
        <ele>918.68</ele>
        <time>2024-11-03T08:04:17Z</time>
      </trkpt>
      <trkpt lat="44.7514" lon="5.49353">
        <ele>921.08</ele>
        <time>2024-11-03T08:04:32Z</time>
      </trkpt>
      <trkpt lat="44.75147" lon="5.49352">
        <ele>923</ele>
        <time>2024-11-03T08:04:46Z</time>
      </trkpt>
      <trkpt lat="44.75155" lon="5.49352">
        <ele>925.89</ele>
        <time>2024-11-03T08:05:02Z</time>
      </trkpt>
      <trkpt lat="44.75162" lon="5.49352">
        <ele>928.77</ele>
        <time>2024-11-03T08:05:18Z</time>
      </trkpt>
      <trkpt lat="44.75168" lon="5.49355">
        <ele>930.69</ele>
        <time>2024-11-03T08:05:31Z</time>
      </trkpt>
      <trkpt lat="44.75173" lon="5.49356">
        <ele>933.58</ele>
        <time>2024-11-03T08:05:48Z</time>
      </trkpt>
      <trkpt lat="44.75177" lon="5.49356">
        <ele>935.98</ele>
        <time>2024-11-03T08:06:02Z</time>
      </trkpt>
      <trkpt lat="44.75182" lon="5.49356">
        <ele>938.38</ele>
        <time>2024-11-03T08:06:16Z</time>
      </trkpt>
      <trkpt lat="44.75188" lon="5.49356">
        <ele>941.27</ele>
        <time>2024-11-03T08:06:30Z</time>
      </trkpt>
      <trkpt lat="44.75195" lon="5.49355">
        <ele>943.67</ele>
        <time>2024-11-03T08:06:47Z</time>
      </trkpt>
      <trkpt lat="44.75202" lon="5.49358">
        <ele>946.56</ele>
        <time>2024-11-03T08:07:05Z</time>
      </trkpt>
      <trkpt lat="44.75207" lon="5.49356">
        <ele>949.44</ele>
        <time>2024-11-03T08:07:20Z</time>
      </trkpt>
      <trkpt lat="44.75212" lon="5.49355">
        <ele>950.88</ele>
        <time>2024-11-03T08:07:34Z</time>
      </trkpt>
      <trkpt lat="44.75217" lon="5.49357">
        <ele>953.28</ele>
        <time>2024-11-03T08:07:49Z</time>
      </trkpt>
      <trkpt lat="44.75219" lon="5.49352">
        <ele>954.25</ele>
        <time>2024-11-03T08:08:05Z</time>
      </trkpt>
      <trkpt lat="44.75222" lon="5.49341">
        <ele>955.21</ele>
        <time>2024-11-03T08:08:18Z</time>
      </trkpt>
      <trkpt lat="44.75224" lon="5.49332">
        <ele>957.61</ele>
        <time>2024-11-03T08:08:33Z</time>
      </trkpt>
      <trkpt lat="44.75224" lon="5.49318">
        <ele>960.01</ele>
        <time>2024-11-03T08:08:50Z</time>
      </trkpt>
      <trkpt lat="44.75218" lon="5.4931">
        <ele>961.46</ele>
        <time>2024-11-03T08:09:04Z</time>
      </trkpt>
      <trkpt lat="44.75218" lon="5.49302">
        <ele>963.38</ele>
        <time>2024-11-03T08:09:16Z</time>
      </trkpt>
      <trkpt lat="44.75224" lon="5.49301">
        <ele>966.26</ele>
        <time>2024-11-03T08:09:30Z</time>
      </trkpt>
      <trkpt lat="44.75229" lon="5.49296">
        <ele>969.15</ele>
        <time>2024-11-03T08:09:47Z</time>
      </trkpt>
      <trkpt lat="44.7524" lon="5.49293">
        <ele>971.55</ele>
        <time>2024-11-03T08:10:03Z</time>
      </trkpt>
      <trkpt lat="44.75245" lon="5.4929">
        <ele>973.95</ele>
        <time>2024-11-03T08:10:17Z</time>
      </trkpt>
      <trkpt lat="44.75249" lon="5.49281">
        <ele>976.36</ele>
        <time>2024-11-03T08:10:31Z</time>
      </trkpt>
      <trkpt lat="44.75253" lon="5.49272">
        <ele>978.76</ele>
        <time>2024-11-03T08:10:45Z</time>
      </trkpt>
      <trkpt lat="44.7526" lon="5.49268">
        <ele>980.68</ele>
        <time>2024-11-03T08:11:01Z</time>
      </trkpt>
      <trkpt lat="44.75267" lon="5.49258">
        <ele>983.57</ele>
        <time>2024-11-03T08:11:17Z</time>
      </trkpt>
      <trkpt lat="44.75273" lon="5.4925">
        <ele>986.45</ele>
        <time>2024-11-03T08:11:32Z</time>
      </trkpt>
      <trkpt lat="44.7528" lon="5.49245">
        <ele>989.33</ele>
        <time>2024-11-03T08:11:51Z</time>
      </trkpt>
      <trkpt lat="44.75288" lon="5.49243">
        <ele>991.74</ele>
        <time>2024-11-03T08:12:07Z</time>
      </trkpt>
      <trkpt lat="44.75293" lon="5.49238">
        <ele>994.14</ele>
        <time>2024-11-03T08:12:21Z</time>
      </trkpt>
      <trkpt lat="44.75297" lon="5.49233">
        <ele>995.58</ele>
        <time>2024-11-03T08:12:38Z</time>
      </trkpt>
      <trkpt lat="44.75303" lon="5.49227">
        <ele>998.47</ele>
        <time>2024-11-03T08:12:53Z</time>
      </trkpt>
      <trkpt lat="44.7531" lon="5.4922">
        <ele>1000.87</ele>
        <time>2024-11-03T08:13:09Z</time>
      </trkpt>
      <trkpt lat="44.75316" lon="5.49212">
        <ele>1002.79</ele>
        <time>2024-11-03T08:13:23Z</time>
      </trkpt>
      <trkpt lat="44.75322" lon="5.49205">
        <ele>1004.72</ele>
        <time>2024-11-03T08:13:37Z</time>
      </trkpt>
      <trkpt lat="44.75329" lon="5.49201">
        <ele>1006.64</ele>
        <time>2024-11-03T08:13:52Z</time>
      </trkpt>
      <trkpt lat="44.75336" lon="5.49198">
        <ele>1009.04</ele>
        <time>2024-11-03T08:14:08Z</time>
      </trkpt>
      <trkpt lat="44.75345" lon="5.49197">
        <ele>1011.93</ele>
        <time>2024-11-03T08:14:25Z</time>
      </trkpt>
      <trkpt lat="44.75352" lon="5.49195">
        <ele>1013.37</ele>
        <time>2024-11-03T08:14:38Z</time>
      </trkpt>
      <trkpt lat="44.75359" lon="5.49194">
        <ele>1015.29</ele>
        <time>2024-11-03T08:14:50Z</time>
      </trkpt>
      <trkpt lat="44.75365" lon="5.49193">
        <ele>1017.21</ele>
        <time>2024-11-03T08:15:04Z</time>
      </trkpt>
      <trkpt lat="44.7537" lon="5.49195">
        <ele>1019.13</ele>
        <time>2024-11-03T08:15:19Z</time>
      </trkpt>
      <trkpt lat="44.75375" lon="5.49191">
        <ele>1021.54</ele>
        <time>2024-11-03T08:15:33Z</time>
      </trkpt>
      <trkpt lat="44.75381" lon="5.49189">
        <ele>1023.94</ele>
        <time>2024-11-03T08:15:49Z</time>
      </trkpt>
      <trkpt lat="44.75385" lon="5.49183">
        <ele>1025.38</ele>
        <time>2024-11-03T08:16:05Z</time>
      </trkpt>
      <trkpt lat="44.75387" lon="5.49169">
        <ele>1027.79</ele>
        <time>2024-11-03T08:16:21Z</time>
      </trkpt>
      <trkpt lat="44.75388" lon="5.49166">
        <ele>1030.67</ele>
        <time>2024-11-03T08:16:38Z</time>
      </trkpt>
      <trkpt lat="44.75385" lon="5.49155">
        <ele>1033.07</ele>
        <time>2024-11-03T08:16:51Z</time>
      </trkpt>
      <trkpt lat="44.75382" lon="5.49149">
        <ele>1034.52</ele>
        <time>2024-11-03T08:17:03Z</time>
      </trkpt>
      <trkpt lat="44.75381" lon="5.49139">
        <ele>1036.44</ele>
        <time>2024-11-03T08:17:16Z</time>
      </trkpt>
      <trkpt lat="44.7538" lon="5.49126">
        <ele>1039.32</ele>
        <time>2024-11-03T08:17:32Z</time>
      </trkpt>
      <trkpt lat="44.75378" lon="5.49114">
        <ele>1040.76</ele>
        <time>2024-11-03T08:17:48Z</time>
      </trkpt>
      <trkpt lat="44.75379" lon="5.49105">
        <ele>1043.17</ele>
        <time>2024-11-03T08:18:02Z</time>
      </trkpt>
      <trkpt lat="44.75382" lon="5.49095">
        <ele>1045.09</ele>
        <time>2024-11-03T08:18:16Z</time>
      </trkpt>
      <trkpt lat="44.75383" lon="5.49085">
        <ele>1047.49</ele>
        <time>2024-11-03T08:18:31Z</time>
      </trkpt>
      <trkpt lat="44.75383" lon="5.49073">
        <ele>1049.9</ele>
        <time>2024-11-03T08:18:46Z</time>
      </trkpt>
      <trkpt lat="44.75387" lon="5.49062">
        <ele>1052.3</ele>
        <time>2024-11-03T08:19:01Z</time>
      </trkpt>
      <trkpt lat="44.7539" lon="5.49057">
        <ele>1054.7</ele>
        <time>2024-11-03T08:19:16Z</time>
      </trkpt>
      <trkpt lat="44.75398" lon="5.49047">
        <ele>1057.11</ele>
        <time>2024-11-03T08:19:32Z</time>
      </trkpt>
      <trkpt lat="44.75405" lon="5.49037">
        <ele>1059.99</ele>
        <time>2024-11-03T08:19:50Z</time>
      </trkpt>
      <trkpt lat="44.7541" lon="5.49037">
        <ele>1061.91</ele>
        <time>2024-11-03T08:20:03Z</time>
      </trkpt>
      <trkpt lat="44.75413" lon="5.49043">
        <ele>1063.84</ele>
        <time>2024-11-03T08:20:14Z</time>
      </trkpt>
      <trkpt lat="44.75415" lon="5.49059">
        <ele>1065.76</ele>
        <time>2024-11-03T08:20:30Z</time>
      </trkpt>
      <trkpt lat="44.75417" lon="5.49068">
        <ele>1067.2</ele>
        <time>2024-11-03T08:20:44Z</time>
      </trkpt>
      <trkpt lat="44.75421" lon="5.49066">
        <ele>1069.6</ele>
        <time>2024-11-03T08:21:01Z</time>
      </trkpt>
      <trkpt lat="44.75428" lon="5.49062">
        <ele>1072.49</ele>
        <time>2024-11-03T08:21:18Z</time>
      </trkpt>
      <trkpt lat="44.75433" lon="5.49068">
        <ele>1074.89</ele>
        <time>2024-11-03T08:21:33Z</time>
      </trkpt>
      <trkpt lat="44.75438" lon="5.49073">
        <ele>1077.78</ele>
        <time>2024-11-03T08:21:50Z</time>
      </trkpt>
      <trkpt lat="44.75446" lon="5.49072">
        <ele>1079.7</ele>
        <time>2024-11-03T08:22:04Z</time>
      </trkpt>
      <trkpt lat="44.7545" lon="5.49065">
        <ele>1082.1</ele>
        <time>2024-11-03T08:22:18Z</time>
      </trkpt>
      <trkpt lat="44.75454" lon="5.49058">
        <ele>1084.5</ele>
        <time>2024-11-03T08:22:34Z</time>
      </trkpt>
      <trkpt lat="44.7546" lon="5.49051">
        <ele>1087.39</ele>
        <time>2024-11-03T08:22:51Z</time>
      </trkpt>
      <trkpt lat="44.75463" lon="5.49043">
        <ele>1089.79</ele>
        <time>2024-11-03T08:23:04Z</time>
      </trkpt>
      <trkpt lat="44.75467" lon="5.49034">
        <ele>1092.2</ele>
        <time>2024-11-03T08:23:19Z</time>
      </trkpt>
      <trkpt lat="44.75472" lon="5.49023">
        <ele>1094.6</ele>
        <time>2024-11-03T08:23:35Z</time>
      </trkpt>
      <trkpt lat="44.75478" lon="5.49014">
        <ele>1097.48</ele>
        <time>2024-11-03T08:23:52Z</time>
      </trkpt>
      <trkpt lat="44.75481" lon="5.49007">
        <ele>1100.37</ele>
        <time>2024-11-03T08:24:07Z</time>
      </trkpt>
      <trkpt lat="44.75485" lon="5.48999">
        <ele>1103.73</ele>
        <time>2024-11-03T08:24:24Z</time>
      </trkpt>
      <trkpt lat="44.7549" lon="5.48987">
        <ele>1106.61</ele>
        <time>2024-11-03T08:24:41Z</time>
      </trkpt>
      <trkpt lat="44.75495" lon="5.48976">
        <ele>1109.5</ele>
        <time>2024-11-03T08:24:58Z</time>
      </trkpt>
      <trkpt lat="44.75499" lon="5.48968">
        <ele>1112.38</ele>
        <time>2024-11-03T08:25:14Z</time>
      </trkpt>
      <trkpt lat="44.75502" lon="5.48965">
        <ele>1113.34</ele>
        <time>2024-11-03T08:25:28Z</time>
      </trkpt>
      <trkpt lat="44.75504" lon="5.48955">
        <ele>1115.75</ele>
        <time>2024-11-03T08:25:44Z</time>
      </trkpt>
      <trkpt lat="44.75508" lon="5.48944">
        <ele>1118.15</ele>
        <time>2024-11-03T08:25:59Z</time>
      </trkpt>
      <trkpt lat="44.75512" lon="5.48932">
        <ele>1121.03</ele>
        <time>2024-11-03T08:26:15Z</time>
      </trkpt>
      <trkpt lat="44.75515" lon="5.48921">
        <ele>1121.52</ele>
        <time>2024-11-03T08:26:30Z</time>
      </trkpt>
      <trkpt lat="44.7552" lon="5.48911">
        <ele>1122.96</ele>
        <time>2024-11-03T08:32:19Z</time>
      </trkpt>
      <trkpt lat="44.75522" lon="5.48909">
        <ele>1123.92</ele>
        <time>2024-11-03T08:32:21Z</time>
      </trkpt>
      <trkpt lat="44.75528" lon="5.48899">
        <ele>1126.32</ele>
        <time>2024-11-03T08:32:31Z</time>
      </trkpt>
      <trkpt lat="44.75537" lon="5.48887">
        <ele>1129.21</ele>
        <time>2024-11-03T08:32:45Z</time>
      </trkpt>
      <trkpt lat="44.75545" lon="5.4888">
        <ele>1132.57</ele>
        <time>2024-11-03T08:32:59Z</time>
      </trkpt>
      <trkpt lat="44.7555" lon="5.48872">
        <ele>1135.45</ele>
        <time>2024-11-03T08:33:15Z</time>
      </trkpt>
      <trkpt lat="44.75556" lon="5.48861">
        <ele>1138.34</ele>
        <time>2024-11-03T08:33:30Z</time>
      </trkpt>
      <trkpt lat="44.75561" lon="5.48853">
        <ele>1140.26</ele>
        <time>2024-11-03T08:33:46Z</time>
      </trkpt>
      <trkpt lat="44.75568" lon="5.48847">
        <ele>1143.63</ele>
        <time>2024-11-03T08:34:02Z</time>
      </trkpt>
      <trkpt lat="44.75571" lon="5.48838">
        <ele>1146.03</ele>
        <time>2024-11-03T08:34:17Z</time>
      </trkpt>
      <trkpt lat="44.75577" lon="5.48829">
        <ele>1147.95</ele>
        <time>2024-11-03T08:34:32Z</time>
      </trkpt>
      <trkpt lat="44.75582" lon="5.48821">
        <ele>1149.39</ele>
        <time>2024-11-03T08:34:45Z</time>
      </trkpt>
      <trkpt lat="44.75587" lon="5.48811">
        <ele>1152.28</ele>
        <time>2024-11-03T08:35:02Z</time>
      </trkpt>
      <trkpt lat="44.75591" lon="5.48802">
        <ele>1154.68</ele>
        <time>2024-11-03T08:35:17Z</time>
      </trkpt>
      <trkpt lat="44.75596" lon="5.48792">
        <ele>1156.6</ele>
        <time>2024-11-03T08:35:33Z</time>
      </trkpt>
      <trkpt lat="44.75602" lon="5.48782">
        <ele>1159.01</ele>
        <time>2024-11-03T08:35:51Z</time>
      </trkpt>
      <trkpt lat="44.75608" lon="5.48772">
        <ele>1161.41</ele>
        <time>2024-11-03T08:36:05Z</time>
      </trkpt>
      <trkpt lat="44.75615" lon="5.48764">
        <ele>1163.81</ele>
        <time>2024-11-03T08:36:20Z</time>
      </trkpt>
      <trkpt lat="44.75622" lon="5.48754">
        <ele>1166.7</ele>
        <time>2024-11-03T08:36:37Z</time>
      </trkpt>
      <trkpt lat="44.75629" lon="5.48744">
        <ele>1169.58</ele>
        <time>2024-11-03T08:36:53Z</time>
      </trkpt>
      <trkpt lat="44.75635" lon="5.48735">
        <ele>1172.47</ele>
        <time>2024-11-03T08:37:10Z</time>
      </trkpt>
      <trkpt lat="44.75641" lon="5.48727">
        <ele>1175.83</ele>
        <time>2024-11-03T08:37:26Z</time>
      </trkpt>
      <trkpt lat="44.75649" lon="5.48719">
        <ele>1179.19</ele>
        <time>2024-11-03T08:37:44Z</time>
      </trkpt>
      <trkpt lat="44.75657" lon="5.4871">
        <ele>1182.08</ele>
        <time>2024-11-03T08:38:02Z</time>
      </trkpt>
      <trkpt lat="44.75664" lon="5.48702">
        <ele>1184.96</ele>
        <time>2024-11-03T08:38:18Z</time>
      </trkpt>
      <trkpt lat="44.75671" lon="5.48694">
        <ele>1187.85</ele>
        <time>2024-11-03T08:38:35Z</time>
      </trkpt>
      <trkpt lat="44.75679" lon="5.48688">
        <ele>1191.21</ele>
        <time>2024-11-03T08:38:53Z</time>
      </trkpt>
      <trkpt lat="44.75684" lon="5.48683">
        <ele>1194.09</ele>
        <time>2024-11-03T08:39:07Z</time>
      </trkpt>
      <trkpt lat="44.7569" lon="5.48678">
        <ele>1196.98</ele>
        <time>2024-11-03T08:39:23Z</time>
      </trkpt>
      <trkpt lat="44.75696" lon="5.48671">
        <ele>1199.86</ele>
        <time>2024-11-03T08:39:39Z</time>
      </trkpt>
      <trkpt lat="44.75702" lon="5.48663">
        <ele>1203.23</ele>
        <time>2024-11-03T08:39:55Z</time>
      </trkpt>
      <trkpt lat="44.75706" lon="5.48664">
        <ele>1205.63</ele>
        <time>2024-11-03T08:40:09Z</time>
      </trkpt>
      <trkpt lat="44.75713" lon="5.48656">
        <ele>1208.03</ele>
        <time>2024-11-03T08:40:26Z</time>
      </trkpt>
      <trkpt lat="44.75717" lon="5.48649">
        <ele>1210.92</ele>
        <time>2024-11-03T08:40:41Z</time>
      </trkpt>
      <trkpt lat="44.75722" lon="5.48641">
        <ele>1213.32</ele>
        <time>2024-11-03T08:40:56Z</time>
      </trkpt>
      <trkpt lat="44.75726" lon="5.48633">
        <ele>1215.72</ele>
        <time>2024-11-03T08:41:11Z</time>
      </trkpt>
      <trkpt lat="44.75732" lon="5.48623">
        <ele>1218.13</ele>
        <time>2024-11-03T08:41:29Z</time>
      </trkpt>
      <trkpt lat="44.75737" lon="5.48613">
        <ele>1221.49</ele>
        <time>2024-11-03T08:41:45Z</time>
      </trkpt>
      <trkpt lat="44.75742" lon="5.48602">
        <ele>1223.9</ele>
        <time>2024-11-03T08:42:02Z</time>
      </trkpt>
      <trkpt lat="44.75748" lon="5.48602">
        <ele>1226.78</ele>
        <time>2024-11-03T08:42:20Z</time>
      </trkpt>
      <trkpt lat="44.75758" lon="5.4861">
        <ele>1229.18</ele>
        <time>2024-11-03T08:42:37Z</time>
      </trkpt>
      <trkpt lat="44.75768" lon="5.48612">
        <ele>1231.59</ele>
        <time>2024-11-03T08:42:53Z</time>
      </trkpt>
      <trkpt lat="44.75777" lon="5.48605">
        <ele>1234.47</ele>
        <time>2024-11-03T08:43:11Z</time>
      </trkpt>
      <trkpt lat="44.75786" lon="5.486">
        <ele>1237.83</ele>
        <time>2024-11-03T08:43:27Z</time>
      </trkpt>
      <trkpt lat="44.75794" lon="5.48593">
        <ele>1240.24</ele>
        <time>2024-11-03T08:43:44Z</time>
      </trkpt>
      <trkpt lat="44.75804" lon="5.48586">
        <ele>1243.12</ele>
        <time>2024-11-03T08:44:02Z</time>
      </trkpt>
      <trkpt lat="44.75814" lon="5.4859">
        <ele>1246.49</ele>
        <time>2024-11-03T08:44:19Z</time>
      </trkpt>
      <trkpt lat="44.75822" lon="5.48586">
        <ele>1248.89</ele>
        <time>2024-11-03T08:44:35Z</time>
      </trkpt>
      <trkpt lat="44.75826" lon="5.4858">
        <ele>1252.25</ele>
        <time>2024-11-03T08:44:52Z</time>
      </trkpt>
      <trkpt lat="44.75832" lon="5.48575">
        <ele>1255.14</ele>
        <time>2024-11-03T08:45:07Z</time>
      </trkpt>
      <trkpt lat="44.75836" lon="5.48569">
        <ele>1257.54</ele>
        <time>2024-11-03T08:45:23Z</time>
      </trkpt>
      <trkpt lat="44.75843" lon="5.48566">
        <ele>1260.43</ele>
        <time>2024-11-03T08:45:41Z</time>
      </trkpt>
      <trkpt lat="44.75851" lon="5.48561">
        <ele>1262.83</ele>
        <time>2024-11-03T08:45:57Z</time>
      </trkpt>
      <trkpt lat="44.75858" lon="5.48556">
        <ele>1265.71</ele>
        <time>2024-11-03T08:46:15Z</time>
      </trkpt>
      <trkpt lat="44.75865" lon="5.48554">
        <ele>1267.64</ele>
        <time>2024-11-03T08:46:29Z</time>
      </trkpt>
      <trkpt lat="44.75869" lon="5.48552">
        <ele>1270.04</ele>
        <time>2024-11-03T08:46:45Z</time>
      </trkpt>
      <trkpt lat="44.75874" lon="5.48552">
        <ele>1272.44</ele>
        <time>2024-11-03T08:46:59Z</time>
      </trkpt>
      <trkpt lat="44.7588" lon="5.48549">
        <ele>1275.81</ele>
        <time>2024-11-03T08:47:17Z</time>
      </trkpt>
      <trkpt lat="44.75886" lon="5.48543">
        <ele>1278.69</ele>
        <time>2024-11-03T08:47:33Z</time>
      </trkpt>
      <trkpt lat="44.75892" lon="5.48537">
        <ele>1280.61</ele>
        <time>2024-11-03T08:47:46Z</time>
      </trkpt>
      <trkpt lat="44.75899" lon="5.48535">
        <ele>1283.02</ele>
        <time>2024-11-03T08:48:03Z</time>
      </trkpt>
      <trkpt lat="44.75905" lon="5.48534">
        <ele>1284.46</ele>
        <time>2024-11-03T08:48:15Z</time>
      </trkpt>
      <trkpt lat="44.75914" lon="5.48536">
        <ele>1286.38</ele>
        <time>2024-11-03T08:48:29Z</time>
      </trkpt>
      <trkpt lat="44.75922" lon="5.48535">
        <ele>1289.27</ele>
        <time>2024-11-03T08:48:45Z</time>
      </trkpt>
      <trkpt lat="44.75928" lon="5.48533">
        <ele>1291.67</ele>
        <time>2024-11-03T08:49:00Z</time>
      </trkpt>
      <trkpt lat="44.75934" lon="5.48531">
        <ele>1292.63</ele>
        <time>2024-11-03T08:49:10Z</time>
      </trkpt>
      <trkpt lat="44.75941" lon="5.48532">
        <ele>1295.03</ele>
        <time>2024-11-03T08:49:25Z</time>
      </trkpt>
      <trkpt lat="44.75949" lon="5.48528">
        <ele>1297.44</ele>
        <time>2024-11-03T08:49:40Z</time>
      </trkpt>
      <trkpt lat="44.75956" lon="5.48529">
        <ele>1298.88</ele>
        <time>2024-11-03T08:49:52Z</time>
      </trkpt>
      <trkpt lat="44.75961" lon="5.48529">
        <ele>1300.32</ele>
        <time>2024-11-03T08:50:05Z</time>
      </trkpt>
      <trkpt lat="44.7597" lon="5.48529">
        <ele>1301.76</ele>
        <time>2024-11-03T08:50:18Z</time>
      </trkpt>
      <trkpt lat="44.75981" lon="5.48534">
        <ele>1302.72</ele>
        <time>2024-11-03T08:50:32Z</time>
      </trkpt>
      <trkpt lat="44.75985" lon="5.48536">
        <ele>1303.2</ele>
        <time>2024-11-03T08:50:37Z</time>
      </trkpt>
      <trkpt lat="44.75992" lon="5.48535">
        <ele>1303.69</ele>
        <time>2024-11-03T08:50:43Z</time>
      </trkpt>
      <trkpt lat="44.75997" lon="5.4853">
        <ele>1303.69</ele>
        <time>2024-11-03T08:50:48Z</time>
      </trkpt>
      <trkpt lat="44.75999" lon="5.48532">
        <ele>1304.17</ele>
        <time>2024-11-03T08:50:52Z</time>
      </trkpt>
      <trkpt lat="44.76008" lon="5.48538">
        <ele>1304.17</ele>
        <time>2024-11-03T08:51:02Z</time>
      </trkpt>
      <trkpt lat="44.76016" lon="5.48531">
        <ele>1304.17</ele>
        <time>2024-11-03T08:51:14Z</time>
      </trkpt>
      <trkpt lat="44.76014" lon="5.48515">
        <ele>1304.17</ele>
        <time>2024-11-03T08:51:29Z</time>
      </trkpt>
      <trkpt lat="44.76015" lon="5.48511">
        <ele>1303.69</ele>
        <time>2024-11-03T08:51:45Z</time>
      </trkpt>
      <trkpt lat="44.76016" lon="5.48509">
        <ele>1303.69</ele>
        <time>2024-11-03T08:51:59Z</time>
      </trkpt>
      <trkpt lat="44.76028" lon="5.48507">
        <ele>1299.36</ele>
        <time>2024-11-03T09:02:17Z</time>
      </trkpt>
      <trkpt lat="44.76036" lon="5.48507">
        <ele>1299.36</ele>
        <time>2024-11-03T09:02:26Z</time>
      </trkpt>
      <trkpt lat="44.76045" lon="5.48504">
        <ele>1299.36</ele>
        <time>2024-11-03T09:02:39Z</time>
      </trkpt>
      <trkpt lat="44.76047" lon="5.48505">
        <ele>1300.8</ele>
        <time>2024-11-03T09:02:41Z</time>
      </trkpt>
      <trkpt lat="44.76056" lon="5.48506">
        <ele>1300.8</ele>
        <time>2024-11-03T09:02:51Z</time>
      </trkpt>
      <trkpt lat="44.76058" lon="5.48508">
        <ele>1299.36</ele>
        <time>2024-11-03T09:02:53Z</time>
      </trkpt>
      <trkpt lat="44.76062" lon="5.4851">
        <ele>1298.88</ele>
        <time>2024-11-03T09:02:58Z</time>
      </trkpt>
      <trkpt lat="44.76064" lon="5.48511">
        <ele>1298.4</ele>
        <time>2024-11-03T09:03:00Z</time>
      </trkpt>
      <trkpt lat="44.76068" lon="5.48513">
        <ele>1298.4</ele>
        <time>2024-11-03T09:03:04Z</time>
      </trkpt>
      <trkpt lat="44.76071" lon="5.4851">
        <ele>1298.4</ele>
        <time>2024-11-03T09:03:07Z</time>
      </trkpt>
      <trkpt lat="44.7608" lon="5.4851">
        <ele>1297.92</ele>
        <time>2024-11-03T09:03:19Z</time>
      </trkpt>
      <trkpt lat="44.76085" lon="5.4851">
        <ele>1299.36</ele>
        <time>2024-11-03T09:03:25Z</time>
      </trkpt>
      <trkpt lat="44.76087" lon="5.48509">
        <ele>1299.36</ele>
        <time>2024-11-03T09:03:27Z</time>
      </trkpt>
      <trkpt lat="44.76096" lon="5.48503">
        <ele>1300.32</ele>
        <time>2024-11-03T09:03:38Z</time>
      </trkpt>
      <trkpt lat="44.76104" lon="5.48501">
        <ele>1301.28</ele>
        <time>2024-11-03T09:03:48Z</time>
      </trkpt>
      <trkpt lat="44.76109" lon="5.48497">
        <ele>1302.72</ele>
        <time>2024-11-03T09:04:00Z</time>
      </trkpt>
      <trkpt lat="44.76113" lon="5.48493">
        <ele>1303.69</ele>
        <time>2024-11-03T09:04:12Z</time>
      </trkpt>
      <trkpt lat="44.76117" lon="5.48487">
        <ele>1303.69</ele>
        <time>2024-11-03T09:04:23Z</time>
      </trkpt>
      <trkpt lat="44.76122" lon="5.48486">
        <ele>1303.69</ele>
        <time>2024-11-03T09:04:29Z</time>
      </trkpt>
      <trkpt lat="44.76136" lon="5.48482">
        <ele>1303.69</ele>
        <time>2024-11-03T09:04:42Z</time>
      </trkpt>
      <trkpt lat="44.76142" lon="5.48476">
        <ele>1303.69</ele>
        <time>2024-11-03T09:04:47Z</time>
      </trkpt>
      <trkpt lat="44.76149" lon="5.48471">
        <ele>1303.69</ele>
        <time>2024-11-03T09:04:54Z</time>
      </trkpt>
      <trkpt lat="44.76151" lon="5.48467">
        <ele>1303.69</ele>
        <time>2024-11-03T09:04:57Z</time>
      </trkpt>
      <trkpt lat="44.76161" lon="5.48459">
        <ele>1304.17</ele>
        <time>2024-11-03T09:05:09Z</time>
      </trkpt>
      <trkpt lat="44.76168" lon="5.48455">
        <ele>1306.09</ele>
        <time>2024-11-03T09:05:20Z</time>
      </trkpt>
      <trkpt lat="44.76175" lon="5.48452">
        <ele>1307.53</ele>
        <time>2024-11-03T09:05:31Z</time>
      </trkpt>
      <trkpt lat="44.76186" lon="5.4844">
        <ele>1309.45</ele>
        <time>2024-11-03T09:05:46Z</time>
      </trkpt>
      <trkpt lat="44.76189" lon="5.48437">
        <ele>1309.93</ele>
        <time>2024-11-03T09:05:50Z</time>
      </trkpt>
      <trkpt lat="44.7619" lon="5.48425">
        <ele>1309.93</ele>
        <time>2024-11-03T09:05:56Z</time>
      </trkpt>
      <trkpt lat="44.76191" lon="5.48419">
        <ele>1309.93</ele>
        <time>2024-11-03T09:05:59Z</time>
      </trkpt>
      <trkpt lat="44.76193" lon="5.48414">
        <ele>1308.49</ele>
        <time>2024-11-03T09:06:04Z</time>
      </trkpt>
      <trkpt lat="44.76197" lon="5.48406">
        <ele>1308.01</ele>
        <time>2024-11-03T09:06:09Z</time>
      </trkpt>
      <trkpt lat="44.762" lon="5.48395">
        <ele>1308.97</ele>
        <time>2024-11-03T09:06:18Z</time>
      </trkpt>
      <trkpt lat="44.76201" lon="5.48392">
        <ele>1308.97</ele>
        <time>2024-11-03T09:06:20Z</time>
      </trkpt>
      <trkpt lat="44.76204" lon="5.48386">
        <ele>1308.97</ele>
        <time>2024-11-03T09:06:25Z</time>
      </trkpt>
      <trkpt lat="44.76212" lon="5.48379">
        <ele>1308.97</ele>
        <time>2024-11-03T09:06:38Z</time>
      </trkpt>
      <trkpt lat="44.76218" lon="5.48376">
        <ele>1308.97</ele>
        <time>2024-11-03T09:06:46Z</time>
      </trkpt>
      <trkpt lat="44.76228" lon="5.48363">
        <ele>1310.41</ele>
        <time>2024-11-03T09:07:01Z</time>
      </trkpt>
      <trkpt lat="44.76236" lon="5.48355">
        <ele>1311.86</ele>
        <time>2024-11-03T09:07:13Z</time>
      </trkpt>
      <trkpt lat="44.76237" lon="5.48352">
        <ele>1312.34</ele>
        <time>2024-11-03T09:07:15Z</time>
      </trkpt>
      <trkpt lat="44.76243" lon="5.48339">
        <ele>1312.82</ele>
        <time>2024-11-03T09:07:25Z</time>
      </trkpt>
      <trkpt lat="44.76246" lon="5.48333">
        <ele>1313.78</ele>
        <time>2024-11-03T09:07:30Z</time>
      </trkpt>
      <trkpt lat="44.76252" lon="5.48322">
        <ele>1315.7</ele>
        <time>2024-11-03T09:07:45Z</time>
      </trkpt>
      <trkpt lat="44.76258" lon="5.48311">
        <ele>1315.7</ele>
        <time>2024-11-03T09:07:57Z</time>
      </trkpt>
      <trkpt lat="44.76261" lon="5.48308">
        <ele>1315.7</ele>
        <time>2024-11-03T09:08:00Z</time>
      </trkpt>
      <trkpt lat="44.76262" lon="5.48304">
        <ele>1314.26</ele>
        <time>2024-11-03T09:08:02Z</time>
      </trkpt>
      <trkpt lat="44.76268" lon="5.48293">
        <ele>1315.7</ele>
        <time>2024-11-03T09:08:13Z</time>
      </trkpt>
      <trkpt lat="44.76275" lon="5.48281">
        <ele>1317.14</ele>
        <time>2024-11-03T09:08:25Z</time>
      </trkpt>
      <trkpt lat="44.76279" lon="5.48274">
        <ele>1317.62</ele>
        <time>2024-11-03T09:08:32Z</time>
      </trkpt>
      <trkpt lat="44.76287" lon="5.48264">
        <ele>1319.07</ele>
        <time>2024-11-03T09:08:45Z</time>
      </trkpt>
      <trkpt lat="44.76295" lon="5.48252">
        <ele>1319.07</ele>
        <time>2024-11-03T09:08:58Z</time>
      </trkpt>
      <trkpt lat="44.76305" lon="5.48236">
        <ele>1320.03</ele>
        <time>2024-11-03T09:09:14Z</time>
      </trkpt>
      <trkpt lat="44.76315" lon="5.48222">
        <ele>1319.55</ele>
        <time>2024-11-03T09:09:29Z</time>
      </trkpt>
      <trkpt lat="44.76321" lon="5.48214">
        <ele>1319.55</ele>
        <time>2024-11-03T09:09:36Z</time>
      </trkpt>
      <trkpt lat="44.76323" lon="5.48213">
        <ele>1319.55</ele>
        <time>2024-11-03T09:09:38Z</time>
      </trkpt>
      <trkpt lat="44.76328" lon="5.48209">
        <ele>1319.55</ele>
        <time>2024-11-03T09:09:43Z</time>
      </trkpt>
      <trkpt lat="44.76333" lon="5.482">
        <ele>1319.55</ele>
        <time>2024-11-03T09:09:51Z</time>
      </trkpt>
      <trkpt lat="44.76341" lon="5.48186">
        <ele>1319.55</ele>
        <time>2024-11-03T09:10:04Z</time>
      </trkpt>
      <trkpt lat="44.76345" lon="5.48172">
        <ele>1319.07</ele>
        <time>2024-11-03T09:10:15Z</time>
      </trkpt>
      <trkpt lat="44.76348" lon="5.48167">
        <ele>1320.03</ele>
        <time>2024-11-03T09:10:20Z</time>
      </trkpt>
      <trkpt lat="44.76351" lon="5.48162">
        <ele>1320.51</ele>
        <time>2024-11-03T09:10:24Z</time>
      </trkpt>
      <trkpt lat="44.76354" lon="5.48157">
        <ele>1320.51</ele>
        <time>2024-11-03T09:10:28Z</time>
      </trkpt>
      <trkpt lat="44.76355" lon="5.48153">
        <ele>1320.99</ele>
        <time>2024-11-03T09:10:31Z</time>
      </trkpt>
      <trkpt lat="44.76358" lon="5.48135">
        <ele>1321.95</ele>
        <time>2024-11-03T09:10:42Z</time>
      </trkpt>
      <trkpt lat="44.76365" lon="5.48122">
        <ele>1322.43</ele>
        <time>2024-11-03T09:10:54Z</time>
      </trkpt>
      <trkpt lat="44.76366" lon="5.48115">
        <ele>1322.91</ele>
        <time>2024-11-03T09:11:00Z</time>
      </trkpt>
      <trkpt lat="44.7637" lon="5.48109">
        <ele>1323.87</ele>
        <time>2024-11-03T09:11:05Z</time>
      </trkpt>
      <trkpt lat="44.76377" lon="5.48103">
        <ele>1323.87</ele>
        <time>2024-11-03T09:11:13Z</time>
      </trkpt>
      <trkpt lat="44.76385" lon="5.48096">
        <ele>1324.35</ele>
        <time>2024-11-03T09:11:24Z</time>
      </trkpt>
      <trkpt lat="44.76393" lon="5.48089">
        <ele>1326.28</ele>
        <time>2024-11-03T09:11:38Z</time>
      </trkpt>
      <trkpt lat="44.76397" lon="5.48069">
        <ele>1326.76</ele>
        <time>2024-11-03T09:11:50Z</time>
      </trkpt>
      <trkpt lat="44.76402" lon="5.48062">
        <ele>1327.24</ele>
        <time>2024-11-03T09:11:57Z</time>
      </trkpt>
      <trkpt lat="44.76413" lon="5.48046">
        <ele>1326.76</ele>
        <time>2024-11-03T09:12:12Z</time>
      </trkpt>
      <trkpt lat="44.76422" lon="5.48031">
        <ele>1325.8</ele>
        <time>2024-11-03T09:12:26Z</time>
      </trkpt>
      <trkpt lat="44.76427" lon="5.48028">
        <ele>1326.28</ele>
        <time>2024-11-03T09:12:38Z</time>
      </trkpt>
      <trkpt lat="44.76435" lon="5.48024">
        <ele>1328.2</ele>
        <time>2024-11-03T09:12:51Z</time>
      </trkpt>
      <trkpt lat="44.76448" lon="5.48034">
        <ele>1328.68</ele>
        <time>2024-11-03T09:13:05Z</time>
      </trkpt>
      <trkpt lat="44.76455" lon="5.48045">
        <ele>1330.12</ele>
        <time>2024-11-03T09:13:16Z</time>
      </trkpt>
      <trkpt lat="44.76459" lon="5.48049">
        <ele>1330.6</ele>
        <time>2024-11-03T09:13:21Z</time>
      </trkpt>
      <trkpt lat="44.76469" lon="5.48054">
        <ele>1331.56</ele>
        <time>2024-11-03T09:13:33Z</time>
      </trkpt>
      <trkpt lat="44.7648" lon="5.4805">
        <ele>1332.52</ele>
        <time>2024-11-03T09:13:46Z</time>
      </trkpt>
      <trkpt lat="44.76487" lon="5.48055">
        <ele>1333.01</ele>
        <time>2024-11-03T09:13:54Z</time>
      </trkpt>
      <trkpt lat="44.76498" lon="5.48063">
        <ele>1333.49</ele>
        <time>2024-11-03T09:14:08Z</time>
      </trkpt>
      <trkpt lat="44.76507" lon="5.48067">
        <ele>1334.93</ele>
        <time>2024-11-03T09:14:20Z</time>
      </trkpt>
      <trkpt lat="44.76516" lon="5.48067">
        <ele>1336.85</ele>
        <time>2024-11-03T09:14:31Z</time>
      </trkpt>
      <trkpt lat="44.76527" lon="5.48074">
        <ele>1337.81</ele>
        <time>2024-11-03T09:14:45Z</time>
      </trkpt>
      <trkpt lat="44.76539" lon="5.48078">
        <ele>1336.85</ele>
        <time>2024-11-03T09:14:58Z</time>
      </trkpt>
      <trkpt lat="44.76552" lon="5.48077">
        <ele>1336.37</ele>
        <time>2024-11-03T09:15:12Z</time>
      </trkpt>
      <trkpt lat="44.76562" lon="5.48079">
        <ele>1336.37</ele>
        <time>2024-11-03T09:15:25Z</time>
      </trkpt>
      <trkpt lat="44.76568" lon="5.48082">
        <ele>1337.81</ele>
        <time>2024-11-03T09:15:35Z</time>
      </trkpt>
      <trkpt lat="44.76574" lon="5.48085">
        <ele>1339.25</ele>
        <time>2024-11-03T09:15:46Z</time>
      </trkpt>
      <trkpt lat="44.7658" lon="5.48087">
        <ele>1341.18</ele>
        <time>2024-11-03T09:15:58Z</time>
      </trkpt>
      <trkpt lat="44.76585" lon="5.48089">
        <ele>1342.14</ele>
        <time>2024-11-03T09:16:05Z</time>
      </trkpt>
      <trkpt lat="44.76593" lon="5.48091">
        <ele>1342.14</ele>
        <time>2024-11-03T09:16:16Z</time>
      </trkpt>
      <trkpt lat="44.76603" lon="5.48094">
        <ele>1342.62</ele>
        <time>2024-11-03T09:16:30Z</time>
      </trkpt>
      <trkpt lat="44.76608" lon="5.48097">
        <ele>1342.62</ele>
        <time>2024-11-03T09:16:36Z</time>
      </trkpt>
      <trkpt lat="44.76617" lon="5.48096">
        <ele>1342.62</ele>
        <time>2024-11-03T09:16:48Z</time>
      </trkpt>
      <trkpt lat="44.76627" lon="5.48094">
        <ele>1344.06</ele>
        <time>2024-11-03T09:17:03Z</time>
      </trkpt>
      <trkpt lat="44.7664" lon="5.48097">
        <ele>1344.06</ele>
        <time>2024-11-03T09:17:18Z</time>
      </trkpt>
      <trkpt lat="44.76649" lon="5.48099">
        <ele>1345.02</ele>
        <time>2024-11-03T09:17:30Z</time>
      </trkpt>
      <trkpt lat="44.76658" lon="5.48101">
        <ele>1346.46</ele>
        <time>2024-11-03T09:17:45Z</time>
      </trkpt>
      <trkpt lat="44.76667" lon="5.48104">
        <ele>1347.91</ele>
        <time>2024-11-03T09:17:57Z</time>
      </trkpt>
      <trkpt lat="44.76674" lon="5.4811">
        <ele>1348.39</ele>
        <time>2024-11-03T09:18:09Z</time>
      </trkpt>
      <trkpt lat="44.76682" lon="5.48117">
        <ele>1348.87</ele>
        <time>2024-11-03T09:18:21Z</time>
      </trkpt>
      <trkpt lat="44.7669" lon="5.48123">
        <ele>1350.31</ele>
        <time>2024-11-03T09:18:34Z</time>
      </trkpt>
      <trkpt lat="44.76703" lon="5.48126">
        <ele>1351.27</ele>
        <time>2024-11-03T09:18:47Z</time>
      </trkpt>
      <trkpt lat="44.76714" lon="5.4813">
        <ele>1352.71</ele>
        <time>2024-11-03T09:19:02Z</time>
      </trkpt>
      <trkpt lat="44.76723" lon="5.48136">
        <ele>1356.08</ele>
        <time>2024-11-03T09:19:16Z</time>
      </trkpt>
      <trkpt lat="44.76732" lon="5.48141">
        <ele>1358</ele>
        <time>2024-11-03T09:19:31Z</time>
      </trkpt>
      <trkpt lat="44.76742" lon="5.48144">
        <ele>1359.92</ele>
        <time>2024-11-03T09:19:44Z</time>
      </trkpt>
      <trkpt lat="44.76754" lon="5.48142">
        <ele>1361.84</ele>
        <time>2024-11-03T09:19:59Z</time>
      </trkpt>
      <trkpt lat="44.76764" lon="5.48143">
        <ele>1360.4</ele>
        <time>2024-11-03T09:20:10Z</time>
      </trkpt>
      <trkpt lat="44.76775" lon="5.48149">
        <ele>1359.92</ele>
        <time>2024-11-03T09:20:26Z</time>
      </trkpt>
      <trkpt lat="44.76786" lon="5.48151">
        <ele>1359.92</ele>
        <time>2024-11-03T09:20:39Z</time>
      </trkpt>
      <trkpt lat="44.76801" lon="5.48152">
        <ele>1359.92</ele>
        <time>2024-11-03T09:20:53Z</time>
      </trkpt>
      <trkpt lat="44.76818" lon="5.48149">
        <ele>1359.92</ele>
        <time>2024-11-03T09:21:08Z</time>
      </trkpt>
      <trkpt lat="44.76835" lon="5.48146">
        <ele>1362.33</ele>
        <time>2024-11-03T09:21:22Z</time>
      </trkpt>
      <trkpt lat="44.76845" lon="5.48149">
        <ele>1362.81</ele>
        <time>2024-11-03T09:21:35Z</time>
      </trkpt>
      <trkpt lat="44.76855" lon="5.48151">
        <ele>1365.21</ele>
        <time>2024-11-03T09:21:48Z</time>
      </trkpt>
      <trkpt lat="44.76871" lon="5.48148">
        <ele>1367.61</ele>
        <time>2024-11-03T09:22:07Z</time>
      </trkpt>
      <trkpt lat="44.76884" lon="5.48152">
        <ele>1369.05</ele>
        <time>2024-11-03T09:22:22Z</time>
      </trkpt>
      <trkpt lat="44.76897" lon="5.48152">
        <ele>1370.5</ele>
        <time>2024-11-03T09:22:35Z</time>
      </trkpt>
      <trkpt lat="44.76909" lon="5.48153">
        <ele>1370.98</ele>
        <time>2024-11-03T09:22:50Z</time>
      </trkpt>
      <trkpt lat="44.76924" lon="5.48156">
        <ele>1372.9</ele>
        <time>2024-11-03T09:23:06Z</time>
      </trkpt>
      <trkpt lat="44.76939" lon="5.48154">
        <ele>1373.38</ele>
        <time>2024-11-03T09:23:20Z</time>
      </trkpt>
      <trkpt lat="44.76953" lon="5.48148">
        <ele>1374.34</ele>
        <time>2024-11-03T09:23:34Z</time>
      </trkpt>
      <trkpt lat="44.76967" lon="5.48142">
        <ele>1374.82</ele>
        <time>2024-11-03T09:23:49Z</time>
      </trkpt>
      <trkpt lat="44.76978" lon="5.48139">
        <ele>1375.78</ele>
        <time>2024-11-03T09:24:02Z</time>
      </trkpt>
      <trkpt lat="44.76995" lon="5.48141">
        <ele>1377.23</ele>
        <time>2024-11-03T09:24:19Z</time>
      </trkpt>
      <trkpt lat="44.77005" lon="5.48145">
        <ele>1379.15</ele>
        <time>2024-11-03T09:24:33Z</time>
      </trkpt>
      <trkpt lat="44.77012" lon="5.48148">
        <ele>1381.07</ele>
        <time>2024-11-03T09:24:45Z</time>
      </trkpt>
      <trkpt lat="44.77023" lon="5.48151">
        <ele>1383.47</ele>
        <time>2024-11-03T09:25:02Z</time>
      </trkpt>
      <trkpt lat="44.77031" lon="5.48159">
        <ele>1385.88</ele>
        <time>2024-11-03T09:25:18Z</time>
      </trkpt>
      <trkpt lat="44.7704" lon="5.48163">
        <ele>1387.8</ele>
        <time>2024-11-03T09:25:32Z</time>
      </trkpt>
      <trkpt lat="44.77046" lon="5.48165">
        <ele>1390.2</ele>
        <time>2024-11-03T09:25:47Z</time>
      </trkpt>
      <trkpt lat="44.77055" lon="5.48158">
        <ele>1392.61</ele>
        <time>2024-11-03T09:26:03Z</time>
      </trkpt>
      <trkpt lat="44.77058" lon="5.48155">
        <ele>1394.05</ele>
        <time>2024-11-03T09:26:15Z</time>
      </trkpt>
      <trkpt lat="44.77061" lon="5.48163">
        <ele>1396.93</ele>
        <time>2024-11-03T09:31:15Z</time>
      </trkpt>
      <trkpt lat="44.77064" lon="5.48173">
        <ele>1398.37</ele>
        <time>2024-11-03T09:31:30Z</time>
      </trkpt>
      <trkpt lat="44.77066" lon="5.48178">
        <ele>1401.26</ele>
        <time>2024-11-03T09:31:44Z</time>
      </trkpt>
      <trkpt lat="44.77063" lon="5.48183">
        <ele>1404.62</ele>
        <time>2024-11-03T09:31:58Z</time>
      </trkpt>
      <trkpt lat="44.77055" lon="5.4819">
        <ele>1406.07</ele>
        <time>2024-11-03T09:32:13Z</time>
      </trkpt>
      <trkpt lat="44.77057" lon="5.48193">
        <ele>1408.95</ele>
        <time>2024-11-03T09:32:28Z</time>
      </trkpt>
      <trkpt lat="44.77062" lon="5.48205">
        <ele>1411.83</ele>
        <time>2024-11-03T09:32:44Z</time>
      </trkpt>
      <trkpt lat="44.77067" lon="5.48219">
        <ele>1412.79</ele>
        <time>2024-11-03T09:32:58Z</time>
      </trkpt>
      <trkpt lat="44.77073" lon="5.48228">
        <ele>1414.24</ele>
        <time>2024-11-03T09:33:12Z</time>
      </trkpt>
      <trkpt lat="44.77085" lon="5.48232">
        <ele>1417.12</ele>
        <time>2024-11-03T09:33:26Z</time>
      </trkpt>
      <trkpt lat="44.77094" lon="5.48236">
        <ele>1419.52</ele>
        <time>2024-11-03T09:33:40Z</time>
      </trkpt>
      <trkpt lat="44.77089" lon="5.48245">
        <ele>1420.97</ele>
        <time>2024-11-03T09:33:54Z</time>
      </trkpt>
      <trkpt lat="44.77082" lon="5.48259">
        <ele>1422.89</ele>
        <time>2024-11-03T09:34:07Z</time>
      </trkpt>
      <trkpt lat="44.77074" lon="5.48267">
        <ele>1424.33</ele>
        <time>2024-11-03T09:34:21Z</time>
      </trkpt>
      <trkpt lat="44.77071" lon="5.48273">
        <ele>1427.21</ele>
        <time>2024-11-03T09:34:34Z</time>
      </trkpt>
      <trkpt lat="44.77079" lon="5.48273">
        <ele>1430.1</ele>
        <time>2024-11-03T09:34:50Z</time>
      </trkpt>
      <trkpt lat="44.7709" lon="5.48275">
        <ele>1432.98</ele>
        <time>2024-11-03T09:35:06Z</time>
      </trkpt>
      <trkpt lat="44.77097" lon="5.48285">
        <ele>1434.42</ele>
        <time>2024-11-03T09:35:20Z</time>
      </trkpt>
      <trkpt lat="44.77104" lon="5.48291">
        <ele>1436.83</ele>
        <time>2024-11-03T09:35:34Z</time>
      </trkpt>
      <trkpt lat="44.77113" lon="5.48293">
        <ele>1438.75</ele>
        <time>2024-11-03T09:35:46Z</time>
      </trkpt>
      <trkpt lat="44.77117" lon="5.48303">
        <ele>1441.63</ele>
        <time>2024-11-03T09:36:01Z</time>
      </trkpt>
      <trkpt lat="44.77116" lon="5.48309">
        <ele>1444.52</ele>
        <time>2024-11-03T09:36:18Z</time>
      </trkpt>
      <trkpt lat="44.77112" lon="5.48316">
        <ele>1447.4</ele>
        <time>2024-11-03T09:36:35Z</time>
      </trkpt>
      <trkpt lat="44.77118" lon="5.48322">
        <ele>1449.81</ele>
        <time>2024-11-03T09:36:52Z</time>
      </trkpt>
      <trkpt lat="44.77122" lon="5.48331">
        <ele>1453.17</ele>
        <time>2024-11-03T09:37:07Z</time>
      </trkpt>
      <trkpt lat="44.77128" lon="5.48339">
        <ele>1454.61</ele>
        <time>2024-11-03T09:37:21Z</time>
      </trkpt>
      <trkpt lat="44.77128" lon="5.48349">
        <ele>1457.5</ele>
        <time>2024-11-03T09:37:35Z</time>
      </trkpt>
      <trkpt lat="44.77122" lon="5.48351">
        <ele>1459.9</ele>
        <time>2024-11-03T09:37:51Z</time>
      </trkpt>
      <trkpt lat="44.77122" lon="5.48358">
        <ele>1463.26</ele>
        <time>2024-11-03T09:38:10Z</time>
      </trkpt>
      <trkpt lat="44.77115" lon="5.4836">
        <ele>1465.67</ele>
        <time>2024-11-03T09:38:25Z</time>
      </trkpt>
      <trkpt lat="44.77107" lon="5.48362">
        <ele>1468.55</ele>
        <time>2024-11-03T09:38:40Z</time>
      </trkpt>
      <trkpt lat="44.77108" lon="5.48374">
        <ele>1469.99</ele>
        <time>2024-11-03T09:38:53Z</time>
      </trkpt>
      <trkpt lat="44.77111" lon="5.48376">
        <ele>1470.95</ele>
        <time>2024-11-03T09:38:57Z</time>
      </trkpt>
      <trkpt lat="44.77115" lon="5.48386">
        <ele>1472.88</ele>
        <time>2024-11-03T09:39:10Z</time>
      </trkpt>
      <trkpt lat="44.77119" lon="5.48391">
        <ele>1475.28</ele>
        <time>2024-11-03T09:39:24Z</time>
      </trkpt>
      <trkpt lat="44.7712" lon="5.48398">
        <ele>1476.72</ele>
        <time>2024-11-03T09:39:34Z</time>
      </trkpt>
      <trkpt lat="44.77119" lon="5.48408">
        <ele>1478.65</ele>
        <time>2024-11-03T09:39:47Z</time>
      </trkpt>
      <trkpt lat="44.77121" lon="5.4841">
        <ele>1480.09</ele>
        <time>2024-11-03T09:39:51Z</time>
      </trkpt>
      <trkpt lat="44.77126" lon="5.4842">
        <ele>1482.01</ele>
        <time>2024-11-03T09:40:07Z</time>
      </trkpt>
      <trkpt lat="44.77126" lon="5.48428">
        <ele>1484.89</ele>
        <time>2024-11-03T09:40:22Z</time>
      </trkpt>
      <trkpt lat="44.77127" lon="5.48436">
        <ele>1487.3</ele>
        <time>2024-11-03T09:40:35Z</time>
      </trkpt>
      <trkpt lat="44.77129" lon="5.48445">
        <ele>1490.18</ele>
        <time>2024-11-03T09:40:52Z</time>
      </trkpt>
      <trkpt lat="44.77124" lon="5.4845">
        <ele>1492.1</ele>
        <time>2024-11-03T09:41:07Z</time>
      </trkpt>
      <trkpt lat="44.77121" lon="5.48453">
        <ele>1494.51</ele>
        <time>2024-11-03T09:41:21Z</time>
      </trkpt>
      <trkpt lat="44.77125" lon="5.4846">
        <ele>1496.43</ele>
        <time>2024-11-03T09:41:34Z</time>
      </trkpt>
      <trkpt lat="44.77126" lon="5.48466">
        <ele>1498.83</ele>
        <time>2024-11-03T09:41:48Z</time>
      </trkpt>
      <trkpt lat="44.77128" lon="5.48474">
        <ele>1500.76</ele>
        <time>2024-11-03T09:42:01Z</time>
      </trkpt>
      <trkpt lat="44.77121" lon="5.48474">
        <ele>1502.68</ele>
        <time>2024-11-03T09:42:14Z</time>
      </trkpt>
      <trkpt lat="44.77116" lon="5.48479">
        <ele>1505.08</ele>
        <time>2024-11-03T09:42:28Z</time>
      </trkpt>
      <trkpt lat="44.77113" lon="5.48483">
        <ele>1507.48</ele>
        <time>2024-11-03T09:42:42Z</time>
      </trkpt>
      <trkpt lat="44.77112" lon="5.4849">
        <ele>1510.37</ele>
        <time>2024-11-03T09:42:57Z</time>
      </trkpt>
      <trkpt lat="44.77112" lon="5.48494">
        <ele>1512.77</ele>
        <time>2024-11-03T09:43:12Z</time>
      </trkpt>
      <trkpt lat="44.7711" lon="5.48497">
        <ele>1514.69</ele>
        <time>2024-11-03T09:43:24Z</time>
      </trkpt>
      <trkpt lat="44.7711" lon="5.48501">
        <ele>1517.1</ele>
        <time>2024-11-03T09:43:40Z</time>
      </trkpt>
      <trkpt lat="44.7711" lon="5.48503">
        <ele>1519.02</ele>
        <time>2024-11-03T09:43:54Z</time>
      </trkpt>
      <trkpt lat="44.77103" lon="5.48505">
        <ele>1521.9</ele>
        <time>2024-11-03T09:44:10Z</time>
      </trkpt>
      <trkpt lat="44.77098" lon="5.48506">
        <ele>1524.79</ele>
        <time>2024-11-03T09:44:24Z</time>
      </trkpt>
      <trkpt lat="44.77093" lon="5.48503">
        <ele>1527.67</ele>
        <time>2024-11-03T09:44:40Z</time>
      </trkpt>
      <trkpt lat="44.77086" lon="5.48503">
        <ele>1530.08</ele>
        <time>2024-11-03T09:44:55Z</time>
      </trkpt>
      <trkpt lat="44.77084" lon="5.48505">
        <ele>1532.96</ele>
        <time>2024-11-03T09:45:11Z</time>
      </trkpt>
      <trkpt lat="44.77089" lon="5.48513">
        <ele>1534.88</ele>
        <time>2024-11-03T09:45:25Z</time>
      </trkpt>
      <trkpt lat="44.77091" lon="5.48526">
        <ele>1537.29</ele>
        <time>2024-11-03T09:45:40Z</time>
      </trkpt>
      <trkpt lat="44.77093" lon="5.48535">
        <ele>1539.69</ele>
        <time>2024-11-03T09:45:57Z</time>
      </trkpt>
      <trkpt lat="44.77097" lon="5.48544">
        <ele>1542.57</ele>
        <time>2024-11-03T09:46:12Z</time>
      </trkpt>
      <trkpt lat="44.77101" lon="5.48547">
        <ele>1544.5</ele>
        <time>2024-11-03T09:46:26Z</time>
      </trkpt>
      <trkpt lat="44.7711" lon="5.48549">
        <ele>1545.94</ele>
        <time>2024-11-03T09:46:39Z</time>
      </trkpt>
      <trkpt lat="44.77117" lon="5.48541">
        <ele>1547.86</ele>
        <time>2024-11-03T09:46:56Z</time>
      </trkpt>
      <trkpt lat="44.77127" lon="5.48535">
        <ele>1547.86</ele>
        <time>2024-11-03T09:47:10Z</time>
      </trkpt>
      <trkpt lat="44.77132" lon="5.48538">
        <ele>1549.3</ele>
        <time>2024-11-03T09:47:23Z</time>
      </trkpt>
      <trkpt lat="44.77138" lon="5.48543">
        <ele>1552.19</ele>
        <time>2024-11-03T09:47:39Z</time>
      </trkpt>
      <trkpt lat="44.77136" lon="5.4855">
        <ele>1554.59</ele>
        <time>2024-11-03T09:47:54Z</time>
      </trkpt>
      <trkpt lat="44.77133" lon="5.48555">
        <ele>1557.47</ele>
        <time>2024-11-03T09:48:09Z</time>
      </trkpt>
      <trkpt lat="44.77139" lon="5.48561">
        <ele>1560.36</ele>
        <time>2024-11-03T09:48:26Z</time>
      </trkpt>
      <trkpt lat="44.77135" lon="5.48567">
        <ele>1562.76</ele>
        <time>2024-11-03T09:48:40Z</time>
      </trkpt>
      <trkpt lat="44.7713" lon="5.48574">
        <ele>1565.64</ele>
        <time>2024-11-03T09:48:56Z</time>
      </trkpt>
      <trkpt lat="44.77129" lon="5.48582">
        <ele>1567.57</ele>
        <time>2024-11-03T09:49:10Z</time>
      </trkpt>
      <trkpt lat="44.7713" lon="5.48587">
        <ele>1569.49</ele>
        <time>2024-11-03T09:49:25Z</time>
      </trkpt>
      <trkpt lat="44.77133" lon="5.48591">
        <ele>1570.93</ele>
        <time>2024-11-03T09:49:37Z</time>
      </trkpt>
      <trkpt lat="44.77139" lon="5.48591">
        <ele>1572.37</ele>
        <time>2024-11-03T09:49:52Z</time>
      </trkpt>
      <trkpt lat="44.77144" lon="5.48599">
        <ele>1573.33</ele>
        <time>2024-11-03T09:50:08Z</time>
      </trkpt>
      <trkpt lat="44.77148" lon="5.48599">
        <ele>1578.62</ele>
        <time>2024-11-03T09:59:08Z</time>
      </trkpt>
      <trkpt lat="44.77154" lon="5.48603">
        <ele>1578.62</ele>
        <time>2024-11-03T09:59:28Z</time>
      </trkpt>
      <trkpt lat="44.77162" lon="5.4861">
        <ele>1580.06</ele>
        <time>2024-11-03T09:59:41Z</time>
      </trkpt>
      <trkpt lat="44.77166" lon="5.48616">
        <ele>1580.06</ele>
        <time>2024-11-03T09:59:47Z</time>
      </trkpt>
      <trkpt lat="44.77174" lon="5.48622">
        <ele>1580.54</ele>
        <time>2024-11-03T09:59:54Z</time>
      </trkpt>
      <trkpt lat="44.77179" lon="5.48626">
        <ele>1580.54</ele>
        <time>2024-11-03T10:00:00Z</time>
      </trkpt>
      <trkpt lat="44.77181" lon="5.4863">
        <ele>1581.03</ele>
        <time>2024-11-03T10:00:03Z</time>
      </trkpt>
      <trkpt lat="44.77193" lon="5.48644">
        <ele>1581.03</ele>
        <time>2024-11-03T10:00:17Z</time>
      </trkpt>
      <trkpt lat="44.77195" lon="5.48648">
        <ele>1581.51</ele>
        <time>2024-11-03T10:00:21Z</time>
      </trkpt>
      <trkpt lat="44.77198" lon="5.48652">
        <ele>1580.06</ele>
        <time>2024-11-03T10:00:25Z</time>
      </trkpt>
      <trkpt lat="44.77203" lon="5.48667">
        <ele>1580.06</ele>
        <time>2024-11-03T10:00:38Z</time>
      </trkpt>
      <trkpt lat="44.77207" lon="5.48671">
        <ele>1580.06</ele>
        <time>2024-11-03T10:00:42Z</time>
      </trkpt>
      <trkpt lat="44.77217" lon="5.48679">
        <ele>1581.51</ele>
        <time>2024-11-03T10:00:55Z</time>
      </trkpt>
      <trkpt lat="44.77228" lon="5.48679">
        <ele>1582.95</ele>
        <time>2024-11-03T10:01:09Z</time>
      </trkpt>
      <trkpt lat="44.77233" lon="5.48678">
        <ele>1582.95</ele>
        <time>2024-11-03T10:01:16Z</time>
      </trkpt>
      <trkpt lat="44.77235" lon="5.48676">
        <ele>1581.51</ele>
        <time>2024-11-03T10:01:18Z</time>
      </trkpt>
      <trkpt lat="44.77242" lon="5.48675">
        <ele>1581.51</ele>
        <time>2024-11-03T10:01:25Z</time>
      </trkpt>
      <trkpt lat="44.77248" lon="5.48683">
        <ele>1581.51</ele>
        <time>2024-11-03T10:01:34Z</time>
      </trkpt>
      <trkpt lat="44.77261" lon="5.48689">
        <ele>1583.43</ele>
        <time>2024-11-03T10:01:48Z</time>
      </trkpt>
      <trkpt lat="44.77272" lon="5.48697">
        <ele>1584.39</ele>
        <time>2024-11-03T10:01:58Z</time>
      </trkpt>
      <trkpt lat="44.77282" lon="5.48705">
        <ele>1586.31</ele>
        <time>2024-11-03T10:02:12Z</time>
      </trkpt>
      <trkpt lat="44.77291" lon="5.48717">
        <ele>1586.31</ele>
        <time>2024-11-03T10:02:25Z</time>
      </trkpt>
      <trkpt lat="44.77292" lon="5.48719">
        <ele>1586.31</ele>
        <time>2024-11-03T10:02:27Z</time>
      </trkpt>
      <trkpt lat="44.77297" lon="5.48729">
        <ele>1586.79</ele>
        <time>2024-11-03T10:02:35Z</time>
      </trkpt>
      <trkpt lat="44.77304" lon="5.48751">
        <ele>1587.27</ele>
        <time>2024-11-03T10:02:50Z</time>
      </trkpt>
      <trkpt lat="44.77306" lon="5.48754">
        <ele>1587.27</ele>
        <time>2024-11-03T10:02:52Z</time>
      </trkpt>
      <trkpt lat="44.77318" lon="5.48774">
        <ele>1587.27</ele>
        <time>2024-11-03T10:03:07Z</time>
      </trkpt>
      <trkpt lat="44.77325" lon="5.4878">
        <ele>1587.75</ele>
        <time>2024-11-03T10:03:16Z</time>
      </trkpt>
      <trkpt lat="44.7733" lon="5.48787">
        <ele>1587.75</ele>
        <time>2024-11-03T10:03:24Z</time>
      </trkpt>
      <trkpt lat="44.77335" lon="5.48807">
        <ele>1589.2</ele>
        <time>2024-11-03T10:03:39Z</time>
      </trkpt>
      <trkpt lat="44.77346" lon="5.48817">
        <ele>1590.64</ele>
        <time>2024-11-03T10:03:53Z</time>
      </trkpt>
      <trkpt lat="44.77347" lon="5.48818">
        <ele>1590.64</ele>
        <time>2024-11-03T10:03:54Z</time>
      </trkpt>
      <trkpt lat="44.77361" lon="5.48827">
        <ele>1590.64</ele>
        <time>2024-11-03T10:04:10Z</time>
      </trkpt>
      <trkpt lat="44.77361" lon="5.48829">
        <ele>1590.64</ele>
        <time>2024-11-03T10:04:11Z</time>
      </trkpt>
      <trkpt lat="44.77362" lon="5.48837">
        <ele>1590.64</ele>
        <time>2024-11-03T10:04:17Z</time>
      </trkpt>
      <trkpt lat="44.77367" lon="5.48845">
        <ele>1591.12</ele>
        <time>2024-11-03T10:04:22Z</time>
      </trkpt>
      <trkpt lat="44.77372" lon="5.4886">
        <ele>1591.6</ele>
        <time>2024-11-03T10:04:35Z</time>
      </trkpt>
      <trkpt lat="44.77376" lon="5.48863">
        <ele>1592.08</ele>
        <time>2024-11-03T10:04:39Z</time>
      </trkpt>
      <trkpt lat="44.77383" lon="5.48865">
        <ele>1592.08</ele>
        <time>2024-11-03T10:04:46Z</time>
      </trkpt>
      <trkpt lat="44.77386" lon="5.48869">
        <ele>1592.08</ele>
        <time>2024-11-03T10:04:50Z</time>
      </trkpt>
      <trkpt lat="44.77391" lon="5.48889">
        <ele>1592.08</ele>
        <time>2024-11-03T10:05:04Z</time>
      </trkpt>
      <trkpt lat="44.77407" lon="5.48896">
        <ele>1594</ele>
        <time>2024-11-03T10:05:20Z</time>
      </trkpt>
      <trkpt lat="44.77414" lon="5.48904">
        <ele>1596.41</ele>
        <time>2024-11-03T10:05:34Z</time>
      </trkpt>
      <trkpt lat="44.77419" lon="5.48915">
        <ele>1598.81</ele>
        <time>2024-11-03T10:05:48Z</time>
      </trkpt>
      <trkpt lat="44.77426" lon="5.48924">
        <ele>1601.21</ele>
        <time>2024-11-03T10:06:05Z</time>
      </trkpt>
      <trkpt lat="44.7743" lon="5.48933">
        <ele>1603.62</ele>
        <time>2024-11-03T10:06:17Z</time>
      </trkpt>
      <trkpt lat="44.77438" lon="5.4894">
        <ele>1605.54</ele>
        <time>2024-11-03T10:06:33Z</time>
      </trkpt>
      <trkpt lat="44.77436" lon="5.4895">
        <ele>1607.94</ele>
        <time>2024-11-03T10:06:50Z</time>
      </trkpt>
      <trkpt lat="44.77429" lon="5.48954">
        <ele>1611.31</ele>
        <time>2024-11-03T10:07:04Z</time>
      </trkpt>
      <trkpt lat="44.77416" lon="5.48955">
        <ele>1612.27</ele>
        <time>2024-11-03T10:07:20Z</time>
      </trkpt>
      <trkpt lat="44.77407" lon="5.48963">
        <ele>1614.67</ele>
        <time>2024-11-03T10:07:36Z</time>
      </trkpt>
      <trkpt lat="44.77403" lon="5.48977">
        <ele>1615.63</ele>
        <time>2024-11-03T10:07:49Z</time>
      </trkpt>
      <trkpt lat="44.77401" lon="5.48985">
        <ele>1615.63</ele>
        <time>2024-11-03T10:07:56Z</time>
      </trkpt>
      <trkpt lat="44.77392" lon="5.49003">
        <ele>1615.63</ele>
        <time>2024-11-03T10:08:13Z</time>
      </trkpt>
      <trkpt lat="44.77382" lon="5.49008">
        <ele>1617.56</ele>
        <time>2024-11-03T10:08:28Z</time>
      </trkpt>
      <trkpt lat="44.77375" lon="5.49017">
        <ele>1618.52</ele>
        <time>2024-11-03T10:08:41Z</time>
      </trkpt>
      <trkpt lat="44.77363" lon="5.49028">
        <ele>1618.52</ele>
        <time>2024-11-03T10:08:56Z</time>
      </trkpt>
      <trkpt lat="44.77359" lon="5.49043">
        <ele>1621.88</ele>
        <time>2024-11-03T10:09:11Z</time>
      </trkpt>
      <trkpt lat="44.77357" lon="5.49056">
        <ele>1622.36</ele>
        <time>2024-11-03T10:09:21Z</time>
      </trkpt>
      <trkpt lat="44.77354" lon="5.49073">
        <ele>1622.36</ele>
        <time>2024-11-03T10:09:35Z</time>
      </trkpt>
      <trkpt lat="44.77349" lon="5.49095">
        <ele>1622.36</ele>
        <time>2024-11-03T10:09:52Z</time>
      </trkpt>
      <trkpt lat="44.77346" lon="5.49104">
        <ele>1621.4</ele>
        <time>2024-11-03T10:10:00Z</time>
      </trkpt>
      <trkpt lat="44.77343" lon="5.49122">
        <ele>1621.4</ele>
        <time>2024-11-03T10:10:16Z</time>
      </trkpt>
      <trkpt lat="44.77342" lon="5.49125">
        <ele>1622.36</ele>
        <time>2024-11-03T10:10:20Z</time>
      </trkpt>
      <trkpt lat="44.77339" lon="5.49139">
        <ele>1623.8</ele>
        <time>2024-11-03T10:10:34Z</time>
      </trkpt>
      <trkpt lat="44.77331" lon="5.49148">
        <ele>1625.73</ele>
        <time>2024-11-03T10:10:51Z</time>
      </trkpt>
      <trkpt lat="44.77325" lon="5.49156">
        <ele>1628.61</ele>
        <time>2024-11-03T10:11:06Z</time>
      </trkpt>
      <trkpt lat="44.7732" lon="5.49162">
        <ele>1630.05</ele>
        <time>2024-11-03T10:11:22Z</time>
      </trkpt>
      <trkpt lat="44.7732" lon="5.49166">
        <ele>1631.49</ele>
        <time>2024-11-03T10:11:58Z</time>
      </trkpt>
      <trkpt lat="44.77317" lon="5.49178">
        <ele>1631.98</ele>
        <time>2024-11-03T10:12:12Z</time>
      </trkpt>
      <trkpt lat="44.77316" lon="5.49184">
        <ele>1631.98</ele>
        <time>2024-11-03T10:12:27Z</time>
      </trkpt>
      <trkpt lat="44.77312" lon="5.49192">
        <ele>1632.94</ele>
        <time>2024-11-03T10:14:40Z</time>
      </trkpt>
      <trkpt lat="44.77307" lon="5.49206">
        <ele>1632.94</ele>
        <time>2024-11-03T10:14:54Z</time>
      </trkpt>
      <trkpt lat="44.773" lon="5.49213">
        <ele>1633.9</ele>
        <time>2024-11-03T10:15:07Z</time>
      </trkpt>
      <trkpt lat="44.77294" lon="5.49221">
        <ele>1636.3</ele>
        <time>2024-11-03T10:15:21Z</time>
      </trkpt>
      <trkpt lat="44.7729" lon="5.49231">
        <ele>1639.19</ele>
        <time>2024-11-03T10:15:34Z</time>
      </trkpt>
      <trkpt lat="44.77288" lon="5.4924">
        <ele>1642.07</ele>
        <time>2024-11-03T10:15:50Z</time>
      </trkpt>
      <trkpt lat="44.77284" lon="5.49253">
        <ele>1642.55</ele>
        <time>2024-11-03T10:16:02Z</time>
      </trkpt>
      <trkpt lat="44.77271" lon="5.49257">
        <ele>1644.47</ele>
        <time>2024-11-03T10:16:18Z</time>
      </trkpt>
      <trkpt lat="44.77261" lon="5.49252">
        <ele>1646.4</ele>
        <time>2024-11-03T10:16:32Z</time>
      </trkpt>
      <trkpt lat="44.77247" lon="5.4924">
        <ele>1646.88</ele>
        <time>2024-11-03T10:16:48Z</time>
      </trkpt>
      <trkpt lat="44.77246" lon="5.4924">
        <ele>1646.88</ele>
        <time>2024-11-03T10:16:49Z</time>
      </trkpt>
      <trkpt lat="44.77239" lon="5.49231">
        <ele>1647.36</ele>
        <time>2024-11-03T10:16:58Z</time>
      </trkpt>
      <trkpt lat="44.77231" lon="5.49228">
        <ele>1648.32</ele>
        <time>2024-11-03T10:17:12Z</time>
      </trkpt>
      <trkpt lat="44.77226" lon="5.49234">
        <ele>1649.28</ele>
        <time>2024-11-03T10:17:24Z</time>
      </trkpt>
      <trkpt lat="44.77219" lon="5.49244">
        <ele>1652.16</ele>
        <time>2024-11-03T10:17:40Z</time>
      </trkpt>
      <trkpt lat="44.7721" lon="5.49239">
        <ele>1653.6</ele>
        <time>2024-11-03T10:17:54Z</time>
      </trkpt>
      <trkpt lat="44.77205" lon="5.49228">
        <ele>1655.05</ele>
        <time>2024-11-03T10:18:07Z</time>
      </trkpt>
      <trkpt lat="44.77204" lon="5.49216">
        <ele>1657.93</ele>
        <time>2024-11-03T10:18:20Z</time>
      </trkpt>
      <trkpt lat="44.77202" lon="5.49203">
        <ele>1660.33</ele>
        <time>2024-11-03T10:18:36Z</time>
      </trkpt>
      <trkpt lat="44.77196" lon="5.49197">
        <ele>1662.26</ele>
        <time>2024-11-03T10:18:51Z</time>
      </trkpt>
      <trkpt lat="44.77193" lon="5.49186">
        <ele>1665.14</ele>
        <time>2024-11-03T10:19:04Z</time>
      </trkpt>
      <trkpt lat="44.77184" lon="5.49185">
        <ele>1667.06</ele>
        <time>2024-11-03T10:19:20Z</time>
      </trkpt>
      <trkpt lat="44.77173" lon="5.49189">
        <ele>1668.99</ele>
        <time>2024-11-03T10:19:36Z</time>
      </trkpt>
      <trkpt lat="44.77165" lon="5.49197">
        <ele>1668.99</ele>
        <time>2024-11-03T10:19:50Z</time>
      </trkpt>
      <trkpt lat="44.77161" lon="5.492">
        <ele>1667.54</ele>
        <time>2024-11-03T10:19:55Z</time>
      </trkpt>
      <trkpt lat="44.77154" lon="5.49196">
        <ele>1668.51</ele>
        <time>2024-11-03T10:20:06Z</time>
      </trkpt>
      <trkpt lat="44.77143" lon="5.49186">
        <ele>1670.43</ele>
        <time>2024-11-03T10:20:20Z</time>
      </trkpt>
      <trkpt lat="44.77136" lon="5.49182">
        <ele>1670.43</ele>
        <time>2024-11-03T10:20:26Z</time>
      </trkpt>
      <trkpt lat="44.77124" lon="5.49175">
        <ele>1668.51</ele>
        <time>2024-11-03T10:20:38Z</time>
      </trkpt>
      <trkpt lat="44.77117" lon="5.49176">
        <ele>1668.99</ele>
        <time>2024-11-03T10:22:57Z</time>
      </trkpt>
      <trkpt lat="44.77107" lon="5.49174">
        <ele>1672.35</ele>
        <time>2024-11-03T10:23:10Z</time>
      </trkpt>
      <trkpt lat="44.77094" lon="5.49163">
        <ele>1675.23</ele>
        <time>2024-11-03T10:23:25Z</time>
      </trkpt>
      <trkpt lat="44.7708" lon="5.49153">
        <ele>1676.68</ele>
        <time>2024-11-03T10:23:41Z</time>
      </trkpt>
      <trkpt lat="44.77072" lon="5.49145">
        <ele>1679.56</ele>
        <time>2024-11-03T10:23:55Z</time>
      </trkpt>
      <trkpt lat="44.77062" lon="5.49142">
        <ele>1681</ele>
        <time>2024-11-03T10:24:08Z</time>
      </trkpt>
      <trkpt lat="44.7705" lon="5.49129">
        <ele>1682.44</ele>
        <time>2024-11-03T10:24:22Z</time>
      </trkpt>
      <trkpt lat="44.77039" lon="5.49122">
        <ele>1685.33</ele>
        <time>2024-11-03T10:24:39Z</time>
      </trkpt>
      <trkpt lat="44.77036" lon="5.49122">
        <ele>1685.33</ele>
        <time>2024-11-03T10:24:42Z</time>
      </trkpt>
      <trkpt lat="44.77029" lon="5.49118">
        <ele>1685.33</ele>
        <time>2024-11-03T10:24:50Z</time>
      </trkpt>
      <trkpt lat="44.77026" lon="5.49117">
        <ele>1685.33</ele>
        <time>2024-11-03T10:24:52Z</time>
      </trkpt>
      <trkpt lat="44.77009" lon="5.49114">
        <ele>1685.33</ele>
        <time>2024-11-03T10:25:09Z</time>
      </trkpt>
      <trkpt lat="44.77007" lon="5.49115">
        <ele>1685.33</ele>
        <time>2024-11-03T10:25:11Z</time>
      </trkpt>
      <trkpt lat="44.76993" lon="5.49116">
        <ele>1685.81</ele>
        <time>2024-11-03T10:25:25Z</time>
      </trkpt>
      <trkpt lat="44.76979" lon="5.49119">
        <ele>1688.21</ele>
        <time>2024-11-03T10:25:39Z</time>
      </trkpt>
      <trkpt lat="44.7697" lon="5.49118">
        <ele>1690.62</ele>
        <time>2024-11-03T10:25:52Z</time>
      </trkpt>
      <trkpt lat="44.76957" lon="5.49119">
        <ele>1693.5</ele>
        <time>2024-11-03T10:26:08Z</time>
      </trkpt>
      <trkpt lat="44.76949" lon="5.49109">
        <ele>1694.46</ele>
        <time>2024-11-03T10:26:22Z</time>
      </trkpt>
      <trkpt lat="44.76944" lon="5.49108">
        <ele>1696.38</ele>
        <time>2024-11-03T10:26:35Z</time>
      </trkpt>
      <trkpt lat="44.76933" lon="5.49107">
        <ele>1698.79</ele>
        <time>2024-11-03T10:26:51Z</time>
      </trkpt>
      <trkpt lat="44.76923" lon="5.49098">
        <ele>1702.15</ele>
        <time>2024-11-03T10:27:06Z</time>
      </trkpt>
      <trkpt lat="44.76912" lon="5.49095">
        <ele>1703.11</ele>
        <time>2024-11-03T10:27:19Z</time>
      </trkpt>
      <trkpt lat="44.76899" lon="5.4909">
        <ele>1705.04</ele>
        <time>2024-11-03T10:27:34Z</time>
      </trkpt>
      <trkpt lat="44.76888" lon="5.49087">
        <ele>1706.96</ele>
        <time>2024-11-03T10:27:47Z</time>
      </trkpt>
      <trkpt lat="44.76878" lon="5.49087">
        <ele>1710.32</ele>
        <time>2024-11-03T10:28:02Z</time>
      </trkpt>
      <trkpt lat="44.76871" lon="5.49084">
        <ele>1713.21</ele>
        <time>2024-11-03T10:28:18Z</time>
      </trkpt>
      <trkpt lat="44.7686" lon="5.49079">
        <ele>1715.61</ele>
        <time>2024-11-03T10:28:33Z</time>
      </trkpt>
      <trkpt lat="44.76851" lon="5.49071">
        <ele>1718.01</ele>
        <time>2024-11-03T10:28:47Z</time>
      </trkpt>
      <trkpt lat="44.76841" lon="5.49074">
        <ele>1718.49</ele>
        <time>2024-11-03T10:29:03Z</time>
      </trkpt>
      <trkpt lat="44.76828" lon="5.49076">
        <ele>1718.49</ele>
        <time>2024-11-03T10:29:18Z</time>
      </trkpt>
      <trkpt lat="44.76823" lon="5.49077">
        <ele>1717.05</ele>
        <time>2024-11-03T10:29:23Z</time>
      </trkpt>
      <trkpt lat="44.76818" lon="5.49077">
        <ele>1717.05</ele>
        <time>2024-11-03T10:29:35Z</time>
      </trkpt>
      <trkpt lat="44.76811" lon="5.49073">
        <ele>1716.57</ele>
        <time>2024-11-03T10:29:46Z</time>
      </trkpt>
      <trkpt lat="44.76809" lon="5.49073">
        <ele>1716.09</ele>
        <time>2024-11-03T10:29:50Z</time>
      </trkpt>
      <trkpt lat="44.76797" lon="5.49075">
        <ele>1714.17</ele>
        <time>2024-11-03T10:30:04Z</time>
      </trkpt>
      <trkpt lat="44.76795" lon="5.49075">
        <ele>1714.17</ele>
        <time>2024-11-03T10:30:07Z</time>
      </trkpt>
      <trkpt lat="44.76789" lon="5.49078">
        <ele>1714.17</ele>
        <time>2024-11-03T10:30:12Z</time>
      </trkpt>
      <trkpt lat="44.76775" lon="5.49086">
        <ele>1712.73</ele>
        <time>2024-11-03T10:30:28Z</time>
      </trkpt>
      <trkpt lat="44.76765" lon="5.49089">
        <ele>1711.28</ele>
        <time>2024-11-03T10:30:42Z</time>
      </trkpt>
      <trkpt lat="44.76763" lon="5.49108">
        <ele>1712.25</ele>
        <time>2024-11-03T10:44:07Z</time>
      </trkpt>
      <trkpt lat="44.76763" lon="5.49111">
        <ele>1712.25</ele>
        <time>2024-11-03T10:44:09Z</time>
      </trkpt>
      <trkpt lat="44.76764" lon="5.49116">
        <ele>1711.76</ele>
        <time>2024-11-03T10:44:13Z</time>
      </trkpt>
      <trkpt lat="44.76768" lon="5.4912">
        <ele>1711.76</ele>
        <time>2024-11-03T10:44:18Z</time>
      </trkpt>
      <trkpt lat="44.76774" lon="5.49136">
        <ele>1710.8</ele>
        <time>2024-11-03T10:44:32Z</time>
      </trkpt>
      <trkpt lat="44.76775" lon="5.49147">
        <ele>1710.32</ele>
        <time>2024-11-03T10:44:40Z</time>
      </trkpt>
      <trkpt lat="44.76782" lon="5.49167">
        <ele>1708.88</ele>
        <time>2024-11-03T10:44:55Z</time>
      </trkpt>
      <trkpt lat="44.76787" lon="5.49183">
        <ele>1707.44</ele>
        <time>2024-11-03T10:45:07Z</time>
      </trkpt>
      <trkpt lat="44.76791" lon="5.49201">
        <ele>1706.96</ele>
        <time>2024-11-03T10:45:20Z</time>
      </trkpt>
      <trkpt lat="44.76794" lon="5.49203">
        <ele>1706.96</ele>
        <time>2024-11-03T10:45:23Z</time>
      </trkpt>
      <trkpt lat="44.76803" lon="5.4921">
        <ele>1706</ele>
        <time>2024-11-03T10:45:34Z</time>
      </trkpt>
      <trkpt lat="44.76805" lon="5.49213">
        <ele>1706</ele>
        <time>2024-11-03T10:45:36Z</time>
      </trkpt>
      <trkpt lat="44.76806" lon="5.49224">
        <ele>1705.04</ele>
        <time>2024-11-03T10:45:44Z</time>
      </trkpt>
      <trkpt lat="44.76808" lon="5.4923">
        <ele>1705.04</ele>
        <time>2024-11-03T10:45:48Z</time>
      </trkpt>
      <trkpt lat="44.76818" lon="5.4925">
        <ele>1703.59</ele>
        <time>2024-11-03T10:46:04Z</time>
      </trkpt>
      <trkpt lat="44.7682" lon="5.49252">
        <ele>1703.59</ele>
        <time>2024-11-03T10:46:06Z</time>
      </trkpt>
      <trkpt lat="44.76836" lon="5.4927">
        <ele>1700.71</ele>
        <time>2024-11-03T10:46:24Z</time>
      </trkpt>
      <trkpt lat="44.76846" lon="5.49281">
        <ele>1698.31</ele>
        <time>2024-11-03T10:46:39Z</time>
      </trkpt>
      <trkpt lat="44.76849" lon="5.49291">
        <ele>1694.94</ele>
        <time>2024-11-03T10:46:48Z</time>
      </trkpt>
      <trkpt lat="44.76853" lon="5.49305">
        <ele>1692.06</ele>
        <time>2024-11-03T10:47:00Z</time>
      </trkpt>
      <trkpt lat="44.76855" lon="5.49312">
        <ele>1690.14</ele>
        <time>2024-11-03T10:47:06Z</time>
      </trkpt>
      <trkpt lat="44.7686" lon="5.49329">
        <ele>1686.77</ele>
        <time>2024-11-03T10:47:18Z</time>
      </trkpt>
      <trkpt lat="44.76863" lon="5.49348">
        <ele>1683.41</ele>
        <time>2024-11-03T10:47:32Z</time>
      </trkpt>
      <trkpt lat="44.76866" lon="5.49371">
        <ele>1680.52</ele>
        <time>2024-11-03T10:47:50Z</time>
      </trkpt>
      <trkpt lat="44.76865" lon="5.49379">
        <ele>1680.04</ele>
        <time>2024-11-03T10:47:58Z</time>
      </trkpt>
      <trkpt lat="44.76867" lon="5.49394">
        <ele>1678.12</ele>
        <time>2024-11-03T10:48:11Z</time>
      </trkpt>
      <trkpt lat="44.76872" lon="5.49408">
        <ele>1675.23</ele>
        <time>2024-11-03T10:48:23Z</time>
      </trkpt>
      <trkpt lat="44.76875" lon="5.49427">
        <ele>1671.87</ele>
        <time>2024-11-03T10:48:39Z</time>
      </trkpt>
      <trkpt lat="44.76877" lon="5.49445">
        <ele>1669.95</ele>
        <time>2024-11-03T10:48:52Z</time>
      </trkpt>
      <trkpt lat="44.76872" lon="5.4946">
        <ele>1669.47</ele>
        <time>2024-11-03T10:49:06Z</time>
      </trkpt>
      <trkpt lat="44.76868" lon="5.4947">
        <ele>1668.99</ele>
        <time>2024-11-03T10:49:15Z</time>
      </trkpt>
      <trkpt lat="44.7686" lon="5.49484">
        <ele>1668.51</ele>
        <time>2024-11-03T10:49:24Z</time>
      </trkpt>
      <trkpt lat="44.76863" lon="5.49502">
        <ele>1666.58</ele>
        <time>2024-11-03T10:49:38Z</time>
      </trkpt>
      <trkpt lat="44.76863" lon="5.49509">
        <ele>1666.58</ele>
        <time>2024-11-03T10:49:44Z</time>
      </trkpt>
      <trkpt lat="44.76871" lon="5.4953">
        <ele>1664.66</ele>
        <time>2024-11-03T10:50:00Z</time>
      </trkpt>
      <trkpt lat="44.76874" lon="5.4955">
        <ele>1662.74</ele>
        <time>2024-11-03T10:50:15Z</time>
      </trkpt>
      <trkpt lat="44.76875" lon="5.49558">
        <ele>1662.26</ele>
        <time>2024-11-03T10:50:21Z</time>
      </trkpt>
      <trkpt lat="44.76868" lon="5.49578">
        <ele>1659.37</ele>
        <time>2024-11-03T10:50:38Z</time>
      </trkpt>
      <trkpt lat="44.7686" lon="5.49594">
        <ele>1657.93</ele>
        <time>2024-11-03T10:50:52Z</time>
      </trkpt>
      <trkpt lat="44.76855" lon="5.49607">
        <ele>1657.93</ele>
        <time>2024-11-03T10:51:06Z</time>
      </trkpt>
      <trkpt lat="44.76847" lon="5.49618">
        <ele>1661.3</ele>
        <time>2024-11-03T10:51:23Z</time>
      </trkpt>
      <trkpt lat="44.76843" lon="5.49624">
        <ele>1660.81</ele>
        <time>2024-11-03T10:51:38Z</time>
      </trkpt>
      <trkpt lat="44.7684" lon="5.49626">
        <ele>1661.3</ele>
        <time>2024-11-03T10:51:57Z</time>
      </trkpt>
      <trkpt lat="44.76836" lon="5.49632">
        <ele>1661.3</ele>
        <time>2024-11-03T10:52:10Z</time>
      </trkpt>
      <trkpt lat="44.76825" lon="5.49626">
        <ele>1661.3</ele>
        <time>2024-11-03T10:52:24Z</time>
      </trkpt>
      <trkpt lat="44.76819" lon="5.49622">
        <ele>1661.3</ele>
        <time>2024-11-03T10:52:30Z</time>
      </trkpt>
      <trkpt lat="44.76806" lon="5.49625">
        <ele>1660.33</ele>
        <time>2024-11-03T10:52:45Z</time>
      </trkpt>
      <trkpt lat="44.76802" lon="5.49631">
        <ele>1659.85</ele>
        <time>2024-11-03T10:52:58Z</time>
      </trkpt>
      <trkpt lat="44.76795" lon="5.49635">
        <ele>1659.85</ele>
        <time>2024-11-03T10:53:12Z</time>
      </trkpt>
      <trkpt lat="44.76793" lon="5.49636">
        <ele>1661.3</ele>
        <time>2024-11-03T10:53:14Z</time>
      </trkpt>
      <trkpt lat="44.76788" lon="5.49647">
        <ele>1659.37</ele>
        <time>2024-11-03T10:53:26Z</time>
      </trkpt>
      <trkpt lat="44.7679" lon="5.49657">
        <ele>1657.45</ele>
        <time>2024-11-03T10:53:33Z</time>
      </trkpt>
      <trkpt lat="44.76791" lon="5.49682">
        <ele>1655.05</ele>
        <time>2024-11-03T10:53:52Z</time>
      </trkpt>
      <trkpt lat="44.7679" lon="5.49698">
        <ele>1656.97</ele>
        <time>2024-11-03T10:54:05Z</time>
      </trkpt>
      <trkpt lat="44.76785" lon="5.49713">
        <ele>1657.45</ele>
        <time>2024-11-03T10:54:19Z</time>
      </trkpt>
      <trkpt lat="44.7678" lon="5.49724">
        <ele>1658.89</ele>
        <time>2024-11-03T10:54:32Z</time>
      </trkpt>
      <trkpt lat="44.7677" lon="5.49736">
        <ele>1659.37</ele>
        <time>2024-11-03T10:54:47Z</time>
      </trkpt>
      <trkpt lat="44.7677" lon="5.49738">
        <ele>1659.85</ele>
        <time>2024-11-03T10:54:48Z</time>
      </trkpt>
      <trkpt lat="44.76756" lon="5.49754">
        <ele>1659.85</ele>
        <time>2024-11-03T10:55:04Z</time>
      </trkpt>
      <trkpt lat="44.76749" lon="5.4977">
        <ele>1660.33</ele>
        <time>2024-11-03T10:55:19Z</time>
      </trkpt>
      <trkpt lat="44.76743" lon="5.49791">
        <ele>1659.85</ele>
        <time>2024-11-03T10:55:33Z</time>
      </trkpt>
      <trkpt lat="44.7674" lon="5.49809">
        <ele>1662.74</ele>
        <time>2024-11-03T10:55:48Z</time>
      </trkpt>
      <trkpt lat="44.76742" lon="5.49825">
        <ele>1664.66</ele>
        <time>2024-11-03T10:55:59Z</time>
      </trkpt>
      <trkpt lat="44.76746" lon="5.49842">
        <ele>1665.62</ele>
        <time>2024-11-03T10:56:13Z</time>
      </trkpt>
      <trkpt lat="44.76747" lon="5.49845">
        <ele>1666.1</ele>
        <time>2024-11-03T10:56:15Z</time>
      </trkpt>
      <trkpt lat="44.76753" lon="5.49867">
        <ele>1667.54</ele>
        <time>2024-11-03T10:56:31Z</time>
      </trkpt>
      <trkpt lat="44.76759" lon="5.49884">
        <ele>1668.51</ele>
        <time>2024-11-03T10:56:45Z</time>
      </trkpt>
      <trkpt lat="44.7676" lon="5.49896">
        <ele>1668.51</ele>
        <time>2024-11-03T10:56:57Z</time>
      </trkpt>
      <trkpt lat="44.76759" lon="5.49913">
        <ele>1670.91</ele>
        <time>2024-11-03T10:57:12Z</time>
      </trkpt>
      <trkpt lat="44.76749" lon="5.49933">
        <ele>1672.83</ele>
        <time>2024-11-03T10:57:29Z</time>
      </trkpt>
      <trkpt lat="44.76743" lon="5.49945">
        <ele>1674.27</ele>
        <time>2024-11-03T10:57:42Z</time>
      </trkpt>
      <trkpt lat="44.76735" lon="5.49956">
        <ele>1675.72</ele>
        <time>2024-11-03T10:57:57Z</time>
      </trkpt>
      <trkpt lat="44.76732" lon="5.49971">
        <ele>1678.12</ele>
        <time>2024-11-03T10:58:11Z</time>
      </trkpt>
      <trkpt lat="44.76731" lon="5.49972">
        <ele>1678.12</ele>
        <time>2024-11-03T10:58:12Z</time>
      </trkpt>
      <trkpt lat="44.7672" lon="5.49992">
        <ele>1678.6</ele>
        <time>2024-11-03T10:58:28Z</time>
      </trkpt>
      <trkpt lat="44.76718" lon="5.49995">
        <ele>1679.08</ele>
        <time>2024-11-03T10:58:31Z</time>
      </trkpt>
      <trkpt lat="44.76711" lon="5.50012">
        <ele>1680.52</ele>
        <time>2024-11-03T10:58:46Z</time>
      </trkpt>
      <trkpt lat="44.7671" lon="5.50014">
        <ele>1681</ele>
        <time>2024-11-03T10:58:48Z</time>
      </trkpt>
      <trkpt lat="44.76704" lon="5.50029">
        <ele>1682.44</ele>
        <time>2024-11-03T10:59:02Z</time>
      </trkpt>
      <trkpt lat="44.76694" lon="5.50042">
        <ele>1682.44</ele>
        <time>2024-11-03T10:59:17Z</time>
      </trkpt>
      <trkpt lat="44.7669" lon="5.50055">
        <ele>1684.37</ele>
        <time>2024-11-03T10:59:32Z</time>
      </trkpt>
      <trkpt lat="44.76689" lon="5.50062">
        <ele>1684.37</ele>
        <time>2024-11-03T10:59:37Z</time>
      </trkpt>
      <trkpt lat="44.7669" lon="5.50077">
        <ele>1685.81</ele>
        <time>2024-11-03T10:59:50Z</time>
      </trkpt>
      <trkpt lat="44.76695" lon="5.50093">
        <ele>1687.73</ele>
        <time>2024-11-03T11:00:04Z</time>
      </trkpt>
      <trkpt lat="44.76697" lon="5.50104">
        <ele>1690.62</ele>
        <time>2024-11-03T11:00:17Z</time>
      </trkpt>
      <trkpt lat="44.76704" lon="5.50111">
        <ele>1692.06</ele>
        <time>2024-11-03T11:00:29Z</time>
      </trkpt>
      <trkpt lat="44.76705" lon="5.50124">
        <ele>1694.46</ele>
        <time>2024-11-03T11:00:45Z</time>
      </trkpt>
      <trkpt lat="44.76705" lon="5.50137">
        <ele>1695.9</ele>
        <time>2024-11-03T11:01:03Z</time>
      </trkpt>
      <trkpt lat="44.76706" lon="5.5014">
        <ele>1695.9</ele>
        <time>2024-11-03T11:01:36Z</time>
      </trkpt>
      <trkpt lat="44.76707" lon="5.50142">
        <ele>1695.9</ele>
        <time>2024-11-03T11:01:52Z</time>
      </trkpt>
      <trkpt lat="44.76707" lon="5.50144">
        <ele>1696.38</ele>
        <time>2024-11-03T11:03:01Z</time>
      </trkpt>
      <trkpt lat="44.76708" lon="5.50143">
        <ele>1696.38</ele>
        <time>2024-11-03T11:03:51Z</time>
      </trkpt>
      <trkpt lat="44.76715" lon="5.50153">
        <ele>1697.34</ele>
        <time>2024-11-03T11:04:08Z</time>
      </trkpt>
      <trkpt lat="44.76725" lon="5.50161">
        <ele>1697.83</ele>
        <time>2024-11-03T11:04:23Z</time>
      </trkpt>
      <trkpt lat="44.76734" lon="5.5017">
        <ele>1698.79</ele>
        <time>2024-11-03T11:04:38Z</time>
      </trkpt>
      <trkpt lat="44.7674" lon="5.50178">
        <ele>1700.23</ele>
        <time>2024-11-03T11:04:52Z</time>
      </trkpt>
      <trkpt lat="44.76747" lon="5.50183">
        <ele>1701.19</ele>
        <time>2024-11-03T11:05:06Z</time>
      </trkpt>
      <trkpt lat="44.76748" lon="5.50185">
        <ele>1699.75</ele>
        <time>2024-11-03T11:05:09Z</time>
      </trkpt>
      <trkpt lat="44.7675" lon="5.50201">
        <ele>1698.79</ele>
        <time>2024-11-03T11:05:25Z</time>
      </trkpt>
      <trkpt lat="44.76756" lon="5.50211">
        <ele>1696.86</ele>
        <time>2024-11-03T11:05:37Z</time>
      </trkpt>
      <trkpt lat="44.76763" lon="5.50229">
        <ele>1695.9</ele>
        <time>2024-11-03T11:05:51Z</time>
      </trkpt>
      <trkpt lat="44.76764" lon="5.50251">
        <ele>1695.9</ele>
        <time>2024-11-03T11:06:07Z</time>
      </trkpt>
      <trkpt lat="44.76765" lon="5.50253">
        <ele>1697.34</ele>
        <time>2024-11-03T11:06:09Z</time>
      </trkpt>
      <trkpt lat="44.76768" lon="5.50261">
        <ele>1700.23</ele>
        <time>2024-11-03T11:06:20Z</time>
      </trkpt>
      <trkpt lat="44.76771" lon="5.50272">
        <ele>1703.11</ele>
        <time>2024-11-03T11:06:35Z</time>
      </trkpt>
      <trkpt lat="44.76776" lon="5.50279">
        <ele>1706</ele>
        <time>2024-11-03T11:06:51Z</time>
      </trkpt>
      <trkpt lat="44.76782" lon="5.50285">
        <ele>1707.92</ele>
        <time>2024-11-03T11:07:04Z</time>
      </trkpt>
      <trkpt lat="44.76789" lon="5.50291">
        <ele>1710.8</ele>
        <time>2024-11-03T11:07:19Z</time>
      </trkpt>
      <trkpt lat="44.76796" lon="5.50295">
        <ele>1712.73</ele>
        <time>2024-11-03T11:07:35Z</time>
      </trkpt>
      <trkpt lat="44.76797" lon="5.50297">
        <ele>1713.21</ele>
        <time>2024-11-03T11:08:06Z</time>
      </trkpt>
      <trkpt lat="44.76799" lon="5.503">
        <ele>1714.17</ele>
        <time>2024-11-03T11:08:24Z</time>
      </trkpt>
      <trkpt lat="44.76802" lon="5.50302">
        <ele>1715.13</ele>
        <time>2024-11-03T11:08:48Z</time>
      </trkpt>
      <trkpt lat="44.76804" lon="5.50302">
        <ele>1715.13</ele>
        <time>2024-11-03T11:09:01Z</time>
      </trkpt>
      <trkpt lat="44.76817" lon="5.50311">
        <ele>1716.57</ele>
        <time>2024-11-03T11:12:13Z</time>
      </trkpt>
      <trkpt lat="44.76823" lon="5.50312">
        <ele>1717.53</ele>
        <time>2024-11-03T11:12:20Z</time>
      </trkpt>
      <trkpt lat="44.76841" lon="5.50315">
        <ele>1718.49</ele>
        <time>2024-11-03T11:12:39Z</time>
      </trkpt>
      <trkpt lat="44.76847" lon="5.50319">
        <ele>1721.38</ele>
        <time>2024-11-03T11:12:56Z</time>
      </trkpt>
      <trkpt lat="44.76849" lon="5.50328">
        <ele>1723.3</ele>
        <time>2024-11-03T11:13:11Z</time>
      </trkpt>
      <trkpt lat="44.76851" lon="5.50337">
        <ele>1725.7</ele>
        <time>2024-11-03T11:13:27Z</time>
      </trkpt>
      <trkpt lat="44.76856" lon="5.50344">
        <ele>1728.59</ele>
        <time>2024-11-03T11:13:41Z</time>
      </trkpt>
      <trkpt lat="44.76864" lon="5.50346">
        <ele>1730.51</ele>
        <time>2024-11-03T11:13:56Z</time>
      </trkpt>
      <trkpt lat="44.76871" lon="5.50351">
        <ele>1732.43</ele>
        <time>2024-11-03T11:14:08Z</time>
      </trkpt>
      <trkpt lat="44.76875" lon="5.50363">
        <ele>1733.39</ele>
        <time>2024-11-03T11:14:19Z</time>
      </trkpt>
      <trkpt lat="44.76884" lon="5.50375">
        <ele>1734.36</ele>
        <time>2024-11-03T11:14:34Z</time>
      </trkpt>
      <trkpt lat="44.7689" lon="5.5039">
        <ele>1736.76</ele>
        <time>2024-11-03T11:14:48Z</time>
      </trkpt>
      <trkpt lat="44.76896" lon="5.50405">
        <ele>1738.68</ele>
        <time>2024-11-03T11:15:04Z</time>
      </trkpt>
      <trkpt lat="44.76899" lon="5.50417">
        <ele>1740.6</ele>
        <time>2024-11-03T11:15:17Z</time>
      </trkpt>
      <trkpt lat="44.76905" lon="5.50435">
        <ele>1741.08</ele>
        <time>2024-11-03T11:15:33Z</time>
      </trkpt>
      <trkpt lat="44.76912" lon="5.50442">
        <ele>1743.97</ele>
        <time>2024-11-03T11:15:47Z</time>
      </trkpt>
      <trkpt lat="44.76918" lon="5.5045">
        <ele>1745.89</ele>
        <time>2024-11-03T11:16:01Z</time>
      </trkpt>
      <trkpt lat="44.7692" lon="5.50458">
        <ele>1749.26</ele>
        <time>2024-11-03T11:16:15Z</time>
      </trkpt>
      <trkpt lat="44.76924" lon="5.50466">
        <ele>1751.66</ele>
        <time>2024-11-03T11:16:30Z</time>
      </trkpt>
      <trkpt lat="44.76929" lon="5.50473">
        <ele>1754.06</ele>
        <time>2024-11-03T11:16:46Z</time>
      </trkpt>
      <trkpt lat="44.76933" lon="5.50481">
        <ele>1756.95</ele>
        <time>2024-11-03T11:17:02Z</time>
      </trkpt>
      <trkpt lat="44.76937" lon="5.50495">
        <ele>1760.31</ele>
        <time>2024-11-03T11:17:20Z</time>
      </trkpt>
      <trkpt lat="44.76942" lon="5.50507">
        <ele>1763.2</ele>
        <time>2024-11-03T11:17:36Z</time>
      </trkpt>
      <trkpt lat="44.76946" lon="5.50519">
        <ele>1766.08</ele>
        <time>2024-11-03T11:17:54Z</time>
      </trkpt>
      <trkpt lat="44.76951" lon="5.50528">
        <ele>1767.52</ele>
        <time>2024-11-03T11:18:10Z</time>
      </trkpt>
      <trkpt lat="44.76953" lon="5.50538">
        <ele>1768.96</ele>
        <time>2024-11-03T11:18:24Z</time>
      </trkpt>
      <trkpt lat="44.76955" lon="5.50538">
        <ele>1768.96</ele>
        <time>2024-11-03T11:19:03Z</time>
      </trkpt>
      <trkpt lat="44.76959" lon="5.50539">
        <ele>1768.96</ele>
        <time>2024-11-03T11:19:08Z</time>
      </trkpt>
      <trkpt lat="44.76968" lon="5.50536">
        <ele>1768.96</ele>
        <time>2024-11-03T11:19:23Z</time>
      </trkpt>
      <trkpt lat="44.7697" lon="5.50536">
        <ele>1768</ele>
        <time>2024-11-03T11:19:25Z</time>
      </trkpt>
      <trkpt lat="44.76983" lon="5.50534">
        <ele>1766.08</ele>
        <time>2024-11-03T11:19:39Z</time>
      </trkpt>
      <trkpt lat="44.76994" lon="5.5053">
        <ele>1765.6</ele>
        <time>2024-11-03T11:19:55Z</time>
      </trkpt>
      <trkpt lat="44.76999" lon="5.50529">
        <ele>1765.6</ele>
        <time>2024-11-03T11:20:15Z</time>
      </trkpt>
      <trkpt lat="44.77005" lon="5.50526">
        <ele>1765.6</ele>
        <time>2024-11-03T11:20:23Z</time>
      </trkpt>
      <trkpt lat="44.77013" lon="5.50534">
        <ele>1767.52</ele>
        <time>2024-11-03T11:20:38Z</time>
      </trkpt>
      <trkpt lat="44.77017" lon="5.50543">
        <ele>1769.44</ele>
        <time>2024-11-03T11:20:53Z</time>
      </trkpt>
      <trkpt lat="44.77016" lon="5.50552">
        <ele>1769.92</ele>
        <time>2024-11-03T11:21:04Z</time>
      </trkpt>
      <trkpt lat="44.77011" lon="5.50553">
        <ele>1769.92</ele>
        <time>2024-11-03T11:21:20Z</time>
      </trkpt>
      <trkpt lat="44.77012" lon="5.50555">
        <ele>1769.92</ele>
        <time>2024-11-03T11:21:38Z</time>
      </trkpt>
      <trkpt lat="44.77014" lon="5.50563">
        <ele>1770.41</ele>
        <time>2024-11-03T11:21:54Z</time>
      </trkpt>
      <trkpt lat="44.77013" lon="5.50578">
        <ele>1774.25</ele>
        <time>2024-11-03T11:22:11Z</time>
      </trkpt>
      <trkpt lat="44.77015" lon="5.50592">
        <ele>1776.17</ele>
        <time>2024-11-03T11:22:28Z</time>
      </trkpt>
      <trkpt lat="44.77014" lon="5.50602">
        <ele>1774.73</ele>
        <time>2024-11-03T11:22:41Z</time>
      </trkpt>
      <trkpt lat="44.77013" lon="5.50614">
        <ele>1771.85</ele>
        <time>2024-11-03T11:22:55Z</time>
      </trkpt>
      <trkpt lat="44.77011" lon="5.50627">
        <ele>1768.48</ele>
        <time>2024-11-03T11:23:10Z</time>
      </trkpt>
      <trkpt lat="44.77016" lon="5.50647">
        <ele>1767.52</ele>
        <time>2024-11-03T11:23:26Z</time>
      </trkpt>
      <trkpt lat="44.77017" lon="5.50653">
        <ele>1767.52</ele>
        <time>2024-11-03T11:23:30Z</time>
      </trkpt>
      <trkpt lat="44.77016" lon="5.50665">
        <ele>1768.96</ele>
        <time>2024-11-03T11:23:41Z</time>
      </trkpt>
      <trkpt lat="44.77014" lon="5.5068">
        <ele>1769.92</ele>
        <time>2024-11-03T11:23:56Z</time>
      </trkpt>
      <trkpt lat="44.77015" lon="5.50692">
        <ele>1769.92</ele>
        <time>2024-11-03T11:24:10Z</time>
      </trkpt>
      <trkpt lat="44.77015" lon="5.50697">
        <ele>1768.96</ele>
        <time>2024-11-03T11:24:21Z</time>
      </trkpt>
      <trkpt lat="44.77016" lon="5.50706">
        <ele>1767.52</ele>
        <time>2024-11-03T11:24:36Z</time>
      </trkpt>
      <trkpt lat="44.77018" lon="5.50708">
        <ele>1766.56</ele>
        <time>2024-11-03T11:26:48Z</time>
      </trkpt>
      <trkpt lat="44.77018" lon="5.50715">
        <ele>1763.2</ele>
        <time>2024-11-03T11:27:05Z</time>
      </trkpt>
      <trkpt lat="44.77015" lon="5.50722">
        <ele>1760.31</ele>
        <time>2024-11-03T11:27:21Z</time>
      </trkpt>
      <trkpt lat="44.77013" lon="5.50729">
        <ele>1756.95</ele>
        <time>2024-11-03T11:27:32Z</time>
      </trkpt>
      <trkpt lat="44.77007" lon="5.50732">
        <ele>1754.06</ele>
        <time>2024-11-03T11:27:43Z</time>
      </trkpt>
      <trkpt lat="44.77001" lon="5.50742">
        <ele>1751.18</ele>
        <time>2024-11-03T11:27:56Z</time>
      </trkpt>
      <trkpt lat="44.76997" lon="5.50742">
        <ele>1750.7</ele>
        <time>2024-11-03T11:28:05Z</time>
      </trkpt>
      <trkpt lat="44.76994" lon="5.50739">
        <ele>1749.74</ele>
        <time>2024-11-03T11:29:19Z</time>
      </trkpt>
      <trkpt lat="44.76992" lon="5.50746">
        <ele>1751.18</ele>
        <time>2024-11-03T11:29:29Z</time>
      </trkpt>
      <trkpt lat="44.76989" lon="5.50756">
        <ele>1752.14</ele>
        <time>2024-11-03T11:29:42Z</time>
      </trkpt>
      <trkpt lat="44.76985" lon="5.5077">
        <ele>1754.06</ele>
        <time>2024-11-03T11:29:57Z</time>
      </trkpt>
      <trkpt lat="44.76981" lon="5.50782">
        <ele>1755.99</ele>
        <time>2024-11-03T11:30:11Z</time>
      </trkpt>
      <trkpt lat="44.76974" lon="5.50789">
        <ele>1759.35</ele>
        <time>2024-11-03T11:30:26Z</time>
      </trkpt>
      <trkpt lat="44.76972" lon="5.50802">
        <ele>1762.23</ele>
        <time>2024-11-03T11:30:44Z</time>
      </trkpt>
      <trkpt lat="44.7697" lon="5.50814">
        <ele>1762.23</ele>
        <time>2024-11-03T11:30:59Z</time>
      </trkpt>
      <trkpt lat="44.76967" lon="5.50823">
        <ele>1761.27</ele>
        <time>2024-11-03T11:31:10Z</time>
      </trkpt>
      <trkpt lat="44.76957" lon="5.50838">
        <ele>1758.87</ele>
        <time>2024-11-03T11:31:26Z</time>
      </trkpt>
      <trkpt lat="44.76955" lon="5.5084">
        <ele>1758.87</ele>
        <time>2024-11-03T11:31:30Z</time>
      </trkpt>
      <trkpt lat="44.76945" lon="5.50852">
        <ele>1761.75</ele>
        <time>2024-11-03T11:31:44Z</time>
      </trkpt>
      <trkpt lat="44.76941" lon="5.50855">
        <ele>1761.75</ele>
        <time>2024-11-03T11:31:49Z</time>
      </trkpt>
      <trkpt lat="44.7693" lon="5.50856">
        <ele>1764.64</ele>
        <time>2024-11-03T11:32:05Z</time>
      </trkpt>
      <trkpt lat="44.76919" lon="5.5086">
        <ele>1766.08</ele>
        <time>2024-11-03T11:32:18Z</time>
      </trkpt>
      <trkpt lat="44.76904" lon="5.50867">
        <ele>1766.08</ele>
        <time>2024-11-03T11:32:35Z</time>
      </trkpt>
      <trkpt lat="44.76893" lon="5.50873">
        <ele>1767.52</ele>
        <time>2024-11-03T11:32:51Z</time>
      </trkpt>
      <trkpt lat="44.76883" lon="5.50877">
        <ele>1768.96</ele>
        <time>2024-11-03T11:33:05Z</time>
      </trkpt>
      <trkpt lat="44.76877" lon="5.50887">
        <ele>1767.52</ele>
        <time>2024-11-03T11:33:19Z</time>
      </trkpt>
      <trkpt lat="44.76865" lon="5.509">
        <ele>1764.64</ele>
        <time>2024-11-03T11:33:35Z</time>
      </trkpt>
      <trkpt lat="44.76851" lon="5.50905">
        <ele>1762.23</ele>
        <time>2024-11-03T11:33:50Z</time>
      </trkpt>
      <trkpt lat="44.76836" lon="5.50902">
        <ele>1762.23</ele>
        <time>2024-11-03T11:34:05Z</time>
      </trkpt>
      <trkpt lat="44.76825" lon="5.50912">
        <ele>1762.23</ele>
        <time>2024-11-03T11:34:20Z</time>
      </trkpt>
      <trkpt lat="44.76821" lon="5.50917">
        <ele>1762.23</ele>
        <time>2024-11-03T11:34:26Z</time>
      </trkpt>
      <trkpt lat="44.76812" lon="5.50925">
        <ele>1764.16</ele>
        <time>2024-11-03T11:34:41Z</time>
      </trkpt>
      <trkpt lat="44.76807" lon="5.50934">
        <ele>1767.52</ele>
        <time>2024-11-03T11:34:56Z</time>
      </trkpt>
      <trkpt lat="44.76801" lon="5.50937">
        <ele>1769.92</ele>
        <time>2024-11-03T11:35:08Z</time>
      </trkpt>
      <trkpt lat="44.76794" lon="5.50938">
        <ele>1772.81</ele>
        <time>2024-11-03T11:35:25Z</time>
      </trkpt>
      <trkpt lat="44.76788" lon="5.5094">
        <ele>1775.21</ele>
        <time>2024-11-03T11:35:39Z</time>
      </trkpt>
      <trkpt lat="44.7678" lon="5.50941">
        <ele>1777.61</ele>
        <time>2024-11-03T11:35:56Z</time>
      </trkpt>
      <trkpt lat="44.76773" lon="5.50946">
        <ele>1780.5</ele>
        <time>2024-11-03T11:36:12Z</time>
      </trkpt>
      <trkpt lat="44.7677" lon="5.50954">
        <ele>1782.42</ele>
        <time>2024-11-03T11:36:26Z</time>
      </trkpt>
      <trkpt lat="44.76764" lon="5.5096">
        <ele>1785.31</ele>
        <time>2024-11-03T11:36:41Z</time>
      </trkpt>
      <trkpt lat="44.76755" lon="5.50963">
        <ele>1788.19</ele>
        <time>2024-11-03T11:36:58Z</time>
      </trkpt>
      <trkpt lat="44.76748" lon="5.50964">
        <ele>1789.63</ele>
        <time>2024-11-03T11:37:11Z</time>
      </trkpt>
      <trkpt lat="44.7674" lon="5.50971">
        <ele>1792.03</ele>
        <time>2024-11-03T11:37:26Z</time>
      </trkpt>
      <trkpt lat="44.76732" lon="5.50979">
        <ele>1793.96</ele>
        <time>2024-11-03T11:37:43Z</time>
      </trkpt>
      <trkpt lat="44.76721" lon="5.50987">
        <ele>1796.84</ele>
        <time>2024-11-03T11:38:01Z</time>
      </trkpt>
      <trkpt lat="44.76712" lon="5.50994">
        <ele>1799.24</ele>
        <time>2024-11-03T11:38:16Z</time>
      </trkpt>
      <trkpt lat="44.7671" lon="5.50995">
        <ele>1799.73</ele>
        <time>2024-11-03T11:38:20Z</time>
      </trkpt>
      <trkpt lat="44.76701" lon="5.51004">
        <ele>1802.13</ele>
        <time>2024-11-03T11:38:36Z</time>
      </trkpt>
      <trkpt lat="44.76693" lon="5.51009">
        <ele>1804.53</ele>
        <time>2024-11-03T11:38:52Z</time>
      </trkpt>
      <trkpt lat="44.76682" lon="5.51012">
        <ele>1806.94</ele>
        <time>2024-11-03T11:39:08Z</time>
      </trkpt>
      <trkpt lat="44.76674" lon="5.51015">
        <ele>1809.34</ele>
        <time>2024-11-03T11:39:21Z</time>
      </trkpt>
      <trkpt lat="44.76662" lon="5.51018">
        <ele>1811.74</ele>
        <time>2024-11-03T11:39:39Z</time>
      </trkpt>
      <trkpt lat="44.76652" lon="5.51022">
        <ele>1813.18</ele>
        <time>2024-11-03T11:39:55Z</time>
      </trkpt>
      <trkpt lat="44.76648" lon="5.51022">
        <ele>1813.66</ele>
        <time>2024-11-03T11:40:01Z</time>
      </trkpt>
      <trkpt lat="44.7664" lon="5.51021">
        <ele>1814.63</ele>
        <time>2024-11-03T11:40:16Z</time>
      </trkpt>
      <trkpt lat="44.76632" lon="5.51032">
        <ele>1817.99</ele>
        <time>2024-11-03T12:32:02Z</time>
      </trkpt>
      <trkpt lat="44.76631" lon="5.51035">
        <ele>1817.99</ele>
        <time>2024-11-03T12:32:18Z</time>
      </trkpt>
      <trkpt lat="44.76632" lon="5.51041">
        <ele>1816.55</ele>
        <time>2024-11-03T12:32:35Z</time>
      </trkpt>
      <trkpt lat="44.76633" lon="5.51054">
        <ele>1814.15</ele>
        <time>2024-11-03T12:32:49Z</time>
      </trkpt>
      <trkpt lat="44.76632" lon="5.51068">
        <ele>1810.78</ele>
        <time>2024-11-03T12:33:03Z</time>
      </trkpt>
      <trkpt lat="44.76631" lon="5.5108">
        <ele>1807.9</ele>
        <time>2024-11-03T12:33:18Z</time>
      </trkpt>
      <trkpt lat="44.76631" lon="5.51092">
        <ele>1805.01</ele>
        <time>2024-11-03T12:33:32Z</time>
      </trkpt>
      <trkpt lat="44.76632" lon="5.51102">
        <ele>1802.13</ele>
        <time>2024-11-03T12:33:46Z</time>
      </trkpt>
      <trkpt lat="44.76629" lon="5.51109">
        <ele>1799.24</ele>
        <time>2024-11-03T12:34:00Z</time>
      </trkpt>
      <trkpt lat="44.76629" lon="5.51115">
        <ele>1796.36</ele>
        <time>2024-11-03T12:34:09Z</time>
      </trkpt>
      <trkpt lat="44.76631" lon="5.51123">
        <ele>1793</ele>
        <time>2024-11-03T12:34:19Z</time>
      </trkpt>
      <trkpt lat="44.76635" lon="5.51133">
        <ele>1789.63</ele>
        <time>2024-11-03T12:34:31Z</time>
      </trkpt>
      <trkpt lat="44.76638" lon="5.51143">
        <ele>1786.27</ele>
        <time>2024-11-03T12:34:43Z</time>
      </trkpt>
      <trkpt lat="44.76642" lon="5.51149">
        <ele>1785.31</ele>
        <time>2024-11-03T12:34:50Z</time>
      </trkpt>
      <trkpt lat="44.76649" lon="5.51158">
        <ele>1782.42</ele>
        <time>2024-11-03T12:35:01Z</time>
      </trkpt>
      <trkpt lat="44.76657" lon="5.51172">
        <ele>1779.06</ele>
        <time>2024-11-03T12:35:12Z</time>
      </trkpt>
      <trkpt lat="44.76666" lon="5.51188">
        <ele>1777.13</ele>
        <time>2024-11-03T12:35:26Z</time>
      </trkpt>
      <trkpt lat="44.76664" lon="5.512">
        <ele>1774.73</ele>
        <time>2024-11-03T12:35:40Z</time>
      </trkpt>
      <trkpt lat="44.76662" lon="5.5121">
        <ele>1772.33</ele>
        <time>2024-11-03T12:35:54Z</time>
      </trkpt>
      <trkpt lat="44.76653" lon="5.51206">
        <ele>1770.89</ele>
        <time>2024-11-03T12:36:08Z</time>
      </trkpt>
      <trkpt lat="44.76649" lon="5.51207">
        <ele>1768.48</ele>
        <time>2024-11-03T12:36:21Z</time>
      </trkpt>
      <trkpt lat="44.76649" lon="5.51217">
        <ele>1765.12</ele>
        <time>2024-11-03T12:36:34Z</time>
      </trkpt>
      <trkpt lat="44.76647" lon="5.5123">
        <ele>1762.71</ele>
        <time>2024-11-03T12:36:48Z</time>
      </trkpt>
      <trkpt lat="44.76648" lon="5.5124">
        <ele>1760.79</ele>
        <time>2024-11-03T12:37:05Z</time>
      </trkpt>
      <trkpt lat="44.76649" lon="5.51247">
        <ele>1758.87</ele>
        <time>2024-11-03T12:37:22Z</time>
      </trkpt>
      <trkpt lat="44.76652" lon="5.51256">
        <ele>1756.95</ele>
        <time>2024-11-03T12:37:35Z</time>
      </trkpt>
      <trkpt lat="44.76653" lon="5.51265">
        <ele>1753.58</ele>
        <time>2024-11-03T12:37:47Z</time>
      </trkpt>
      <trkpt lat="44.76651" lon="5.51271">
        <ele>1751.18</ele>
        <time>2024-11-03T12:38:01Z</time>
      </trkpt>
      <trkpt lat="44.76642" lon="5.51274">
        <ele>1747.81</ele>
        <time>2024-11-03T12:38:13Z</time>
      </trkpt>
      <trkpt lat="44.76643" lon="5.51285">
        <ele>1746.85</ele>
        <time>2024-11-03T12:38:28Z</time>
      </trkpt>
      <trkpt lat="44.76643" lon="5.51298">
        <ele>1745.89</ele>
        <time>2024-11-03T12:38:43Z</time>
      </trkpt>
      <trkpt lat="44.76642" lon="5.51302">
        <ele>1745.89</ele>
        <time>2024-11-03T12:38:55Z</time>
      </trkpt>
      <trkpt lat="44.7664" lon="5.51309">
        <ele>1743.01</ele>
        <time>2024-11-03T12:39:11Z</time>
      </trkpt>
      <trkpt lat="44.76639" lon="5.51316">
        <ele>1740.6</ele>
        <time>2024-11-03T12:39:26Z</time>
      </trkpt>
      <trkpt lat="44.76633" lon="5.51323">
        <ele>1737.24</ele>
        <time>2024-11-03T12:39:41Z</time>
      </trkpt>
      <trkpt lat="44.76623" lon="5.51324">
        <ele>1734.36</ele>
        <time>2024-11-03T12:39:56Z</time>
      </trkpt>
      <trkpt lat="44.76612" lon="5.51331">
        <ele>1733.39</ele>
        <time>2024-11-03T12:40:11Z</time>
      </trkpt>
      <trkpt lat="44.76606" lon="5.51331">
        <ele>1731.47</ele>
        <time>2024-11-03T12:40:25Z</time>
      </trkpt>
      <trkpt lat="44.76599" lon="5.5133">
        <ele>1728.11</ele>
        <time>2024-11-03T12:40:38Z</time>
      </trkpt>
      <trkpt lat="44.76593" lon="5.51333">
        <ele>1725.7</ele>
        <time>2024-11-03T12:40:52Z</time>
      </trkpt>
      <trkpt lat="44.76594" lon="5.51345">
        <ele>1723.3</ele>
        <time>2024-11-03T12:41:07Z</time>
      </trkpt>
      <trkpt lat="44.76588" lon="5.51347">
        <ele>1722.34</ele>
        <time>2024-11-03T12:41:20Z</time>
      </trkpt>
      <trkpt lat="44.76579" lon="5.5135">
        <ele>1719.46</ele>
        <time>2024-11-03T12:41:35Z</time>
      </trkpt>
      <trkpt lat="44.76573" lon="5.51354">
        <ele>1716.57</ele>
        <time>2024-11-03T12:41:48Z</time>
      </trkpt>
      <trkpt lat="44.7657" lon="5.51359">
        <ele>1713.21</ele>
        <time>2024-11-03T12:41:58Z</time>
      </trkpt>
      <trkpt lat="44.76563" lon="5.51367">
        <ele>1709.84</ele>
        <time>2024-11-03T12:42:13Z</time>
      </trkpt>
      <trkpt lat="44.76551" lon="5.51365">
        <ele>1707.44</ele>
        <time>2024-11-03T12:42:28Z</time>
      </trkpt>
      <trkpt lat="44.76542" lon="5.51368">
        <ele>1705.04</ele>
        <time>2024-11-03T12:42:41Z</time>
      </trkpt>
      <trkpt lat="44.76541" lon="5.51368">
        <ele>1704.55</ele>
        <time>2024-11-03T12:42:58Z</time>
      </trkpt>
      <trkpt lat="44.76539" lon="5.5137">
        <ele>1704.55</ele>
        <time>2024-11-03T12:43:12Z</time>
      </trkpt>
      <trkpt lat="44.7654" lon="5.51371">
        <ele>1705.52</ele>
        <time>2024-11-03T12:43:30Z</time>
      </trkpt>
      <trkpt lat="44.76542" lon="5.51383">
        <ele>1703.11</ele>
        <time>2024-11-03T12:43:42Z</time>
      </trkpt>
      <trkpt lat="44.76536" lon="5.51394">
        <ele>1699.75</ele>
        <time>2024-11-03T12:43:57Z</time>
      </trkpt>
      <trkpt lat="44.76532" lon="5.51405">
        <ele>1696.86</ele>
        <time>2024-11-03T12:44:09Z</time>
      </trkpt>
      <trkpt lat="44.76527" lon="5.51417">
        <ele>1693.98</ele>
        <time>2024-11-03T12:44:22Z</time>
      </trkpt>
      <trkpt lat="44.76518" lon="5.51433">
        <ele>1692.54</ele>
        <time>2024-11-03T12:44:38Z</time>
      </trkpt>
      <trkpt lat="44.76516" lon="5.51434">
        <ele>1692.06</ele>
        <time>2024-11-03T12:44:40Z</time>
      </trkpt>
      <trkpt lat="44.76506" lon="5.51436">
        <ele>1690.14</ele>
        <time>2024-11-03T12:44:56Z</time>
      </trkpt>
      <trkpt lat="44.76496" lon="5.51441">
        <ele>1686.77</ele>
        <time>2024-11-03T12:45:09Z</time>
      </trkpt>
      <trkpt lat="44.7649" lon="5.51442">
        <ele>1686.77</ele>
        <time>2024-11-03T12:45:15Z</time>
      </trkpt>
      <trkpt lat="44.76474" lon="5.5145">
        <ele>1685.33</ele>
        <time>2024-11-03T12:45:32Z</time>
      </trkpt>
      <trkpt lat="44.76462" lon="5.51457">
        <ele>1684.37</ele>
        <time>2024-11-03T12:45:47Z</time>
      </trkpt>
      <trkpt lat="44.76461" lon="5.51458">
        <ele>1684.37</ele>
        <time>2024-11-03T12:45:50Z</time>
      </trkpt>
      <trkpt lat="44.76459" lon="5.51457">
        <ele>1685.81</ele>
        <time>2024-11-03T12:45:52Z</time>
      </trkpt>
      <trkpt lat="44.76453" lon="5.51454">
        <ele>1685.81</ele>
        <time>2024-11-03T12:45:57Z</time>
      </trkpt>
      <trkpt lat="44.76451" lon="5.51452">
        <ele>1685.81</ele>
        <time>2024-11-03T12:45:59Z</time>
      </trkpt>
      <trkpt lat="44.76444" lon="5.51447">
        <ele>1684.37</ele>
        <time>2024-11-03T12:46:05Z</time>
      </trkpt>
      <trkpt lat="44.76432" lon="5.51453">
        <ele>1685.81</ele>
        <time>2024-11-03T12:47:00Z</time>
      </trkpt>
      <trkpt lat="44.76433" lon="5.51463">
        <ele>1688.69</ele>
        <time>2024-11-03T12:47:14Z</time>
      </trkpt>
      <trkpt lat="44.76431" lon="5.51474">
        <ele>1691.1</ele>
        <time>2024-11-03T12:47:27Z</time>
      </trkpt>
      <trkpt lat="44.76431" lon="5.51475">
        <ele>1691.1</ele>
        <time>2024-11-03T12:47:28Z</time>
      </trkpt>
      <trkpt lat="44.76425" lon="5.51491">
        <ele>1693.5</ele>
        <time>2024-11-03T12:47:44Z</time>
      </trkpt>
      <trkpt lat="44.76422" lon="5.51504">
        <ele>1695.9</ele>
        <time>2024-11-03T12:47:59Z</time>
      </trkpt>
      <trkpt lat="44.76418" lon="5.51511">
        <ele>1698.79</ele>
        <time>2024-11-03T12:48:12Z</time>
      </trkpt>
      <trkpt lat="44.76412" lon="5.51519">
        <ele>1701.67</ele>
        <time>2024-11-03T12:48:27Z</time>
      </trkpt>
      <trkpt lat="44.76406" lon="5.51526">
        <ele>1704.07</ele>
        <time>2024-11-03T12:48:44Z</time>
      </trkpt>
      <trkpt lat="44.764" lon="5.51538">
        <ele>1706.48</ele>
        <time>2024-11-03T12:48:59Z</time>
      </trkpt>
      <trkpt lat="44.76397" lon="5.5154">
        <ele>1706.48</ele>
        <time>2024-11-03T12:49:02Z</time>
      </trkpt>
      <trkpt lat="44.76388" lon="5.51546">
        <ele>1707.92</ele>
        <time>2024-11-03T12:49:18Z</time>
      </trkpt>
      <trkpt lat="44.76382" lon="5.51549">
        <ele>1709.36</ele>
        <time>2024-11-03T12:49:30Z</time>
      </trkpt>
      <trkpt lat="44.76375" lon="5.51558">
        <ele>1711.76</ele>
        <time>2024-11-03T12:49:45Z</time>
      </trkpt>
      <trkpt lat="44.76365" lon="5.51565">
        <ele>1712.73</ele>
        <time>2024-11-03T12:50:00Z</time>
      </trkpt>
      <trkpt lat="44.76356" lon="5.51574">
        <ele>1714.17</ele>
        <time>2024-11-03T12:50:15Z</time>
      </trkpt>
      <trkpt lat="44.76349" lon="5.5159">
        <ele>1715.61</ele>
        <time>2024-11-03T12:50:31Z</time>
      </trkpt>
      <trkpt lat="44.76346" lon="5.51603">
        <ele>1715.61</ele>
        <time>2024-11-03T12:50:44Z</time>
      </trkpt>
      <trkpt lat="44.76346" lon="5.51609">
        <ele>1715.13</ele>
        <time>2024-11-03T12:50:49Z</time>
      </trkpt>
      <trkpt lat="44.76342" lon="5.51624">
        <ele>1715.13</ele>
        <time>2024-11-03T12:51:02Z</time>
      </trkpt>
      <trkpt lat="44.7634" lon="5.51639">
        <ele>1715.13</ele>
        <time>2024-11-03T12:51:14Z</time>
      </trkpt>
      <trkpt lat="44.76339" lon="5.5164">
        <ele>1715.13</ele>
        <time>2024-11-03T12:51:15Z</time>
      </trkpt>
      <trkpt lat="44.76339" lon="5.51658">
        <ele>1715.61</ele>
        <time>2024-11-03T12:51:30Z</time>
      </trkpt>
      <trkpt lat="44.76339" lon="5.5166">
        <ele>1716.09</ele>
        <time>2024-11-03T12:51:31Z</time>
      </trkpt>
      <trkpt lat="44.76338" lon="5.51676">
        <ele>1717.05</ele>
        <time>2024-11-03T12:51:44Z</time>
      </trkpt>
      <trkpt lat="44.76333" lon="5.51694">
        <ele>1718.97</ele>
        <time>2024-11-03T12:51:59Z</time>
      </trkpt>
      <trkpt lat="44.76331" lon="5.51713">
        <ele>1720.42</ele>
        <time>2024-11-03T12:52:13Z</time>
      </trkpt>
      <trkpt lat="44.76331" lon="5.51731">
        <ele>1721.86</ele>
        <time>2024-11-03T12:52:27Z</time>
      </trkpt>
      <trkpt lat="44.76331" lon="5.51736">
        <ele>1722.34</ele>
        <time>2024-11-03T12:52:31Z</time>
      </trkpt>
      <trkpt lat="44.76333" lon="5.51754">
        <ele>1723.78</ele>
        <time>2024-11-03T12:52:45Z</time>
      </trkpt>
      <trkpt lat="44.76333" lon="5.51768">
        <ele>1725.22</ele>
        <time>2024-11-03T12:52:55Z</time>
      </trkpt>
      <trkpt lat="44.76334" lon="5.51776">
        <ele>1725.7</ele>
        <time>2024-11-03T12:53:00Z</time>
      </trkpt>
      <trkpt lat="44.76335" lon="5.51779">
        <ele>1726.18</ele>
        <time>2024-11-03T12:53:03Z</time>
      </trkpt>
      <trkpt lat="44.76336" lon="5.51799">
        <ele>1727.63</ele>
        <time>2024-11-03T12:53:17Z</time>
      </trkpt>
      <trkpt lat="44.76336" lon="5.51823">
        <ele>1727.15</ele>
        <time>2024-11-03T12:53:32Z</time>
      </trkpt>
      <trkpt lat="44.76336" lon="5.51824">
        <ele>1727.15</ele>
        <time>2024-11-03T12:53:33Z</time>
      </trkpt>
      <trkpt lat="44.76337" lon="5.51838">
        <ele>1726.67</ele>
        <time>2024-11-03T12:53:42Z</time>
      </trkpt>
      <trkpt lat="44.76337" lon="5.51844">
        <ele>1728.11</ele>
        <time>2024-11-03T12:53:46Z</time>
      </trkpt>
      <trkpt lat="44.76339" lon="5.51861">
        <ele>1729.07</ele>
        <time>2024-11-03T12:53:59Z</time>
      </trkpt>
      <trkpt lat="44.76342" lon="5.51879">
        <ele>1729.55</ele>
        <time>2024-11-03T12:54:14Z</time>
      </trkpt>
      <trkpt lat="44.76341" lon="5.51898">
        <ele>1727.63</ele>
        <time>2024-11-03T12:54:28Z</time>
      </trkpt>
      <trkpt lat="44.76342" lon="5.51908">
        <ele>1726.67</ele>
        <time>2024-11-03T12:54:36Z</time>
      </trkpt>
      <trkpt lat="44.76338" lon="5.51923">
        <ele>1725.7</ele>
        <time>2024-11-03T12:54:52Z</time>
      </trkpt>
      <trkpt lat="44.76337" lon="5.51938">
        <ele>1723.3</ele>
        <time>2024-11-03T12:55:05Z</time>
      </trkpt>
      <trkpt lat="44.76338" lon="5.5195">
        <ele>1721.86</ele>
        <time>2024-11-03T12:55:16Z</time>
      </trkpt>
      <trkpt lat="44.76336" lon="5.51954">
        <ele>1720.9</ele>
        <time>2024-11-03T12:55:20Z</time>
      </trkpt>
      <trkpt lat="44.76334" lon="5.51979">
        <ele>1720.42</ele>
        <time>2024-11-03T12:55:37Z</time>
      </trkpt>
      <trkpt lat="44.76331" lon="5.51998">
        <ele>1718.97</ele>
        <time>2024-11-03T12:55:50Z</time>
      </trkpt>
      <trkpt lat="44.76329" lon="5.52017">
        <ele>1718.49</ele>
        <time>2024-11-03T12:56:04Z</time>
      </trkpt>
      <trkpt lat="44.76328" lon="5.52043">
        <ele>1716.57</ele>
        <time>2024-11-03T12:56:21Z</time>
      </trkpt>
      <trkpt lat="44.76328" lon="5.5205">
        <ele>1716.57</ele>
        <time>2024-11-03T12:56:25Z</time>
      </trkpt>
      <trkpt lat="44.76326" lon="5.52069">
        <ele>1715.61</ele>
        <time>2024-11-03T12:56:38Z</time>
      </trkpt>
      <trkpt lat="44.76326" lon="5.52074">
        <ele>1715.61</ele>
        <time>2024-11-03T12:56:41Z</time>
      </trkpt>
      <trkpt lat="44.76326" lon="5.52081">
        <ele>1715.61</ele>
        <time>2024-11-03T12:56:46Z</time>
      </trkpt>
      <trkpt lat="44.7633" lon="5.52106">
        <ele>1715.61</ele>
        <time>2024-11-03T12:57:03Z</time>
      </trkpt>
      <trkpt lat="44.7633" lon="5.52116">
        <ele>1714.17</ele>
        <time>2024-11-03T12:57:10Z</time>
      </trkpt>
      <trkpt lat="44.76334" lon="5.52136">
        <ele>1714.17</ele>
        <time>2024-11-03T12:57:24Z</time>
      </trkpt>
      <trkpt lat="44.76336" lon="5.52154">
        <ele>1714.17</ele>
        <time>2024-11-03T12:57:36Z</time>
      </trkpt>
      <trkpt lat="44.76336" lon="5.52173">
        <ele>1713.21</ele>
        <time>2024-11-03T12:57:50Z</time>
      </trkpt>
      <trkpt lat="44.76331" lon="5.52194">
        <ele>1710.8</ele>
        <time>2024-11-03T12:58:06Z</time>
      </trkpt>
      <trkpt lat="44.76327" lon="5.52206">
        <ele>1709.84</ele>
        <time>2024-11-03T12:58:19Z</time>
      </trkpt>
      <trkpt lat="44.76321" lon="5.5222">
        <ele>1709.84</ele>
        <time>2024-11-03T12:58:34Z</time>
      </trkpt>
      <trkpt lat="44.76318" lon="5.52237">
        <ele>1708.4</ele>
        <time>2024-11-03T12:58:49Z</time>
      </trkpt>
      <trkpt lat="44.7632" lon="5.52258">
        <ele>1705.52</ele>
        <time>2024-11-03T12:59:05Z</time>
      </trkpt>
      <trkpt lat="44.76317" lon="5.52272">
        <ele>1702.63</ele>
        <time>2024-11-03T12:59:21Z</time>
      </trkpt>
      <trkpt lat="44.76313" lon="5.52284">
        <ele>1700.23</ele>
        <time>2024-11-03T12:59:36Z</time>
      </trkpt>
      <trkpt lat="44.76313" lon="5.52298">
        <ele>1698.31</ele>
        <time>2024-11-03T12:59:46Z</time>
      </trkpt>
      <trkpt lat="44.76312" lon="5.52305">
        <ele>1697.83</ele>
        <time>2024-11-03T12:59:51Z</time>
      </trkpt>
      <trkpt lat="44.76311" lon="5.52308">
        <ele>1697.83</ele>
        <time>2024-11-03T12:59:53Z</time>
      </trkpt>
      <trkpt lat="44.76306" lon="5.52323">
        <ele>1699.27</ele>
        <time>2024-11-03T13:00:05Z</time>
      </trkpt>
      <trkpt lat="44.76296" lon="5.52336">
        <ele>1699.75</ele>
        <time>2024-11-03T13:00:19Z</time>
      </trkpt>
      <trkpt lat="44.7629" lon="5.5235">
        <ele>1699.75</ele>
        <time>2024-11-03T13:00:31Z</time>
      </trkpt>
      <trkpt lat="44.76287" lon="5.52353">
        <ele>1698.31</ele>
        <time>2024-11-03T13:00:35Z</time>
      </trkpt>
      <trkpt lat="44.76283" lon="5.52362">
        <ele>1696.86</ele>
        <time>2024-11-03T13:00:42Z</time>
      </trkpt>
      <trkpt lat="44.76266" lon="5.52374">
        <ele>1696.86</ele>
        <time>2024-11-03T13:00:59Z</time>
      </trkpt>
      <trkpt lat="44.76249" lon="5.52392">
        <ele>1696.86</ele>
        <time>2024-11-03T13:01:16Z</time>
      </trkpt>
      <trkpt lat="44.76228" lon="5.52404">
        <ele>1696.86</ele>
        <time>2024-11-03T13:01:34Z</time>
      </trkpt>
      <trkpt lat="44.7621" lon="5.52413">
        <ele>1696.86</ele>
        <time>2024-11-03T13:01:51Z</time>
      </trkpt>
      <trkpt lat="44.76192" lon="5.5242">
        <ele>1698.79</ele>
        <time>2024-11-03T13:02:07Z</time>
      </trkpt>
      <trkpt lat="44.76172" lon="5.52418">
        <ele>1698.31</ele>
        <time>2024-11-03T13:02:23Z</time>
      </trkpt>
      <trkpt lat="44.76157" lon="5.52408">
        <ele>1698.79</ele>
        <time>2024-11-03T13:02:38Z</time>
      </trkpt>
      <trkpt lat="44.76144" lon="5.52391">
        <ele>1698.79</ele>
        <time>2024-11-03T13:02:53Z</time>
      </trkpt>
      <trkpt lat="44.76136" lon="5.52382">
        <ele>1697.83</ele>
        <time>2024-11-03T13:03:02Z</time>
      </trkpt>
      <trkpt lat="44.76126" lon="5.52367">
        <ele>1695.42</ele>
        <time>2024-11-03T13:03:15Z</time>
      </trkpt>
      <trkpt lat="44.76106" lon="5.52354">
        <ele>1692.06</ele>
        <time>2024-11-03T13:03:35Z</time>
      </trkpt>
      <trkpt lat="44.76096" lon="5.52351">
        <ele>1691.58</ele>
        <time>2024-11-03T13:03:43Z</time>
      </trkpt>
      <trkpt lat="44.76074" lon="5.52357">
        <ele>1691.1</ele>
        <time>2024-11-03T13:04:02Z</time>
      </trkpt>
      <trkpt lat="44.76051" lon="5.52358">
        <ele>1690.14</ele>
        <time>2024-11-03T13:04:19Z</time>
      </trkpt>
      <trkpt lat="44.76032" lon="5.52373">
        <ele>1689.17</ele>
        <time>2024-11-03T13:04:37Z</time>
      </trkpt>
      <trkpt lat="44.76014" lon="5.52381">
        <ele>1690.62</ele>
        <time>2024-11-03T13:04:54Z</time>
      </trkpt>
      <trkpt lat="44.75997" lon="5.52375">
        <ele>1690.62</ele>
        <time>2024-11-03T13:05:10Z</time>
      </trkpt>
      <trkpt lat="44.7598" lon="5.52363">
        <ele>1689.17</ele>
        <time>2024-11-03T13:05:26Z</time>
      </trkpt>
      <trkpt lat="44.75966" lon="5.52351">
        <ele>1686.29</ele>
        <time>2024-11-03T13:05:43Z</time>
      </trkpt>
      <trkpt lat="44.7595" lon="5.52346">
        <ele>1682.93</ele>
        <time>2024-11-03T13:05:59Z</time>
      </trkpt>
      <trkpt lat="44.75937" lon="5.52346">
        <ele>1681</ele>
        <time>2024-11-03T13:06:11Z</time>
      </trkpt>
      <trkpt lat="44.75915" lon="5.5234">
        <ele>1679.08</ele>
        <time>2024-11-03T13:06:30Z</time>
      </trkpt>
      <trkpt lat="44.75898" lon="5.52346">
        <ele>1678.12</ele>
        <time>2024-11-03T13:06:45Z</time>
      </trkpt>
      <trkpt lat="44.75877" lon="5.52349">
        <ele>1675.72</ele>
        <time>2024-11-03T13:07:02Z</time>
      </trkpt>
      <trkpt lat="44.75856" lon="5.52345">
        <ele>1673.31</ele>
        <time>2024-11-03T13:07:20Z</time>
      </trkpt>
      <trkpt lat="44.75841" lon="5.5233">
        <ele>1671.87</ele>
        <time>2024-11-03T13:07:35Z</time>
      </trkpt>
      <trkpt lat="44.75821" lon="5.52317">
        <ele>1668.99</ele>
        <time>2024-11-03T13:07:54Z</time>
      </trkpt>
      <trkpt lat="44.75802" lon="5.52335">
        <ele>1667.54</ele>
        <time>2024-11-03T13:08:12Z</time>
      </trkpt>
      <trkpt lat="44.75787" lon="5.52342">
        <ele>1667.06</ele>
        <time>2024-11-03T13:08:27Z</time>
      </trkpt>
      <trkpt lat="44.7577" lon="5.5234">
        <ele>1667.06</ele>
        <time>2024-11-03T13:08:42Z</time>
      </trkpt>
      <trkpt lat="44.7575" lon="5.52342">
        <ele>1665.62</ele>
        <time>2024-11-03T13:08:59Z</time>
      </trkpt>
      <trkpt lat="44.75738" lon="5.52338">
        <ele>1664.66</ele>
        <time>2024-11-03T13:09:13Z</time>
      </trkpt>
      <trkpt lat="44.75731" lon="5.52334">
        <ele>1663.7</ele>
        <time>2024-11-03T13:09:20Z</time>
      </trkpt>
      <trkpt lat="44.7571" lon="5.52314">
        <ele>1660.33</ele>
        <time>2024-11-03T13:09:40Z</time>
      </trkpt>
      <trkpt lat="44.75694" lon="5.52296">
        <ele>1658.41</ele>
        <time>2024-11-03T13:09:57Z</time>
      </trkpt>
      <trkpt lat="44.75681" lon="5.5228">
        <ele>1657.45</ele>
        <time>2024-11-03T13:10:12Z</time>
      </trkpt>
      <trkpt lat="44.75665" lon="5.52258">
        <ele>1656.49</ele>
        <time>2024-11-03T13:10:30Z</time>
      </trkpt>
      <trkpt lat="44.7564" lon="5.52248">
        <ele>1656.49</ele>
        <time>2024-11-03T13:10:51Z</time>
      </trkpt>
      <trkpt lat="44.75627" lon="5.5225">
        <ele>1657.93</ele>
        <time>2024-11-03T13:11:03Z</time>
      </trkpt>
      <trkpt lat="44.75609" lon="5.52251">
        <ele>1658.89</ele>
        <time>2024-11-03T13:11:18Z</time>
      </trkpt>
      <trkpt lat="44.75594" lon="5.52247">
        <ele>1659.85</ele>
        <time>2024-11-03T13:11:32Z</time>
      </trkpt>
      <trkpt lat="44.75573" lon="5.52246">
        <ele>1661.3</ele>
        <time>2024-11-03T13:11:50Z</time>
      </trkpt>
      <trkpt lat="44.7556" lon="5.52244">
        <ele>1663.22</ele>
        <time>2024-11-03T13:12:05Z</time>
      </trkpt>
      <trkpt lat="44.75556" lon="5.52241">
        <ele>1664.66</ele>
        <time>2024-11-03T13:12:10Z</time>
      </trkpt>
      <trkpt lat="44.75543" lon="5.52246">
        <ele>1667.54</ele>
        <time>2024-11-03T13:12:25Z</time>
      </trkpt>
      <trkpt lat="44.75539" lon="5.52248">
        <ele>1667.54</ele>
        <time>2024-11-03T13:12:30Z</time>
      </trkpt>
      <trkpt lat="44.75525" lon="5.52256">
        <ele>1669.95</ele>
        <time>2024-11-03T13:12:47Z</time>
      </trkpt>
      <trkpt lat="44.75511" lon="5.5226">
        <ele>1672.35</ele>
        <time>2024-11-03T13:13:03Z</time>
      </trkpt>
      <trkpt lat="44.75496" lon="5.52266">
        <ele>1674.27</ele>
        <time>2024-11-03T13:13:18Z</time>
      </trkpt>
      <trkpt lat="44.75482" lon="5.52274">
        <ele>1676.2</ele>
        <time>2024-11-03T13:13:34Z</time>
      </trkpt>
      <trkpt lat="44.7547" lon="5.52282">
        <ele>1677.16</ele>
        <time>2024-11-03T13:13:48Z</time>
      </trkpt>
      <trkpt lat="44.75458" lon="5.52298">
        <ele>1679.08</ele>
        <time>2024-11-03T13:14:03Z</time>
      </trkpt>
      <trkpt lat="44.75446" lon="5.52313">
        <ele>1680.04</ele>
        <time>2024-11-03T13:14:18Z</time>
      </trkpt>
      <trkpt lat="44.75438" lon="5.52327">
        <ele>1681.48</ele>
        <time>2024-11-03T13:14:32Z</time>
      </trkpt>
      <trkpt lat="44.75434" lon="5.52343">
        <ele>1683.41</ele>
        <time>2024-11-03T13:14:46Z</time>
      </trkpt>
      <trkpt lat="44.7543" lon="5.52359">
        <ele>1685.33</ele>
        <time>2024-11-03T13:15:00Z</time>
      </trkpt>
      <trkpt lat="44.75424" lon="5.52379">
        <ele>1686.77</ele>
        <time>2024-11-03T13:15:14Z</time>
      </trkpt>
      <trkpt lat="44.75419" lon="5.52395">
        <ele>1689.17</ele>
        <time>2024-11-03T13:15:27Z</time>
      </trkpt>
      <trkpt lat="44.75415" lon="5.5241">
        <ele>1690.62</ele>
        <time>2024-11-03T13:15:39Z</time>
      </trkpt>
      <trkpt lat="44.75413" lon="5.5242">
        <ele>1691.58</ele>
        <time>2024-11-03T13:15:47Z</time>
      </trkpt>
      <trkpt lat="44.75407" lon="5.5244">
        <ele>1693.98</ele>
        <time>2024-11-03T13:16:01Z</time>
      </trkpt>
      <trkpt lat="44.75406" lon="5.52446">
        <ele>1693.98</ele>
        <time>2024-11-03T13:16:05Z</time>
      </trkpt>
      <trkpt lat="44.75404" lon="5.52453">
        <ele>1694.94</ele>
        <time>2024-11-03T13:16:10Z</time>
      </trkpt>
      <trkpt lat="44.75401" lon="5.5246">
        <ele>1695.42</ele>
        <time>2024-11-03T13:16:15Z</time>
      </trkpt>
      <trkpt lat="44.75399" lon="5.52474">
        <ele>1695.42</ele>
        <time>2024-11-03T13:16:23Z</time>
      </trkpt>
      <trkpt lat="44.75393" lon="5.52503">
        <ele>1695.9</ele>
        <time>2024-11-03T13:16:41Z</time>
      </trkpt>
      <trkpt lat="44.7539" lon="5.52528">
        <ele>1694.94</ele>
        <time>2024-11-03T13:16:57Z</time>
      </trkpt>
      <trkpt lat="44.75387" lon="5.52539">
        <ele>1693.98</ele>
        <time>2024-11-03T13:17:05Z</time>
      </trkpt>
      <trkpt lat="44.75382" lon="5.5256">
        <ele>1692.54</ele>
        <time>2024-11-03T13:17:20Z</time>
      </trkpt>
      <trkpt lat="44.75376" lon="5.52579">
        <ele>1690.62</ele>
        <time>2024-11-03T13:17:35Z</time>
      </trkpt>
      <trkpt lat="44.75375" lon="5.52587">
        <ele>1689.65</ele>
        <time>2024-11-03T13:17:40Z</time>
      </trkpt>
      <trkpt lat="44.75369" lon="5.52618">
        <ele>1686.77</ele>
        <time>2024-11-03T13:18:00Z</time>
      </trkpt>
      <trkpt lat="44.75365" lon="5.52641">
        <ele>1683.89</ele>
        <time>2024-11-03T13:18:17Z</time>
      </trkpt>
      <trkpt lat="44.75363" lon="5.52658">
        <ele>1681.96</ele>
        <time>2024-11-03T13:18:29Z</time>
      </trkpt>
      <trkpt lat="44.75364" lon="5.52677">
        <ele>1678.12</ele>
        <time>2024-11-03T13:18:45Z</time>
      </trkpt>
      <trkpt lat="44.75363" lon="5.5269">
        <ele>1675.23</ele>
        <time>2024-11-03T13:18:58Z</time>
      </trkpt>
      <trkpt lat="44.75357" lon="5.52698">
        <ele>1673.79</ele>
        <time>2024-11-03T13:19:06Z</time>
      </trkpt>
      <trkpt lat="44.7535" lon="5.52707">
        <ele>1671.39</ele>
        <time>2024-11-03T13:19:21Z</time>
      </trkpt>
      <trkpt lat="44.7535" lon="5.52708">
        <ele>1671.39</ele>
        <time>2024-11-03T13:19:36Z</time>
      </trkpt>
      <trkpt lat="44.75348" lon="5.52711">
        <ele>1671.39</ele>
        <time>2024-11-03T13:19:48Z</time>
      </trkpt>
      <trkpt lat="44.75348" lon="5.52714">
        <ele>1671.39</ele>
        <time>2024-11-03T13:20:07Z</time>
      </trkpt>
      <trkpt lat="44.75347" lon="5.52714">
        <ele>1670.91</ele>
        <time>2024-11-03T13:22:53Z</time>
      </trkpt>
      <trkpt lat="44.75339" lon="5.52717">
        <ele>1670.43</ele>
        <time>2024-11-03T13:23:08Z</time>
      </trkpt>
      <trkpt lat="44.75326" lon="5.52724">
        <ele>1667.06</ele>
        <time>2024-11-03T13:23:23Z</time>
      </trkpt>
      <trkpt lat="44.75317" lon="5.52735">
        <ele>1665.14</ele>
        <time>2024-11-03T13:23:35Z</time>
      </trkpt>
      <trkpt lat="44.75314" lon="5.52738">
        <ele>1664.18</ele>
        <time>2024-11-03T13:23:38Z</time>
      </trkpt>
      <trkpt lat="44.75312" lon="5.52747">
        <ele>1663.22</ele>
        <time>2024-11-03T13:23:44Z</time>
      </trkpt>
      <trkpt lat="44.75308" lon="5.52756">
        <ele>1661.3</ele>
        <time>2024-11-03T13:23:50Z</time>
      </trkpt>
      <trkpt lat="44.75306" lon="5.52767">
        <ele>1659.85</ele>
        <time>2024-11-03T13:23:56Z</time>
      </trkpt>
      <trkpt lat="44.75299" lon="5.52798">
        <ele>1657.45</ele>
        <time>2024-11-03T13:24:14Z</time>
      </trkpt>
      <trkpt lat="44.75292" lon="5.52821">
        <ele>1656.01</ele>
        <time>2024-11-03T13:24:28Z</time>
      </trkpt>
      <trkpt lat="44.75291" lon="5.52827">
        <ele>1655.53</ele>
        <time>2024-11-03T13:24:31Z</time>
      </trkpt>
      <trkpt lat="44.75279" lon="5.52846">
        <ele>1654.09</ele>
        <time>2024-11-03T13:24:46Z</time>
      </trkpt>
      <trkpt lat="44.75277" lon="5.52852">
        <ele>1654.09</ele>
        <time>2024-11-03T13:24:50Z</time>
      </trkpt>
      <trkpt lat="44.75268" lon="5.52882">
        <ele>1653.12</ele>
        <time>2024-11-03T13:25:07Z</time>
      </trkpt>
      <trkpt lat="44.7526" lon="5.52907">
        <ele>1652.16</ele>
        <time>2024-11-03T13:25:22Z</time>
      </trkpt>
      <trkpt lat="44.75258" lon="5.5293">
        <ele>1652.16</ele>
        <time>2024-11-03T13:25:37Z</time>
      </trkpt>
      <trkpt lat="44.75258" lon="5.52937">
        <ele>1652.16</ele>
        <time>2024-11-03T13:25:40Z</time>
      </trkpt>
      <trkpt lat="44.7526" lon="5.52964">
        <ele>1651.68</ele>
        <time>2024-11-03T13:25:55Z</time>
      </trkpt>
      <trkpt lat="44.75261" lon="5.52972">
        <ele>1650.72</ele>
        <time>2024-11-03T13:26:08Z</time>
      </trkpt>
      <trkpt lat="44.75259" lon="5.52975">
        <ele>1650.72</ele>
        <time>2024-11-03T13:26:18Z</time>
      </trkpt>
      <trkpt lat="44.75249" lon="5.52996">
        <ele>1650.72</ele>
        <time>2024-11-03T13:26:34Z</time>
      </trkpt>
      <trkpt lat="44.75234" lon="5.53018">
        <ele>1650.24</ele>
        <time>2024-11-03T13:26:51Z</time>
      </trkpt>
      <trkpt lat="44.75224" lon="5.53041">
        <ele>1650.24</ele>
        <time>2024-11-03T13:27:06Z</time>
      </trkpt>
      <trkpt lat="44.75222" lon="5.53052">
        <ele>1650.24</ele>
        <time>2024-11-03T13:27:14Z</time>
      </trkpt>
      <trkpt lat="44.75217" lon="5.53072">
        <ele>1649.76</ele>
        <time>2024-11-03T13:27:29Z</time>
      </trkpt>
      <trkpt lat="44.75215" lon="5.53101">
        <ele>1648.8</ele>
        <time>2024-11-03T13:27:45Z</time>
      </trkpt>
      <trkpt lat="44.75215" lon="5.53121">
        <ele>1646.88</ele>
        <time>2024-11-03T13:27:56Z</time>
      </trkpt>
      <trkpt lat="44.75217" lon="5.53146">
        <ele>1645.43</ele>
        <time>2024-11-03T13:28:09Z</time>
      </trkpt>
      <trkpt lat="44.75217" lon="5.53155">
        <ele>1644.95</ele>
        <time>2024-11-03T13:28:14Z</time>
      </trkpt>
      <trkpt lat="44.75202" lon="5.53174">
        <ele>1642.55</ele>
        <time>2024-11-03T13:28:31Z</time>
      </trkpt>
      <trkpt lat="44.752" lon="5.53175">
        <ele>1642.07</ele>
        <time>2024-11-03T13:28:33Z</time>
      </trkpt>
      <trkpt lat="44.75195" lon="5.53175">
        <ele>1642.07</ele>
        <time>2024-11-03T13:28:37Z</time>
      </trkpt>
      <trkpt lat="44.75179" lon="5.53165">
        <ele>1640.63</ele>
        <time>2024-11-03T13:28:54Z</time>
      </trkpt>
      <trkpt lat="44.75159" lon="5.53157">
        <ele>1639.19</ele>
        <time>2024-11-03T13:29:10Z</time>
      </trkpt>
      <trkpt lat="44.75143" lon="5.5313">
        <ele>1638.7</ele>
        <time>2024-11-03T13:29:28Z</time>
      </trkpt>
      <trkpt lat="44.75128" lon="5.5311">
        <ele>1636.3</ele>
        <time>2024-11-03T13:29:43Z</time>
      </trkpt>
      <trkpt lat="44.75124" lon="5.53102">
        <ele>1635.34</ele>
        <time>2024-11-03T13:29:48Z</time>
      </trkpt>
      <trkpt lat="44.75116" lon="5.53078">
        <ele>1633.42</ele>
        <time>2024-11-03T13:30:03Z</time>
      </trkpt>
      <trkpt lat="44.75113" lon="5.53069">
        <ele>1632.46</ele>
        <time>2024-11-03T13:30:10Z</time>
      </trkpt>
      <trkpt lat="44.75106" lon="5.53056">
        <ele>1630.05</ele>
        <time>2024-11-03T13:30:18Z</time>
      </trkpt>
      <trkpt lat="44.75096" lon="5.53026">
        <ele>1627.17</ele>
        <time>2024-11-03T13:30:35Z</time>
      </trkpt>
      <trkpt lat="44.75087" lon="5.53007">
        <ele>1626.69</ele>
        <time>2024-11-03T13:30:48Z</time>
      </trkpt>
      <trkpt lat="44.75081" lon="5.52977">
        <ele>1626.21</ele>
        <time>2024-11-03T13:31:03Z</time>
      </trkpt>
      <trkpt lat="44.75082" lon="5.52945">
        <ele>1624.77</ele>
        <time>2024-11-03T13:31:20Z</time>
      </trkpt>
      <trkpt lat="44.7508" lon="5.52915">
        <ele>1624.28</ele>
        <time>2024-11-03T13:31:37Z</time>
      </trkpt>
      <trkpt lat="44.75077" lon="5.52895">
        <ele>1623.8</ele>
        <time>2024-11-03T13:31:49Z</time>
      </trkpt>
      <trkpt lat="44.75065" lon="5.52865">
        <ele>1622.36</ele>
        <time>2024-11-03T13:32:08Z</time>
      </trkpt>
      <trkpt lat="44.75061" lon="5.52854">
        <ele>1622.36</ele>
        <time>2024-11-03T13:32:15Z</time>
      </trkpt>
      <trkpt lat="44.75059" lon="5.52845">
        <ele>1621.4</ele>
        <time>2024-11-03T13:32:21Z</time>
      </trkpt>
      <trkpt lat="44.75048" lon="5.52827">
        <ele>1620.44</ele>
        <time>2024-11-03T13:32:34Z</time>
      </trkpt>
      <trkpt lat="44.75044" lon="5.5283">
        <ele>1619.96</ele>
        <time>2024-11-03T13:34:46Z</time>
      </trkpt>
      <trkpt lat="44.75043" lon="5.52831">
        <ele>1619.48</ele>
        <time>2024-11-03T13:34:47Z</time>
      </trkpt>
      <trkpt lat="44.7504" lon="5.52839">
        <ele>1618.04</ele>
        <time>2024-11-03T13:34:53Z</time>
      </trkpt>
      <trkpt lat="44.7504" lon="5.52841">
        <ele>1618.04</ele>
        <time>2024-11-03T13:34:54Z</time>
      </trkpt>
      <trkpt lat="44.75039" lon="5.52842">
        <ele>1618.52</ele>
        <time>2024-11-03T13:34:55Z</time>
      </trkpt>
      <trkpt lat="44.75039" lon="5.52844">
        <ele>1617.56</ele>
        <time>2024-11-03T13:34:56Z</time>
      </trkpt>
      <trkpt lat="44.75038" lon="5.52845">
        <ele>1617.56</ele>
        <time>2024-11-03T13:34:57Z</time>
      </trkpt>
      <trkpt lat="44.75038" lon="5.52847">
        <ele>1617.56</ele>
        <time>2024-11-03T13:34:58Z</time>
      </trkpt>
      <trkpt lat="44.75031" lon="5.5287">
        <ele>1615.63</ele>
        <time>2024-11-03T13:35:13Z</time>
      </trkpt>
      <trkpt lat="44.75028" lon="5.52874">
        <ele>1615.15</ele>
        <time>2024-11-03T13:35:16Z</time>
      </trkpt>
      <trkpt lat="44.75027" lon="5.52875">
        <ele>1615.15</ele>
        <time>2024-11-03T13:35:17Z</time>
      </trkpt>
      <trkpt lat="44.75026" lon="5.52876">
        <ele>1615.15</ele>
        <time>2024-11-03T13:35:18Z</time>
      </trkpt>
      <trkpt lat="44.75025" lon="5.52877">
        <ele>1615.63</ele>
        <time>2024-11-03T13:35:19Z</time>
      </trkpt>
      <trkpt lat="44.75024" lon="5.52878">
        <ele>1615.15</ele>
        <time>2024-11-03T13:35:20Z</time>
      </trkpt>
      <trkpt lat="44.75023" lon="5.52879">
        <ele>1615.15</ele>
        <time>2024-11-03T13:35:21Z</time>
      </trkpt>
      <trkpt lat="44.75023" lon="5.5288">
        <ele>1615.15</ele>
        <time>2024-11-03T13:35:22Z</time>
      </trkpt>
      <trkpt lat="44.75022" lon="5.52881">
        <ele>1615.15</ele>
        <time>2024-11-03T13:35:23Z</time>
      </trkpt>
      <trkpt lat="44.75008" lon="5.529">
        <ele>1612.75</ele>
        <time>2024-11-03T13:35:39Z</time>
      </trkpt>
      <trkpt lat="44.75008" lon="5.52901">
        <ele>1612.75</ele>
        <time>2024-11-03T13:35:40Z</time>
      </trkpt>
      <trkpt lat="44.74995" lon="5.52933">
        <ele>1609.86</ele>
        <time>2024-11-03T13:35:59Z</time>
      </trkpt>
      <trkpt lat="44.74985" lon="5.52957">
        <ele>1608.42</ele>
        <time>2024-11-03T13:36:14Z</time>
      </trkpt>
      <trkpt lat="44.74982" lon="5.5296">
        <ele>1607.94</ele>
        <time>2024-11-03T13:36:16Z</time>
      </trkpt>
      <trkpt lat="44.74981" lon="5.52961">
        <ele>1607.94</ele>
        <time>2024-11-03T13:36:17Z</time>
      </trkpt>
      <trkpt lat="44.7498" lon="5.52962">
        <ele>1607.94</ele>
        <time>2024-11-03T13:36:18Z</time>
      </trkpt>
      <trkpt lat="44.74979" lon="5.52963">
        <ele>1607.94</ele>
        <time>2024-11-03T13:36:19Z</time>
      </trkpt>
      <trkpt lat="44.74978" lon="5.52964">
        <ele>1607.94</ele>
        <time>2024-11-03T13:36:20Z</time>
      </trkpt>
      <trkpt lat="44.74965" lon="5.52977">
        <ele>1607.46</ele>
        <time>2024-11-03T13:36:33Z</time>
      </trkpt>
      <trkpt lat="44.74955" lon="5.52992">
        <ele>1606.98</ele>
        <time>2024-11-03T13:36:44Z</time>
      </trkpt>
      <trkpt lat="44.74954" lon="5.52993">
        <ele>1606.98</ele>
        <time>2024-11-03T13:36:45Z</time>
      </trkpt>
      <trkpt lat="44.74939" lon="5.53007">
        <ele>1605.54</ele>
        <time>2024-11-03T13:37:00Z</time>
      </trkpt>
      <trkpt lat="44.74931" lon="5.53021">
        <ele>1604.58</ele>
        <time>2024-11-03T13:37:11Z</time>
      </trkpt>
      <trkpt lat="44.7493" lon="5.53022">
        <ele>1604.58</ele>
        <time>2024-11-03T13:37:12Z</time>
      </trkpt>
      <trkpt lat="44.74929" lon="5.53024">
        <ele>1604.1</ele>
        <time>2024-11-03T13:37:13Z</time>
      </trkpt>
      <trkpt lat="44.74929" lon="5.53026">
        <ele>1604.1</ele>
        <time>2024-11-03T13:37:14Z</time>
      </trkpt>
      <trkpt lat="44.74922" lon="5.53052">
        <ele>1603.14</ele>
        <time>2024-11-03T13:37:27Z</time>
      </trkpt>
      <trkpt lat="44.74921" lon="5.53058">
        <ele>1602.66</ele>
        <time>2024-11-03T13:37:30Z</time>
      </trkpt>
      <trkpt lat="44.7492" lon="5.53071">
        <ele>1601.21</ele>
        <time>2024-11-03T13:37:37Z</time>
      </trkpt>
      <trkpt lat="44.74917" lon="5.53081">
        <ele>1600.25</ele>
        <time>2024-11-03T13:37:44Z</time>
      </trkpt>
      <trkpt lat="44.74914" lon="5.53088">
        <ele>1600.25</ele>
        <time>2024-11-03T13:37:49Z</time>
      </trkpt>
      <trkpt lat="44.74914" lon="5.53096">
        <ele>1599.29</ele>
        <time>2024-11-03T13:37:53Z</time>
      </trkpt>
      <trkpt lat="44.74914" lon="5.53111">
        <ele>1597.37</ele>
        <time>2024-11-03T13:38:01Z</time>
      </trkpt>
      <trkpt lat="44.74914" lon="5.53113">
        <ele>1596.89</ele>
        <time>2024-11-03T13:38:02Z</time>
      </trkpt>
      <trkpt lat="44.74907" lon="5.53143">
        <ele>1594.96</ele>
        <time>2024-11-03T13:38:18Z</time>
      </trkpt>
      <trkpt lat="44.74894" lon="5.53173">
        <ele>1592.56</ele>
        <time>2024-11-03T13:38:35Z</time>
      </trkpt>
      <trkpt lat="44.74881" lon="5.53197">
        <ele>1590.16</ele>
        <time>2024-11-03T13:38:51Z</time>
      </trkpt>
      <trkpt lat="44.74866" lon="5.53219">
        <ele>1588.24</ele>
        <time>2024-11-03T13:39:06Z</time>
      </trkpt>
      <trkpt lat="44.74858" lon="5.53227">
        <ele>1586.79</ele>
        <time>2024-11-03T13:39:15Z</time>
      </trkpt>
      <trkpt lat="44.74853" lon="5.53233">
        <ele>1585.83</ele>
        <time>2024-11-03T13:39:20Z</time>
      </trkpt>
      <trkpt lat="44.74852" lon="5.53234">
        <ele>1585.83</ele>
        <time>2024-11-03T13:39:21Z</time>
      </trkpt>
      <trkpt lat="44.74834" lon="5.53248">
        <ele>1584.39</ele>
        <time>2024-11-03T13:39:36Z</time>
      </trkpt>
      <trkpt lat="44.74816" lon="5.53258">
        <ele>1583.43</ele>
        <time>2024-11-03T13:39:50Z</time>
      </trkpt>
      <trkpt lat="44.74796" lon="5.53262">
        <ele>1583.43</ele>
        <time>2024-11-03T13:40:06Z</time>
      </trkpt>
      <trkpt lat="44.74775" lon="5.53262">
        <ele>1582.95</ele>
        <time>2024-11-03T13:40:21Z</time>
      </trkpt>
      <trkpt lat="44.74752" lon="5.53256">
        <ele>1582.95</ele>
        <time>2024-11-03T13:40:39Z</time>
      </trkpt>
      <trkpt lat="44.7473" lon="5.53244">
        <ele>1581.51</ele>
        <time>2024-11-03T13:40:56Z</time>
      </trkpt>
      <trkpt lat="44.74713" lon="5.53235">
        <ele>1581.51</ele>
        <time>2024-11-03T13:41:11Z</time>
      </trkpt>
      <trkpt lat="44.74695" lon="5.5324">
        <ele>1581.51</ele>
        <time>2024-11-03T13:41:26Z</time>
      </trkpt>
      <trkpt lat="44.74678" lon="5.53243">
        <ele>1581.51</ele>
        <time>2024-11-03T13:41:39Z</time>
      </trkpt>
      <trkpt lat="44.74663" lon="5.53246">
        <ele>1581.03</ele>
        <time>2024-11-03T13:41:53Z</time>
      </trkpt>
      <trkpt lat="44.74658" lon="5.53249">
        <ele>1581.03</ele>
        <time>2024-11-03T13:41:57Z</time>
      </trkpt>
      <trkpt lat="44.74656" lon="5.5325">
        <ele>1581.03</ele>
        <time>2024-11-03T13:41:58Z</time>
      </trkpt>
      <trkpt lat="44.74637" lon="5.53258">
        <ele>1581.03</ele>
        <time>2024-11-03T13:42:13Z</time>
      </trkpt>
      <trkpt lat="44.74618" lon="5.53269">
        <ele>1581.03</ele>
        <time>2024-11-03T13:42:28Z</time>
      </trkpt>
      <trkpt lat="44.74601" lon="5.53279">
        <ele>1581.03</ele>
        <time>2024-11-03T13:42:42Z</time>
      </trkpt>
      <trkpt lat="44.74581" lon="5.53289">
        <ele>1580.54</ele>
        <time>2024-11-03T13:42:59Z</time>
      </trkpt>
      <trkpt lat="44.74563" lon="5.53292">
        <ele>1580.06</ele>
        <time>2024-11-03T13:43:13Z</time>
      </trkpt>
      <trkpt lat="44.74555" lon="5.53295">
        <ele>1580.06</ele>
        <time>2024-11-03T13:43:20Z</time>
      </trkpt>
      <trkpt lat="44.74553" lon="5.53296">
        <ele>1580.06</ele>
        <time>2024-11-03T13:43:22Z</time>
      </trkpt>
      <trkpt lat="44.74536" lon="5.53298">
        <ele>1579.58</ele>
        <time>2024-11-03T13:43:35Z</time>
      </trkpt>
      <trkpt lat="44.74517" lon="5.533">
        <ele>1579.1</ele>
        <time>2024-11-03T13:43:49Z</time>
      </trkpt>
      <trkpt lat="44.74496" lon="5.53298">
        <ele>1577.18</ele>
        <time>2024-11-03T13:44:03Z</time>
      </trkpt>
      <trkpt lat="44.74477" lon="5.53292">
        <ele>1576.22</ele>
        <time>2024-11-03T13:44:17Z</time>
      </trkpt>
      <trkpt lat="44.74455" lon="5.53281">
        <ele>1574.3</ele>
        <time>2024-11-03T13:44:35Z</time>
      </trkpt>
      <trkpt lat="44.74438" lon="5.53266">
        <ele>1571.89</ele>
        <time>2024-11-03T13:44:50Z</time>
      </trkpt>
      <trkpt lat="44.74425" lon="5.53246">
        <ele>1570.45</ele>
        <time>2024-11-03T13:45:04Z</time>
      </trkpt>
      <trkpt lat="44.74422" lon="5.53244">
        <ele>1569.97</ele>
        <time>2024-11-03T13:45:19Z</time>
      </trkpt>
      <trkpt lat="44.74422" lon="5.53237">
        <ele>1569.97</ele>
        <time>2024-11-03T13:45:26Z</time>
      </trkpt>
      <trkpt lat="44.74422" lon="5.53235">
        <ele>1569.97</ele>
        <time>2024-11-03T13:45:27Z</time>
      </trkpt>
      <trkpt lat="44.7442" lon="5.53208">
        <ele>1569.97</ele>
        <time>2024-11-03T13:45:43Z</time>
      </trkpt>
      <trkpt lat="44.74421" lon="5.53197">
        <ele>1569.97</ele>
        <time>2024-11-03T13:45:49Z</time>
      </trkpt>
      <trkpt lat="44.74415" lon="5.53159">
        <ele>1569.49</ele>
        <time>2024-11-03T13:46:09Z</time>
      </trkpt>
      <trkpt lat="44.74409" lon="5.53125">
        <ele>1567.57</ele>
        <time>2024-11-03T13:46:28Z</time>
      </trkpt>
      <trkpt lat="44.74405" lon="5.53113">
        <ele>1566.61</ele>
        <time>2024-11-03T13:46:35Z</time>
      </trkpt>
      <trkpt lat="44.74405" lon="5.53111">
        <ele>1566.61</ele>
        <time>2024-11-03T13:46:36Z</time>
      </trkpt>
      <trkpt lat="44.74396" lon="5.53086">
        <ele>1563.72</ele>
        <time>2024-11-03T13:46:51Z</time>
      </trkpt>
      <trkpt lat="44.74386" lon="5.53062">
        <ele>1562.76</ele>
        <time>2024-11-03T13:47:06Z</time>
      </trkpt>
      <trkpt lat="44.74377" lon="5.53035">
        <ele>1561.8</ele>
        <time>2024-11-03T13:47:22Z</time>
      </trkpt>
      <trkpt lat="44.74376" lon="5.53034">
        <ele>1561.8</ele>
        <time>2024-11-03T13:47:23Z</time>
      </trkpt>
      <trkpt lat="44.74375" lon="5.53033">
        <ele>1561.32</ele>
        <time>2024-11-03T13:47:24Z</time>
      </trkpt>
      <trkpt lat="44.74374" lon="5.53032">
        <ele>1561.32</ele>
        <time>2024-11-03T13:47:25Z</time>
      </trkpt>
      <trkpt lat="44.74372" lon="5.53032">
        <ele>1561.32</ele>
        <time>2024-11-03T13:47:26Z</time>
      </trkpt>
      <trkpt lat="44.74371" lon="5.53031">
        <ele>1561.32</ele>
        <time>2024-11-03T13:47:27Z</time>
      </trkpt>
      <trkpt lat="44.7437" lon="5.5303">
        <ele>1561.32</ele>
        <time>2024-11-03T13:47:28Z</time>
      </trkpt>
      <trkpt lat="44.74369" lon="5.5303">
        <ele>1561.32</ele>
        <time>2024-11-03T13:47:29Z</time>
      </trkpt>
      <trkpt lat="44.74359" lon="5.53032">
        <ele>1562.76</ele>
        <time>2024-11-03T13:47:40Z</time>
      </trkpt>
      <trkpt lat="44.74342" lon="5.5304">
        <ele>1563.24</ele>
        <time>2024-11-03T13:47:56Z</time>
      </trkpt>
      <trkpt lat="44.74327" lon="5.5304">
        <ele>1562.76</ele>
        <time>2024-11-03T13:48:11Z</time>
      </trkpt>
      <trkpt lat="44.74313" lon="5.53038">
        <ele>1563.24</ele>
        <time>2024-11-03T13:48:26Z</time>
      </trkpt>
      <trkpt lat="44.743" lon="5.53036">
        <ele>1563.72</ele>
        <time>2024-11-03T13:48:41Z</time>
      </trkpt>
      <trkpt lat="44.74289" lon="5.53039">
        <ele>1564.68</ele>
        <time>2024-11-03T13:48:55Z</time>
      </trkpt>
      <trkpt lat="44.74274" lon="5.53049">
        <ele>1565.64</ele>
        <time>2024-11-03T13:49:12Z</time>
      </trkpt>
      <trkpt lat="44.74264" lon="5.53061">
        <ele>1566.61</ele>
        <time>2024-11-03T13:49:27Z</time>
      </trkpt>
      <trkpt lat="44.74255" lon="5.53073">
        <ele>1567.09</ele>
        <time>2024-11-03T13:49:42Z</time>
      </trkpt>
      <trkpt lat="44.74244" lon="5.53084">
        <ele>1568.05</ele>
        <time>2024-11-03T13:49:58Z</time>
      </trkpt>
      <trkpt lat="44.7423" lon="5.5309">
        <ele>1569.01</ele>
        <time>2024-11-03T13:50:16Z</time>
      </trkpt>
      <trkpt lat="44.74229" lon="5.53089">
        <ele>1567.57</ele>
        <time>2024-11-03T13:50:31Z</time>
      </trkpt>
      <trkpt lat="44.74225" lon="5.53088">
        <ele>1568.05</ele>
        <time>2024-11-03T13:56:19Z</time>
      </trkpt>
      <trkpt lat="44.74224" lon="5.53087">
        <ele>1568.05</ele>
        <time>2024-11-03T13:56:22Z</time>
      </trkpt>
      <trkpt lat="44.74209" lon="5.53076">
        <ele>1569.49</ele>
        <time>2024-11-03T13:56:39Z</time>
      </trkpt>
      <trkpt lat="44.74209" lon="5.53078">
        <ele>1569.97</ele>
        <time>2024-11-03T13:59:48Z</time>
      </trkpt>
      <trkpt lat="44.74208" lon="5.53086">
        <ele>1568.05</ele>
        <time>2024-11-03T14:00:07Z</time>
      </trkpt>
      <trkpt lat="44.74202" lon="5.53091">
        <ele>1567.57</ele>
        <time>2024-11-03T14:00:21Z</time>
      </trkpt>
      <trkpt lat="44.74196" lon="5.53094">
        <ele>1567.09</ele>
        <time>2024-11-03T14:00:28Z</time>
      </trkpt>
      <trkpt lat="44.74179" lon="5.53097">
        <ele>1566.61</ele>
        <time>2024-11-03T14:00:44Z</time>
      </trkpt>
      <trkpt lat="44.74163" lon="5.53098">
        <ele>1565.16</ele>
        <time>2024-11-03T14:00:59Z</time>
      </trkpt>
      <trkpt lat="44.74153" lon="5.531">
        <ele>1563.72</ele>
        <time>2024-11-03T14:01:09Z</time>
      </trkpt>
      <trkpt lat="44.74141" lon="5.53105">
        <ele>1560.36</ele>
        <time>2024-11-03T14:01:22Z</time>
      </trkpt>
      <trkpt lat="44.74134" lon="5.53108">
        <ele>1559.4</ele>
        <time>2024-11-03T14:01:29Z</time>
      </trkpt>
      <trkpt lat="44.74132" lon="5.5311">
        <ele>1558.92</ele>
        <time>2024-11-03T14:01:31Z</time>
      </trkpt>
      <trkpt lat="44.74123" lon="5.53117">
        <ele>1556.99</ele>
        <time>2024-11-03T14:01:40Z</time>
      </trkpt>
      <trkpt lat="44.74126" lon="5.53126">
        <ele>1556.03</ele>
        <time>2024-11-03T14:01:48Z</time>
      </trkpt>
      <trkpt lat="44.74134" lon="5.53127">
        <ele>1554.59</ele>
        <time>2024-11-03T14:01:57Z</time>
      </trkpt>
      <trkpt lat="44.74139" lon="5.53136">
        <ele>1550.74</ele>
        <time>2024-11-03T14:02:06Z</time>
      </trkpt>
      <trkpt lat="44.74141" lon="5.53142">
        <ele>1549.3</ele>
        <time>2024-11-03T14:02:11Z</time>
      </trkpt>
      <trkpt lat="44.74137" lon="5.53164">
        <ele>1545.46</ele>
        <time>2024-11-03T14:02:25Z</time>
      </trkpt>
      <trkpt lat="44.74133" lon="5.53182">
        <ele>1542.09</ele>
        <time>2024-11-03T14:02:37Z</time>
      </trkpt>
      <trkpt lat="44.74129" lon="5.53187">
        <ele>1541.13</ele>
        <time>2024-11-03T14:02:42Z</time>
      </trkpt>
      <trkpt lat="44.74114" lon="5.53191">
        <ele>1537.77</ele>
        <time>2024-11-03T14:02:55Z</time>
      </trkpt>
      <trkpt lat="44.74101" lon="5.53193">
        <ele>1534.88</ele>
        <time>2024-11-03T14:03:07Z</time>
      </trkpt>
      <trkpt lat="44.74088" lon="5.53195">
        <ele>1531.04</ele>
        <time>2024-11-03T14:03:20Z</time>
      </trkpt>
      <trkpt lat="44.74082" lon="5.53196">
        <ele>1528.63</ele>
        <time>2024-11-03T14:03:29Z</time>
      </trkpt>
      <trkpt lat="44.7407" lon="5.53189">
        <ele>1526.23</ele>
        <time>2024-11-03T14:03:42Z</time>
      </trkpt>
      <trkpt lat="44.74066" lon="5.53184">
        <ele>1525.27</ele>
        <time>2024-11-03T14:03:47Z</time>
      </trkpt>
      <trkpt lat="44.74057" lon="5.53158">
        <ele>1523.83</ele>
        <time>2024-11-03T14:04:02Z</time>
      </trkpt>
      <trkpt lat="44.74042" lon="5.53134">
        <ele>1521.9</ele>
        <time>2024-11-03T14:04:20Z</time>
      </trkpt>
      <trkpt lat="44.74025" lon="5.53119">
        <ele>1519.98</ele>
        <time>2024-11-03T14:04:37Z</time>
      </trkpt>
      <trkpt lat="44.74012" lon="5.53114">
        <ele>1517.1</ele>
        <time>2024-11-03T14:04:53Z</time>
      </trkpt>
      <trkpt lat="44.74001" lon="5.53109">
        <ele>1515.18</ele>
        <time>2024-11-03T14:05:07Z</time>
      </trkpt>
      <trkpt lat="44.73996" lon="5.53107">
        <ele>1514.21</ele>
        <time>2024-11-03T14:05:12Z</time>
      </trkpt>
      <trkpt lat="44.73977" lon="5.53099">
        <ele>1511.81</ele>
        <time>2024-11-03T14:05:29Z</time>
      </trkpt>
      <trkpt lat="44.7397" lon="5.53097">
        <ele>1510.37</ele>
        <time>2024-11-03T14:05:35Z</time>
      </trkpt>
      <trkpt lat="44.73948" lon="5.53096">
        <ele>1508.45</ele>
        <time>2024-11-03T14:05:53Z</time>
      </trkpt>
      <trkpt lat="44.73939" lon="5.53096">
        <ele>1507</ele>
        <time>2024-11-03T14:06:02Z</time>
      </trkpt>
      <trkpt lat="44.73921" lon="5.53094">
        <ele>1504.12</ele>
        <time>2024-11-03T14:06:17Z</time>
      </trkpt>
      <trkpt lat="44.73904" lon="5.53093">
        <ele>1500.76</ele>
        <time>2024-11-03T14:06:31Z</time>
      </trkpt>
      <trkpt lat="44.73884" lon="5.53096">
        <ele>1497.39</ele>
        <time>2024-11-03T14:06:47Z</time>
      </trkpt>
      <trkpt lat="44.73868" lon="5.53101">
        <ele>1494.03</ele>
        <time>2024-11-03T14:07:01Z</time>
      </trkpt>
      <trkpt lat="44.73848" lon="5.53107">
        <ele>1490.66</ele>
        <time>2024-11-03T14:07:16Z</time>
      </trkpt>
      <trkpt lat="44.73832" lon="5.53116">
        <ele>1487.78</ele>
        <time>2024-11-03T14:07:29Z</time>
      </trkpt>
      <trkpt lat="44.73817" lon="5.53121">
        <ele>1484.41</ele>
        <time>2024-11-03T14:07:41Z</time>
      </trkpt>
      <trkpt lat="44.73802" lon="5.53127">
        <ele>1481.53</ele>
        <time>2024-11-03T14:07:54Z</time>
      </trkpt>
      <trkpt lat="44.73785" lon="5.5314">
        <ele>1478.16</ele>
        <time>2024-11-03T14:08:06Z</time>
      </trkpt>
      <trkpt lat="44.73781" lon="5.53141">
        <ele>1477.68</ele>
        <time>2024-11-03T14:08:09Z</time>
      </trkpt>
      <trkpt lat="44.73767" lon="5.53155">
        <ele>1474.32</ele>
        <time>2024-11-03T14:08:21Z</time>
      </trkpt>
      <trkpt lat="44.73756" lon="5.53161">
        <ele>1470.95</ele>
        <time>2024-11-03T14:08:30Z</time>
      </trkpt>
      <trkpt lat="44.73744" lon="5.53167">
        <ele>1467.59</ele>
        <time>2024-11-03T14:08:41Z</time>
      </trkpt>
      <trkpt lat="44.73724" lon="5.53178">
        <ele>1464.71</ele>
        <time>2024-11-03T14:08:56Z</time>
      </trkpt>
      <trkpt lat="44.73707" lon="5.53197">
        <ele>1462.3</ele>
        <time>2024-11-03T14:09:11Z</time>
      </trkpt>
      <trkpt lat="44.73706" lon="5.532">
        <ele>1461.82</ele>
        <time>2024-11-03T14:09:13Z</time>
      </trkpt>
      <trkpt lat="44.73709" lon="5.53209">
        <ele>1460.86</ele>
        <time>2024-11-03T14:09:20Z</time>
      </trkpt>
      <trkpt lat="44.73721" lon="5.53216">
        <ele>1457.98</ele>
        <time>2024-11-03T14:09:36Z</time>
      </trkpt>
      <trkpt lat="44.73736" lon="5.53216">
        <ele>1454.61</ele>
        <time>2024-11-03T14:09:49Z</time>
      </trkpt>
      <trkpt lat="44.73748" lon="5.5322">
        <ele>1451.25</ele>
        <time>2024-11-03T14:10:00Z</time>
      </trkpt>
      <trkpt lat="44.7376" lon="5.53222">
        <ele>1447.88</ele>
        <time>2024-11-03T14:10:11Z</time>
      </trkpt>
      <trkpt lat="44.73771" lon="5.53224">
        <ele>1444.52</ele>
        <time>2024-11-03T14:10:21Z</time>
      </trkpt>
      <trkpt lat="44.73776" lon="5.53225">
        <ele>1443.56</ele>
        <time>2024-11-03T14:10:25Z</time>
      </trkpt>
      <trkpt lat="44.73795" lon="5.53224">
        <ele>1440.67</ele>
        <time>2024-11-03T14:10:40Z</time>
      </trkpt>
      <trkpt lat="44.73808" lon="5.53221">
        <ele>1438.27</ele>
        <time>2024-11-03T14:10:51Z</time>
      </trkpt>
      <trkpt lat="44.73827" lon="5.53222">
        <ele>1434.91</ele>
        <time>2024-11-03T14:11:05Z</time>
      </trkpt>
      <trkpt lat="44.73843" lon="5.53229">
        <ele>1432.02</ele>
        <time>2024-11-03T14:11:17Z</time>
      </trkpt>
      <trkpt lat="44.7385" lon="5.5323">
        <ele>1431.54</ele>
        <time>2024-11-03T14:11:32Z</time>
      </trkpt>
      <trkpt lat="44.73854" lon="5.5323">
        <ele>1431.54</ele>
        <time>2024-11-03T14:12:18Z</time>
      </trkpt>
      <trkpt lat="44.73862" lon="5.53235">
        <ele>1430.1</ele>
        <time>2024-11-03T14:12:42Z</time>
      </trkpt>
      <trkpt lat="44.73865" lon="5.53238">
        <ele>1429.62</ele>
        <time>2024-11-03T14:12:46Z</time>
      </trkpt>
      <trkpt lat="44.73882" lon="5.53249">
        <ele>1425.29</ele>
        <time>2024-11-03T14:13:01Z</time>
      </trkpt>
      <trkpt lat="44.73897" lon="5.53261">
        <ele>1421.93</ele>
        <time>2024-11-03T14:13:15Z</time>
      </trkpt>
      <trkpt lat="44.73915" lon="5.53275">
        <ele>1418.56</ele>
        <time>2024-11-03T14:13:29Z</time>
      </trkpt>
      <trkpt lat="44.73929" lon="5.53289">
        <ele>1415.2</ele>
        <time>2024-11-03T14:13:46Z</time>
      </trkpt>
      <trkpt lat="44.7394" lon="5.53301">
        <ele>1412.31</ele>
        <time>2024-11-03T14:13:58Z</time>
      </trkpt>
      <trkpt lat="44.73953" lon="5.53317">
        <ele>1408.95</ele>
        <time>2024-11-03T14:14:13Z</time>
      </trkpt>
      <trkpt lat="44.73966" lon="5.53334">
        <ele>1406.07</ele>
        <time>2024-11-03T14:14:27Z</time>
      </trkpt>
      <trkpt lat="44.73978" lon="5.53352">
        <ele>1402.7</ele>
        <time>2024-11-03T14:14:42Z</time>
      </trkpt>
      <trkpt lat="44.73978" lon="5.53354">
        <ele>1402.7</ele>
        <time>2024-11-03T14:14:43Z</time>
      </trkpt>
      <trkpt lat="44.73969" lon="5.5336">
        <ele>1400.78</ele>
        <time>2024-11-03T14:14:53Z</time>
      </trkpt>
      <trkpt lat="44.73952" lon="5.53354">
        <ele>1396.93</ele>
        <time>2024-11-03T14:15:08Z</time>
      </trkpt>
      <trkpt lat="44.73936" lon="5.53351">
        <ele>1394.05</ele>
        <time>2024-11-03T14:15:20Z</time>
      </trkpt>
      <trkpt lat="44.73919" lon="5.5335">
        <ele>1390.68</ele>
        <time>2024-11-03T14:15:33Z</time>
      </trkpt>
      <trkpt lat="44.73916" lon="5.53349">
        <ele>1389.72</ele>
        <time>2024-11-03T14:15:35Z</time>
      </trkpt>
      <trkpt lat="44.73908" lon="5.5335">
        <ele>1388.76</ele>
        <time>2024-11-03T14:15:41Z</time>
      </trkpt>
      <trkpt lat="44.73893" lon="5.53353">
        <ele>1384.92</ele>
        <time>2024-11-03T14:15:54Z</time>
      </trkpt>
      <trkpt lat="44.73883" lon="5.53354">
        <ele>1382.51</ele>
        <time>2024-11-03T14:16:02Z</time>
      </trkpt>
      <trkpt lat="44.7387" lon="5.53354">
        <ele>1379.15</ele>
        <time>2024-11-03T14:16:14Z</time>
      </trkpt>
      <trkpt lat="44.73855" lon="5.53359">
        <ele>1375.3</ele>
        <time>2024-11-03T14:16:27Z</time>
      </trkpt>
      <trkpt lat="44.73851" lon="5.53361">
        <ele>1374.34</ele>
        <time>2024-11-03T14:16:30Z</time>
      </trkpt>
      <trkpt lat="44.73845" lon="5.53363">
        <ele>1372.9</ele>
        <time>2024-11-03T14:16:35Z</time>
      </trkpt>
      <trkpt lat="44.73832" lon="5.53369">
        <ele>1369.05</ele>
        <time>2024-11-03T14:16:47Z</time>
      </trkpt>
      <trkpt lat="44.73827" lon="5.53371">
        <ele>1368.09</ele>
        <time>2024-11-03T14:16:52Z</time>
      </trkpt>
      <trkpt lat="44.73814" lon="5.53374">
        <ele>1364.73</ele>
        <time>2024-11-03T14:17:04Z</time>
      </trkpt>
      <trkpt lat="44.73811" lon="5.53375">
        <ele>1363.77</ele>
        <time>2024-11-03T14:17:07Z</time>
      </trkpt>
      <trkpt lat="44.73801" lon="5.53381">
        <ele>1360.88</ele>
        <time>2024-11-03T14:17:16Z</time>
      </trkpt>
      <trkpt lat="44.73787" lon="5.53389">
        <ele>1358</ele>
        <time>2024-11-03T14:17:27Z</time>
      </trkpt>
      <trkpt lat="44.73774" lon="5.53393">
        <ele>1354.63</ele>
        <time>2024-11-03T14:17:38Z</time>
      </trkpt>
      <trkpt lat="44.73764" lon="5.53398">
        <ele>1352.23</ele>
        <time>2024-11-03T14:17:48Z</time>
      </trkpt>
      <trkpt lat="44.73758" lon="5.534">
        <ele>1351.27</ele>
        <time>2024-11-03T14:17:53Z</time>
      </trkpt>
      <trkpt lat="44.73742" lon="5.53402">
        <ele>1348.39</ele>
        <time>2024-11-03T14:18:05Z</time>
      </trkpt>
      <trkpt lat="44.73728" lon="5.53413">
        <ele>1345.98</ele>
        <time>2024-11-03T14:18:16Z</time>
      </trkpt>
      <trkpt lat="44.73712" lon="5.53421">
        <ele>1342.62</ele>
        <time>2024-11-03T14:18:29Z</time>
      </trkpt>
      <trkpt lat="44.73698" lon="5.53429">
        <ele>1340.22</ele>
        <time>2024-11-03T14:18:41Z</time>
      </trkpt>
      <trkpt lat="44.73678" lon="5.53439">
        <ele>1336.85</ele>
        <time>2024-11-03T14:18:56Z</time>
      </trkpt>
      <trkpt lat="44.73657" lon="5.53445">
        <ele>1334.45</ele>
        <time>2024-11-03T14:19:12Z</time>
      </trkpt>
      <trkpt lat="44.73642" lon="5.53448">
        <ele>1332.52</ele>
        <time>2024-11-03T14:19:24Z</time>
      </trkpt>
      <trkpt lat="44.73638" lon="5.53451">
        <ele>1332.04</ele>
        <time>2024-11-03T14:19:28Z</time>
      </trkpt>
      <trkpt lat="44.73624" lon="5.5346">
        <ele>1330.12</ele>
        <time>2024-11-03T14:19:45Z</time>
      </trkpt>
      <trkpt lat="44.73622" lon="5.53465">
        <ele>1330.12</ele>
        <time>2024-11-03T14:20:09Z</time>
      </trkpt>
      <trkpt lat="44.73623" lon="5.5347">
        <ele>1329.64</ele>
        <time>2024-11-03T14:20:38Z</time>
      </trkpt>
      <trkpt lat="44.73616" lon="5.53474">
        <ele>1329.16</ele>
        <time>2024-11-03T14:31:07Z</time>
      </trkpt>
      <trkpt lat="44.73605" lon="5.53464">
        <ele>1329.64</ele>
        <time>2024-11-03T14:31:20Z</time>
      </trkpt>
      <trkpt lat="44.73599" lon="5.53459">
        <ele>1328.2</ele>
        <time>2024-11-03T14:31:27Z</time>
      </trkpt>
      <trkpt lat="44.73586" lon="5.53456">
        <ele>1324.83</ele>
        <time>2024-11-03T14:31:40Z</time>
      </trkpt>
      <trkpt lat="44.73581" lon="5.53455">
        <ele>1324.35</ele>
        <time>2024-11-03T14:31:44Z</time>
      </trkpt>
      <trkpt lat="44.73569" lon="5.53447">
        <ele>1320.51</ele>
        <time>2024-11-03T14:31:56Z</time>
      </trkpt>
      <trkpt lat="44.73558" lon="5.53442">
        <ele>1317.62</ele>
        <time>2024-11-03T14:32:05Z</time>
      </trkpt>
      <trkpt lat="44.73548" lon="5.53435">
        <ele>1314.26</ele>
        <time>2024-11-03T14:32:15Z</time>
      </trkpt>
      <trkpt lat="44.73538" lon="5.53429">
        <ele>1311.38</ele>
        <time>2024-11-03T14:32:24Z</time>
      </trkpt>
      <trkpt lat="44.73534" lon="5.53435">
        <ele>1308.97</ele>
        <time>2024-11-03T14:32:35Z</time>
      </trkpt>
      <trkpt lat="44.7353" lon="5.53445">
        <ele>1306.57</ele>
        <time>2024-11-03T14:32:45Z</time>
      </trkpt>
      <trkpt lat="44.73517" lon="5.53442">
        <ele>1303.2</ele>
        <time>2024-11-03T14:32:56Z</time>
      </trkpt>
      <trkpt lat="44.73506" lon="5.53445">
        <ele>1299.84</ele>
        <time>2024-11-03T14:33:06Z</time>
      </trkpt>
      <trkpt lat="44.73498" lon="5.5345">
        <ele>1297.44</ele>
        <time>2024-11-03T14:33:14Z</time>
      </trkpt>
      <trkpt lat="44.73494" lon="5.53457">
        <ele>1295.51</ele>
        <time>2024-11-03T14:33:21Z</time>
      </trkpt>
      <trkpt lat="44.73484" lon="5.53454">
        <ele>1292.15</ele>
        <time>2024-11-03T14:33:31Z</time>
      </trkpt>
      <trkpt lat="44.73483" lon="5.53454">
        <ele>1292.15</ele>
        <time>2024-11-03T14:33:32Z</time>
      </trkpt>
      <trkpt lat="44.73477" lon="5.53451">
        <ele>1290.23</ele>
        <time>2024-11-03T14:33:39Z</time>
      </trkpt>
      <trkpt lat="44.73472" lon="5.53451">
        <ele>1288.3</ele>
        <time>2024-11-03T14:33:45Z</time>
      </trkpt>
      <trkpt lat="44.73465" lon="5.53446">
        <ele>1286.86</ele>
        <time>2024-11-03T14:33:52Z</time>
      </trkpt>
      <trkpt lat="44.73455" lon="5.53449">
        <ele>1283.5</ele>
        <time>2024-11-03T14:34:03Z</time>
      </trkpt>
      <trkpt lat="44.73454" lon="5.5345">
        <ele>1283.5</ele>
        <time>2024-11-03T14:34:04Z</time>
      </trkpt>
      <trkpt lat="44.73448" lon="5.53454">
        <ele>1281.57</ele>
        <time>2024-11-03T14:34:10Z</time>
      </trkpt>
      <trkpt lat="44.73446" lon="5.53454">
        <ele>1281.09</ele>
        <time>2024-11-03T14:34:12Z</time>
      </trkpt>
      <trkpt lat="44.7344" lon="5.53448">
        <ele>1279.17</ele>
        <time>2024-11-03T14:34:19Z</time>
      </trkpt>
      <trkpt lat="44.73436" lon="5.53445">
        <ele>1277.25</ele>
        <time>2024-11-03T14:34:24Z</time>
      </trkpt>
      <trkpt lat="44.73426" lon="5.53439">
        <ele>1273.4</ele>
        <time>2024-11-03T14:34:35Z</time>
      </trkpt>
      <trkpt lat="44.73425" lon="5.53439">
        <ele>1273.4</ele>
        <time>2024-11-03T14:34:36Z</time>
      </trkpt>
      <trkpt lat="44.73414" lon="5.53435">
        <ele>1269.56</ele>
        <time>2024-11-03T14:34:47Z</time>
      </trkpt>
      <trkpt lat="44.73407" lon="5.53441">
        <ele>1266.19</ele>
        <time>2024-11-03T14:34:57Z</time>
      </trkpt>
      <trkpt lat="44.73405" lon="5.53445">
        <ele>1264.75</ele>
        <time>2024-11-03T14:35:03Z</time>
      </trkpt>
      <trkpt lat="44.73402" lon="5.53445">
        <ele>1263.79</ele>
        <time>2024-11-03T14:35:06Z</time>
      </trkpt>
      <trkpt lat="44.73393" lon="5.53434">
        <ele>1259.94</ele>
        <time>2024-11-03T14:35:18Z</time>
      </trkpt>
      <trkpt lat="44.73386" lon="5.53422">
        <ele>1256.58</ele>
        <time>2024-11-03T14:35:29Z</time>
      </trkpt>
      <trkpt lat="44.7337" lon="5.53405">
        <ele>1253.7</ele>
        <time>2024-11-03T14:35:44Z</time>
      </trkpt>
      <trkpt lat="44.7336" lon="5.53387">
        <ele>1250.81</ele>
        <time>2024-11-03T14:35:57Z</time>
      </trkpt>
      <trkpt lat="44.7335" lon="5.53367">
        <ele>1248.41</ele>
        <time>2024-11-03T14:36:11Z</time>
      </trkpt>
      <trkpt lat="44.73348" lon="5.53364">
        <ele>1248.41</ele>
        <time>2024-11-03T14:36:13Z</time>
      </trkpt>
      <trkpt lat="44.73338" lon="5.5335">
        <ele>1246.97</ele>
        <time>2024-11-03T14:36:29Z</time>
      </trkpt>
      <trkpt lat="44.73332" lon="5.53332">
        <ele>1245.04</ele>
        <time>2024-11-03T14:36:43Z</time>
      </trkpt>
      <trkpt lat="44.73328" lon="5.53316">
        <ele>1241.68</ele>
        <time>2024-11-03T14:36:54Z</time>
      </trkpt>
      <trkpt lat="44.73323" lon="5.53293">
        <ele>1238.8</ele>
        <time>2024-11-03T14:37:06Z</time>
      </trkpt>
      <trkpt lat="44.73323" lon="5.5327">
        <ele>1237.35</ele>
        <time>2024-11-03T14:37:20Z</time>
      </trkpt>
      <trkpt lat="44.73315" lon="5.53266">
        <ele>1234.95</ele>
        <time>2024-11-03T14:37:33Z</time>
      </trkpt>
      <trkpt lat="44.73307" lon="5.5326">
        <ele>1231.11</ele>
        <time>2024-11-03T14:37:42Z</time>
      </trkpt>
      <trkpt lat="44.73303" lon="5.53257">
        <ele>1229.66</ele>
        <time>2024-11-03T14:37:47Z</time>
      </trkpt>
      <trkpt lat="44.73302" lon="5.53256">
        <ele>1229.18</ele>
        <time>2024-11-03T14:37:49Z</time>
      </trkpt>
      <trkpt lat="44.733" lon="5.53254">
        <ele>1228.22</ele>
        <time>2024-11-03T14:37:51Z</time>
      </trkpt>
      <trkpt lat="44.73294" lon="5.53243">
        <ele>1224.38</ele>
        <time>2024-11-03T14:38:01Z</time>
      </trkpt>
      <trkpt lat="44.73292" lon="5.53242">
        <ele>1223.42</ele>
        <time>2024-11-03T14:38:03Z</time>
      </trkpt>
      <trkpt lat="44.73287" lon="5.53239">
        <ele>1221.01</ele>
        <time>2024-11-03T14:38:11Z</time>
      </trkpt>
      <trkpt lat="44.73273" lon="5.53243">
        <ele>1217.17</ele>
        <time>2024-11-03T14:38:24Z</time>
      </trkpt>
      <trkpt lat="44.73267" lon="5.5325">
        <ele>1215.24</ele>
        <time>2024-11-03T14:38:31Z</time>
      </trkpt>
      <trkpt lat="44.73258" lon="5.5326">
        <ele>1211.4</ele>
        <time>2024-11-03T14:38:41Z</time>
      </trkpt>
      <trkpt lat="44.73253" lon="5.53266">
        <ele>1209.48</ele>
        <time>2024-11-03T14:38:48Z</time>
      </trkpt>
      <trkpt lat="44.7324" lon="5.53276">
        <ele>1206.11</ele>
        <time>2024-11-03T14:39:00Z</time>
      </trkpt>
      <trkpt lat="44.7323" lon="5.53286">
        <ele>1202.27</ele>
        <time>2024-11-03T14:39:10Z</time>
      </trkpt>
      <trkpt lat="44.73224" lon="5.53295">
        <ele>1200.34</ele>
        <time>2024-11-03T14:39:16Z</time>
      </trkpt>
      <trkpt lat="44.73219" lon="5.53294">
        <ele>1198.9</ele>
        <time>2024-11-03T14:39:20Z</time>
      </trkpt>
      <trkpt lat="44.73209" lon="5.53271">
        <ele>1196.02</ele>
        <time>2024-11-03T14:39:35Z</time>
      </trkpt>
      <trkpt lat="44.7321" lon="5.53244">
        <ele>1195.06</ele>
        <time>2024-11-03T14:39:51Z</time>
      </trkpt>
      <trkpt lat="44.73204" lon="5.53232">
        <ele>1192.17</ele>
        <time>2024-11-03T14:40:07Z</time>
      </trkpt>
      <trkpt lat="44.73203" lon="5.53232">
        <ele>1192.17</ele>
        <time>2024-11-03T14:40:08Z</time>
      </trkpt>
      <trkpt lat="44.73187" lon="5.5323">
        <ele>1187.85</ele>
        <time>2024-11-03T14:40:20Z</time>
      </trkpt>
      <trkpt lat="44.73178" lon="5.53222">
        <ele>1184.48</ele>
        <time>2024-11-03T14:40:30Z</time>
      </trkpt>
      <trkpt lat="44.73173" lon="5.53208">
        <ele>1180.64</ele>
        <time>2024-11-03T14:40:46Z</time>
      </trkpt>
      <trkpt lat="44.73167" lon="5.53198">
        <ele>1179.67</ele>
        <time>2024-11-03T14:41:00Z</time>
      </trkpt>
      <trkpt lat="44.73165" lon="5.53195">
        <ele>1178.23</ele>
        <time>2024-11-03T14:41:03Z</time>
      </trkpt>
      <trkpt lat="44.73161" lon="5.53176">
        <ele>1175.35</ele>
        <time>2024-11-03T14:41:15Z</time>
      </trkpt>
      <trkpt lat="44.73167" lon="5.53165">
        <ele>1173.91</ele>
        <time>2024-11-03T14:41:23Z</time>
      </trkpt>
      <trkpt lat="44.73169" lon="5.5316">
        <ele>1172.95</ele>
        <time>2024-11-03T14:41:26Z</time>
      </trkpt>
      <trkpt lat="44.73174" lon="5.53147">
        <ele>1171.98</ele>
        <time>2024-11-03T14:41:34Z</time>
      </trkpt>
      <trkpt lat="44.7318" lon="5.53114">
        <ele>1170.06</ele>
        <time>2024-11-03T14:41:50Z</time>
      </trkpt>
      <trkpt lat="44.73182" lon="5.53097">
        <ele>1169.1</ele>
        <time>2024-11-03T14:42:04Z</time>
      </trkpt>
      <trkpt lat="44.73181" lon="5.53097">
        <ele>1169.1</ele>
        <time>2024-11-03T14:42:07Z</time>
      </trkpt>
      <trkpt lat="44.73177" lon="5.53103">
        <ele>1168.14</ele>
        <time>2024-11-03T14:42:13Z</time>
      </trkpt>
      <trkpt lat="44.73166" lon="5.53118">
        <ele>1165.74</ele>
        <time>2024-11-03T14:42:25Z</time>
      </trkpt>
      <trkpt lat="44.73156" lon="5.53131">
        <ele>1162.85</ele>
        <time>2024-11-03T14:42:37Z</time>
      </trkpt>
      <trkpt lat="44.73143" lon="5.53144">
        <ele>1159.49</ele>
        <time>2024-11-03T14:42:50Z</time>
      </trkpt>
      <trkpt lat="44.73134" lon="5.53152">
        <ele>1158.05</ele>
        <time>2024-11-03T14:42:59Z</time>
      </trkpt>
      <trkpt lat="44.73133" lon="5.53147">
        <ele>1156.12</ele>
        <time>2024-11-03T14:43:06Z</time>
      </trkpt>
      <trkpt lat="44.7314" lon="5.53125">
        <ele>1153.72</ele>
        <time>2024-11-03T14:43:21Z</time>
      </trkpt>
      <trkpt lat="44.73143" lon="5.53105">
        <ele>1150.84</ele>
        <time>2024-11-03T14:43:33Z</time>
      </trkpt>
      <trkpt lat="44.73142" lon="5.53079">
        <ele>1148.43</ele>
        <time>2024-11-03T14:43:46Z</time>
      </trkpt>
      <trkpt lat="44.73138" lon="5.53065">
        <ele>1147.47</ele>
        <time>2024-11-03T14:44:06Z</time>
      </trkpt>
      <trkpt lat="44.73139" lon="5.53062">
        <ele>1147.47</ele>
        <time>2024-11-03T14:44:12Z</time>
      </trkpt>
      <trkpt lat="44.73138" lon="5.5306">
        <ele>1147.47</ele>
        <time>2024-11-03T14:44:15Z</time>
      </trkpt>
      <trkpt lat="44.73139" lon="5.53056">
        <ele>1147.47</ele>
        <time>2024-11-03T14:44:31Z</time>
      </trkpt>
      <trkpt lat="44.7314" lon="5.53051">
        <ele>1147.47</ele>
        <time>2024-11-03T14:44:48Z</time>
      </trkpt>
      <trkpt lat="44.73142" lon="5.53042">
        <ele>1148.43</ele>
        <time>2024-11-03T14:45:02Z</time>
      </trkpt>
      <trkpt lat="44.73142" lon="5.53042">
        <ele>1147.95</ele>
        <time>2024-11-03T14:45:23Z</time>
      </trkpt>
      <trkpt lat="44.73144" lon="5.53037">
        <ele>1147.47</ele>
        <time>2024-11-03T14:47:51Z</time>
      </trkpt>
      <trkpt lat="44.7315" lon="5.53009">
        <ele>1147.95</ele>
        <time>2024-11-03T14:48:09Z</time>
      </trkpt>
      <trkpt lat="44.73154" lon="5.52989">
        <ele>1148.43</ele>
        <time>2024-11-03T14:48:23Z</time>
      </trkpt>
      <trkpt lat="44.7316" lon="5.52981">
        <ele>1148.43</ele>
        <time>2024-11-03T14:48:35Z</time>
      </trkpt>
      <trkpt lat="44.73163" lon="5.52974">
        <ele>1146.99</ele>
        <time>2024-11-03T14:48:40Z</time>
      </trkpt>
      <trkpt lat="44.73172" lon="5.52946">
        <ele>1144.59</ele>
        <time>2024-11-03T14:48:56Z</time>
      </trkpt>
      <trkpt lat="44.73173" lon="5.52943">
        <ele>1144.59</ele>
        <time>2024-11-03T14:48:58Z</time>
      </trkpt>
      <trkpt lat="44.73176" lon="5.52917">
        <ele>1141.7</ele>
        <time>2024-11-03T14:49:13Z</time>
      </trkpt>
      <trkpt lat="44.73181" lon="5.52904">
        <ele>1139.78</ele>
        <time>2024-11-03T14:49:20Z</time>
      </trkpt>
      <trkpt lat="44.73189" lon="5.52886">
        <ele>1136.42</ele>
        <time>2024-11-03T14:49:32Z</time>
      </trkpt>
      <trkpt lat="44.73196" lon="5.52864">
        <ele>1133.53</ele>
        <time>2024-11-03T14:49:46Z</time>
      </trkpt>
      <trkpt lat="44.73195" lon="5.52861">
        <ele>1133.05</ele>
        <time>2024-11-03T14:49:49Z</time>
      </trkpt>
      <trkpt lat="44.73182" lon="5.52877">
        <ele>1130.65</ele>
        <time>2024-11-03T14:50:06Z</time>
      </trkpt>
      <trkpt lat="44.73172" lon="5.52892">
        <ele>1128.73</ele>
        <time>2024-11-03T14:50:18Z</time>
      </trkpt>
      <trkpt lat="44.73165" lon="5.52903">
        <ele>1126.8</ele>
        <time>2024-11-03T14:50:27Z</time>
      </trkpt>
      <trkpt lat="44.73161" lon="5.52907">
        <ele>1125.84</ele>
        <time>2024-11-03T14:50:30Z</time>
      </trkpt>
      <trkpt lat="44.73151" lon="5.52923">
        <ele>1123.92</ele>
        <time>2024-11-03T14:50:43Z</time>
      </trkpt>
      <trkpt lat="44.73137" lon="5.5294">
        <ele>1122.48</ele>
        <time>2024-11-03T14:50:55Z</time>
      </trkpt>
      <trkpt lat="44.73119" lon="5.52956">
        <ele>1119.59</ele>
        <time>2024-11-03T14:51:10Z</time>
      </trkpt>
      <trkpt lat="44.73108" lon="5.52971">
        <ele>1118.15</ele>
        <time>2024-11-03T14:51:24Z</time>
      </trkpt>
      <trkpt lat="44.73096" lon="5.52994">
        <ele>1117.19</ele>
        <time>2024-11-03T14:51:40Z</time>
      </trkpt>
      <trkpt lat="44.73085" lon="5.53015">
        <ele>1114.79</ele>
        <time>2024-11-03T14:51:54Z</time>
      </trkpt>
      <trkpt lat="44.73078" lon="5.53031">
        <ele>1112.38</ele>
        <time>2024-11-03T14:52:06Z</time>
      </trkpt>
      <trkpt lat="44.73068" lon="5.5304">
        <ele>1108.54</ele>
        <time>2024-11-03T14:52:17Z</time>
      </trkpt>
      <trkpt lat="44.73046" lon="5.5305">
        <ele>1106.13</ele>
        <time>2024-11-03T14:52:35Z</time>
      </trkpt>
      <trkpt lat="44.73047" lon="5.53046">
        <ele>1105.65</ele>
        <time>2024-11-03T14:52:40Z</time>
      </trkpt>
      <trkpt lat="44.73049" lon="5.53041">
        <ele>1104.21</ele>
        <time>2024-11-03T14:52:44Z</time>
      </trkpt>
      <trkpt lat="44.73052" lon="5.53031">
        <ele>1102.29</ele>
        <time>2024-11-03T14:52:51Z</time>
      </trkpt>
      <trkpt lat="44.73052" lon="5.53026">
        <ele>1101.33</ele>
        <time>2024-11-03T14:52:54Z</time>
      </trkpt>
      <trkpt lat="44.73054" lon="5.53021">
        <ele>1100.37</ele>
        <time>2024-11-03T14:52:58Z</time>
      </trkpt>
      <trkpt lat="44.73064" lon="5.53004">
        <ele>1097.48</ele>
        <time>2024-11-03T14:53:12Z</time>
      </trkpt>
      <trkpt lat="44.73067" lon="5.52991">
        <ele>1095.56</ele>
        <time>2024-11-03T14:53:19Z</time>
      </trkpt>
      <trkpt lat="44.73067" lon="5.52986">
        <ele>1095.08</ele>
        <time>2024-11-03T14:53:22Z</time>
      </trkpt>
      <trkpt lat="44.73073" lon="5.5296">
        <ele>1092.2</ele>
        <time>2024-11-03T14:53:38Z</time>
      </trkpt>
      <trkpt lat="44.73075" lon="5.52951">
        <ele>1090.27</ele>
        <time>2024-11-03T14:53:45Z</time>
      </trkpt>
      <trkpt lat="44.73075" lon="5.52923">
        <ele>1086.43</ele>
        <time>2024-11-03T14:54:00Z</time>
      </trkpt>
      <trkpt lat="44.73066" lon="5.52893">
        <ele>1084.5</ele>
        <time>2024-11-03T14:54:15Z</time>
      </trkpt>
      <trkpt lat="44.73064" lon="5.52877">
        <ele>1082.1</ele>
        <time>2024-11-03T14:54:26Z</time>
      </trkpt>
      <trkpt lat="44.73066" lon="5.52861">
        <ele>1079.22</ele>
        <time>2024-11-03T14:54:37Z</time>
      </trkpt>
      <trkpt lat="44.7307" lon="5.52842">
        <ele>1075.85</ele>
        <time>2024-11-03T14:54:49Z</time>
      </trkpt>
      <trkpt lat="44.73072" lon="5.52833">
        <ele>1074.89</ele>
        <time>2024-11-03T14:54:55Z</time>
      </trkpt>
      <trkpt lat="44.73082" lon="5.52818">
        <ele>1072.01</ele>
        <time>2024-11-03T14:55:09Z</time>
      </trkpt>
      <trkpt lat="44.73095" lon="5.52801">
        <ele>1071.05</ele>
        <time>2024-11-03T14:55:24Z</time>
      </trkpt>
      <trkpt lat="44.73111" lon="5.52782">
        <ele>1070.08</ele>
        <time>2024-11-03T14:55:39Z</time>
      </trkpt>
      <trkpt lat="44.73131" lon="5.5277">
        <ele>1069.6</ele>
        <time>2024-11-03T14:55:55Z</time>
      </trkpt>
      <trkpt lat="44.73145" lon="5.52759">
        <ele>1071.05</ele>
        <time>2024-11-03T14:56:07Z</time>
      </trkpt>
      <trkpt lat="44.73148" lon="5.52751">
        <ele>1070.57</ele>
        <time>2024-11-03T14:56:11Z</time>
      </trkpt>
      <trkpt lat="44.7316" lon="5.52724">
        <ele>1069.12</ele>
        <time>2024-11-03T14:56:25Z</time>
      </trkpt>
      <trkpt lat="44.73164" lon="5.52709">
        <ele>1067.68</ele>
        <time>2024-11-03T14:56:33Z</time>
      </trkpt>
      <trkpt lat="44.73167" lon="5.52705">
        <ele>1067.2</ele>
        <time>2024-11-03T14:56:36Z</time>
      </trkpt>
      <trkpt lat="44.73168" lon="5.52698">
        <ele>1066.72</ele>
        <time>2024-11-03T14:56:40Z</time>
      </trkpt>
      <trkpt lat="44.73167" lon="5.52679">
        <ele>1063.84</ele>
        <time>2024-11-03T14:56:51Z</time>
      </trkpt>
      <trkpt lat="44.73167" lon="5.52675">
        <ele>1062.87</ele>
        <time>2024-11-03T14:56:53Z</time>
      </trkpt>
      <trkpt lat="44.73167" lon="5.52645">
        <ele>1060.47</ele>
        <time>2024-11-03T14:57:09Z</time>
      </trkpt>
      <trkpt lat="44.73168" lon="5.5264">
        <ele>1060.47</ele>
        <time>2024-11-03T14:57:12Z</time>
      </trkpt>
      <trkpt lat="44.73172" lon="5.52616">
        <ele>1062.39</ele>
        <time>2024-11-03T14:57:28Z</time>
      </trkpt>
      <trkpt lat="44.73173" lon="5.52611">
        <ele>1062.87</ele>
        <time>2024-11-03T14:57:31Z</time>
      </trkpt>
      <trkpt lat="44.73174" lon="5.52607">
        <ele>1062.87</ele>
        <time>2024-11-03T14:57:33Z</time>
      </trkpt>
      <trkpt lat="44.73177" lon="5.52599">
        <ele>1062.39</ele>
        <time>2024-11-03T14:57:37Z</time>
      </trkpt>
      <trkpt lat="44.73178" lon="5.52594">
        <ele>1062.39</ele>
        <time>2024-11-03T14:57:40Z</time>
      </trkpt>
      <trkpt lat="44.73183" lon="5.52582">
        <ele>1062.39</ele>
        <time>2024-11-03T14:57:48Z</time>
      </trkpt>
      <trkpt lat="44.73184" lon="5.52579">
        <ele>1062.39</ele>
        <time>2024-11-03T14:57:50Z</time>
      </trkpt>
      <trkpt lat="44.73185" lon="5.52571">
        <ele>1060.95</ele>
        <time>2024-11-03T14:57:54Z</time>
      </trkpt>
      <trkpt lat="44.73191" lon="5.52548">
        <ele>1059.03</ele>
        <time>2024-11-03T14:58:07Z</time>
      </trkpt>
      <trkpt lat="44.73197" lon="5.52525">
        <ele>1056.63</ele>
        <time>2024-11-03T14:58:22Z</time>
      </trkpt>
      <trkpt lat="44.73209" lon="5.525">
        <ele>1056.15</ele>
        <time>2024-11-03T14:58:38Z</time>
      </trkpt>
      <trkpt lat="44.7322" lon="5.52475">
        <ele>1054.7</ele>
        <time>2024-11-03T14:58:55Z</time>
      </trkpt>
      <trkpt lat="44.73228" lon="5.52448">
        <ele>1052.3</ele>
        <time>2024-11-03T14:59:10Z</time>
      </trkpt>
      <trkpt lat="44.73237" lon="5.52428">
        <ele>1050.86</ele>
        <time>2024-11-03T14:59:25Z</time>
      </trkpt>
      <trkpt lat="44.73242" lon="5.5242">
        <ele>1050.86</ele>
        <time>2024-11-03T14:59:32Z</time>
      </trkpt>
      <trkpt lat="44.73253" lon="5.52403">
        <ele>1050.38</ele>
        <time>2024-11-03T14:59:46Z</time>
      </trkpt>
      <trkpt lat="44.73269" lon="5.5239">
        <ele>1049.42</ele>
        <time>2024-11-03T15:00:00Z</time>
      </trkpt>
      <trkpt lat="44.73278" lon="5.5238">
        <ele>1046.53</ele>
        <time>2024-11-03T15:00:11Z</time>
      </trkpt>
      <trkpt lat="44.73289" lon="5.52366">
        <ele>1043.17</ele>
        <time>2024-11-03T15:00:23Z</time>
      </trkpt>
      <trkpt lat="44.73296" lon="5.52355">
        <ele>1041.25</ele>
        <time>2024-11-03T15:00:32Z</time>
      </trkpt>
      <trkpt lat="44.73306" lon="5.52333">
        <ele>1038.36</ele>
        <time>2024-11-03T15:00:46Z</time>
      </trkpt>
      <trkpt lat="44.73311" lon="5.52318">
        <ele>1035.96</ele>
        <time>2024-11-03T15:00:57Z</time>
      </trkpt>
      <trkpt lat="44.73314" lon="5.52294">
        <ele>1032.59</ele>
        <time>2024-11-03T15:01:09Z</time>
      </trkpt>
      <trkpt lat="44.73317" lon="5.52281">
        <ele>1030.67</ele>
        <time>2024-11-03T15:01:16Z</time>
      </trkpt>
      <trkpt lat="44.7332" lon="5.52271">
        <ele>1029.71</ele>
        <time>2024-11-03T15:01:21Z</time>
      </trkpt>
      <trkpt lat="44.7332" lon="5.52267">
        <ele>1029.23</ele>
        <time>2024-11-03T15:01:23Z</time>
      </trkpt>
      <trkpt lat="44.73324" lon="5.52247">
        <ele>1027.31</ele>
        <time>2024-11-03T15:01:33Z</time>
      </trkpt>
      <trkpt lat="44.73329" lon="5.52218">
        <ele>1024.42</ele>
        <time>2024-11-03T15:01:48Z</time>
      </trkpt>
      <trkpt lat="44.73331" lon="5.52205">
        <ele>1021.06</ele>
        <time>2024-11-03T15:01:57Z</time>
      </trkpt>
      <trkpt lat="44.73334" lon="5.522">
        <ele>1019.13</ele>
        <time>2024-11-03T15:02:03Z</time>
      </trkpt>
      <trkpt lat="44.73342" lon="5.52191">
        <ele>1015.77</ele>
        <time>2024-11-03T15:02:13Z</time>
      </trkpt>
      <trkpt lat="44.73344" lon="5.52185">
        <ele>1012.41</ele>
        <time>2024-11-03T15:02:24Z</time>
      </trkpt>
      <trkpt lat="44.73351" lon="5.52179">
        <ele>1009.52</ele>
        <time>2024-11-03T15:02:34Z</time>
      </trkpt>
      <trkpt lat="44.73354" lon="5.52174">
        <ele>1007.12</ele>
        <time>2024-11-03T15:02:39Z</time>
      </trkpt>
      <trkpt lat="44.73363" lon="5.52166">
        <ele>1004.23</ele>
        <time>2024-11-03T15:02:50Z</time>
      </trkpt>
      <trkpt lat="44.73374" lon="5.52155">
        <ele>1000.87</ele>
        <time>2024-11-03T15:03:02Z</time>
      </trkpt>
      <trkpt lat="44.73382" lon="5.52141">
        <ele>997.99</ele>
        <time>2024-11-03T15:03:12Z</time>
      </trkpt>
      <trkpt lat="44.73383" lon="5.5214">
        <ele>997.51</ele>
        <time>2024-11-03T15:03:13Z</time>
      </trkpt>
      <trkpt lat="44.73391" lon="5.52131">
        <ele>996.06</ele>
        <time>2024-11-03T15:03:20Z</time>
      </trkpt>
      <trkpt lat="44.73397" lon="5.52127">
        <ele>995.1</ele>
        <time>2024-11-03T15:03:26Z</time>
      </trkpt>
      <trkpt lat="44.73407" lon="5.52121">
        <ele>993.66</ele>
        <time>2024-11-03T15:03:35Z</time>
      </trkpt>
      <trkpt lat="44.73414" lon="5.52109">
        <ele>991.26</ele>
        <time>2024-11-03T15:03:42Z</time>
      </trkpt>
      <trkpt lat="44.7342" lon="5.52092">
        <ele>988.85</ele>
        <time>2024-11-03T15:03:52Z</time>
      </trkpt>
      <trkpt lat="44.73423" lon="5.52072">
        <ele>985.49</ele>
        <time>2024-11-03T15:04:02Z</time>
      </trkpt>
      <trkpt lat="44.73424" lon="5.52051">
        <ele>981.64</ele>
        <time>2024-11-03T15:04:13Z</time>
      </trkpt>
      <trkpt lat="44.73423" lon="5.52048">
        <ele>981.64</ele>
        <time>2024-11-03T15:04:14Z</time>
      </trkpt>
      <trkpt lat="44.73429" lon="5.52022">
        <ele>978.28</ele>
        <time>2024-11-03T15:04:29Z</time>
      </trkpt>
      <trkpt lat="44.7343" lon="5.51997">
        <ele>974.91</ele>
        <time>2024-11-03T15:04:41Z</time>
      </trkpt>
      <trkpt lat="44.73429" lon="5.51989">
        <ele>973.95</ele>
        <time>2024-11-03T15:04:45Z</time>
      </trkpt>
      <trkpt lat="44.73431" lon="5.51981">
        <ele>972.03</ele>
        <time>2024-11-03T15:04:50Z</time>
      </trkpt>
      <trkpt lat="44.7343" lon="5.51962">
        <ele>968.67</ele>
        <time>2024-11-03T15:04:59Z</time>
      </trkpt>
      <trkpt lat="44.7343" lon="5.51957">
        <ele>967.7</ele>
        <time>2024-11-03T15:05:02Z</time>
      </trkpt>
      <trkpt lat="44.7343" lon="5.51953">
        <ele>966.74</ele>
        <time>2024-11-03T15:05:04Z</time>
      </trkpt>
      <trkpt lat="44.73436" lon="5.51936">
        <ele>963.86</ele>
        <time>2024-11-03T15:05:14Z</time>
      </trkpt>
      <trkpt lat="44.73436" lon="5.51932">
        <ele>963.38</ele>
        <time>2024-11-03T15:05:16Z</time>
      </trkpt>
      <trkpt lat="44.73444" lon="5.51917">
        <ele>959.05</ele>
        <time>2024-11-03T15:05:28Z</time>
      </trkpt>
      <trkpt lat="44.73446" lon="5.51912">
        <ele>958.57</ele>
        <time>2024-11-03T15:05:31Z</time>
      </trkpt>
      <trkpt lat="44.73453" lon="5.51898">
        <ele>955.21</ele>
        <time>2024-11-03T15:05:41Z</time>
      </trkpt>
      <trkpt lat="44.73456" lon="5.51892">
        <ele>954.25</ele>
        <time>2024-11-03T15:05:45Z</time>
      </trkpt>
      <trkpt lat="44.73461" lon="5.51876">
        <ele>950.88</ele>
        <time>2024-11-03T15:05:53Z</time>
      </trkpt>
      <trkpt lat="44.73468" lon="5.51861">
        <ele>947.52</ele>
        <time>2024-11-03T15:06:03Z</time>
      </trkpt>
      <trkpt lat="44.73476" lon="5.51852">
        <ele>944.15</ele>
        <time>2024-11-03T15:06:13Z</time>
      </trkpt>
      <trkpt lat="44.73484" lon="5.51839">
        <ele>942.23</ele>
        <time>2024-11-03T15:06:23Z</time>
      </trkpt>
      <trkpt lat="44.73489" lon="5.51831">
        <ele>940.31</ele>
        <time>2024-11-03T15:06:29Z</time>
      </trkpt>
      <trkpt lat="44.73499" lon="5.51817">
        <ele>936.94</ele>
        <time>2024-11-03T15:06:42Z</time>
      </trkpt>
      <trkpt lat="44.73508" lon="5.518">
        <ele>933.58</ele>
        <time>2024-11-03T15:06:54Z</time>
      </trkpt>
      <trkpt lat="44.73517" lon="5.51789">
        <ele>930.69</ele>
        <time>2024-11-03T15:07:04Z</time>
      </trkpt>
      <trkpt lat="44.73529" lon="5.51778">
        <ele>927.33</ele>
        <time>2024-11-03T15:07:18Z</time>
      </trkpt>
      <trkpt lat="44.73532" lon="5.51775">
        <ele>926.37</ele>
        <time>2024-11-03T15:07:21Z</time>
      </trkpt>
      <trkpt lat="44.73537" lon="5.51773">
        <ele>924.93</ele>
        <time>2024-11-03T15:07:27Z</time>
      </trkpt>
      <trkpt lat="44.73546" lon="5.51754">
        <ele>922.52</ele>
        <time>2024-11-03T15:07:37Z</time>
      </trkpt>
      <trkpt lat="44.7355" lon="5.51751">
        <ele>922.04</ele>
        <time>2024-11-03T15:07:41Z</time>
      </trkpt>
      <trkpt lat="44.73558" lon="5.51733">
        <ele>918.68</ele>
        <time>2024-11-03T15:07:52Z</time>
      </trkpt>
      <trkpt lat="44.73565" lon="5.51713">
        <ele>915.79</ele>
        <time>2024-11-03T15:08:04Z</time>
      </trkpt>
      <trkpt lat="44.73574" lon="5.51695">
        <ele>912.91</ele>
        <time>2024-11-03T15:08:17Z</time>
      </trkpt>
      <trkpt lat="44.73579" lon="5.51677">
        <ele>910.03</ele>
        <time>2024-11-03T15:08:28Z</time>
      </trkpt>
      <trkpt lat="44.73585" lon="5.51662">
        <ele>908.1</ele>
        <time>2024-11-03T15:08:38Z</time>
      </trkpt>
      <trkpt lat="44.7359" lon="5.51644">
        <ele>905.7</ele>
        <time>2024-11-03T15:08:50Z</time>
      </trkpt>
      <trkpt lat="44.73598" lon="5.51628">
        <ele>902.82</ele>
        <time>2024-11-03T15:09:02Z</time>
      </trkpt>
      <trkpt lat="44.73601" lon="5.51612">
        <ele>899.45</ele>
        <time>2024-11-03T15:09:15Z</time>
      </trkpt>
      <trkpt lat="44.73594" lon="5.51609">
        <ele>897.53</ele>
        <time>2024-11-03T15:09:24Z</time>
      </trkpt>
      <trkpt lat="44.73584" lon="5.51613">
        <ele>894.64</ele>
        <time>2024-11-03T15:09:34Z</time>
      </trkpt>
      <trkpt lat="44.73568" lon="5.51622">
        <ele>891.28</ele>
        <time>2024-11-03T15:09:49Z</time>
      </trkpt>
      <trkpt lat="44.73558" lon="5.51626">
        <ele>888.4</ele>
        <time>2024-11-03T15:10:00Z</time>
      </trkpt>
      <trkpt lat="44.73545" lon="5.51631">
        <ele>885.51</ele>
        <time>2024-11-03T15:10:11Z</time>
      </trkpt>
      <trkpt lat="44.73544" lon="5.51631">
        <ele>885.51</ele>
        <time>2024-11-03T15:10:12Z</time>
      </trkpt>
      <trkpt lat="44.73543" lon="5.5162">
        <ele>881.19</ele>
        <time>2024-11-03T15:10:25Z</time>
      </trkpt>
      <trkpt lat="44.73543" lon="5.51617">
        <ele>880.71</ele>
        <time>2024-11-03T15:10:27Z</time>
      </trkpt>
      <trkpt lat="44.73547" lon="5.51599">
        <ele>877.34</ele>
        <time>2024-11-03T15:10:40Z</time>
      </trkpt>
      <trkpt lat="44.73543" lon="5.51592">
        <ele>873.98</ele>
        <time>2024-11-03T15:10:51Z</time>
      </trkpt>
      <trkpt lat="44.73545" lon="5.51579">
        <ele>871.09</ele>
        <time>2024-11-03T15:11:02Z</time>
      </trkpt>
      <trkpt lat="44.7355" lon="5.51564">
        <ele>868.69</ele>
        <time>2024-11-03T15:11:12Z</time>
      </trkpt>
      <trkpt lat="44.73556" lon="5.51545">
        <ele>864.84</ele>
        <time>2024-11-03T15:11:25Z</time>
      </trkpt>
      <trkpt lat="44.73562" lon="5.51528">
        <ele>861.96</ele>
        <time>2024-11-03T15:11:36Z</time>
      </trkpt>
      <trkpt lat="44.73564" lon="5.51524">
        <ele>861.48</ele>
        <time>2024-11-03T15:11:39Z</time>
      </trkpt>
      <trkpt lat="44.73566" lon="5.5152">
        <ele>860.52</ele>
        <time>2024-11-03T15:11:42Z</time>
      </trkpt>
      <trkpt lat="44.73569" lon="5.51517">
        <ele>860.04</ele>
        <time>2024-11-03T15:11:45Z</time>
      </trkpt>
      <trkpt lat="44.73579" lon="5.51499">
        <ele>857.15</ele>
        <time>2024-11-03T15:11:58Z</time>
      </trkpt>
      <trkpt lat="44.73588" lon="5.51486">
        <ele>853.79</ele>
        <time>2024-11-03T15:12:11Z</time>
      </trkpt>
      <trkpt lat="44.73589" lon="5.51485">
        <ele>853.79</ele>
        <time>2024-11-03T15:12:12Z</time>
      </trkpt>
      <trkpt lat="44.73595" lon="5.51478">
        <ele>852.35</ele>
        <time>2024-11-03T15:12:19Z</time>
      </trkpt>
      <trkpt lat="44.73607" lon="5.51474">
        <ele>849.46</ele>
        <time>2024-11-03T15:12:31Z</time>
      </trkpt>
      <trkpt lat="44.73621" lon="5.51472">
        <ele>846.1</ele>
        <time>2024-11-03T15:12:43Z</time>
      </trkpt>
      <trkpt lat="44.73635" lon="5.51464">
        <ele>842.73</ele>
        <time>2024-11-03T15:12:57Z</time>
      </trkpt>
      <trkpt lat="44.73639" lon="5.51462">
        <ele>841.77</ele>
        <time>2024-11-03T15:13:01Z</time>
      </trkpt>
      <trkpt lat="44.73656" lon="5.51455">
        <ele>838.41</ele>
        <time>2024-11-03T15:13:17Z</time>
      </trkpt>
      <trkpt lat="44.73666" lon="5.51453">
        <ele>836</ele>
        <time>2024-11-03T15:13:26Z</time>
      </trkpt>
      <trkpt lat="44.73672" lon="5.51452">
        <ele>835.04</ele>
        <time>2024-11-03T15:13:31Z</time>
      </trkpt>
      <trkpt lat="44.73685" lon="5.51459">
        <ele>833.6</ele>
        <time>2024-11-03T15:13:44Z</time>
      </trkpt>
      <trkpt lat="44.73686" lon="5.51457">
        <ele>833.6</ele>
        <time>2024-11-03T15:13:46Z</time>
      </trkpt>
      <trkpt lat="44.7369" lon="5.51427">
        <ele>830.72</ele>
        <time>2024-11-03T15:14:00Z</time>
      </trkpt>
      <trkpt lat="44.7369" lon="5.51405">
        <ele>829.76</ele>
        <time>2024-11-03T15:14:10Z</time>
      </trkpt>
      <trkpt lat="44.73693" lon="5.514">
        <ele>828.79</ele>
        <time>2024-11-03T15:14:14Z</time>
      </trkpt>
      <trkpt lat="44.73699" lon="5.51398">
        <ele>827.35</ele>
        <time>2024-11-03T15:14:19Z</time>
      </trkpt>
      <trkpt lat="44.73707" lon="5.51396">
        <ele>826.87</ele>
        <time>2024-11-03T15:14:26Z</time>
      </trkpt>
      <trkpt lat="44.73719" lon="5.51381">
        <ele>825.91</ele>
        <time>2024-11-03T15:14:40Z</time>
      </trkpt>
      <trkpt lat="44.73729" lon="5.51366">
        <ele>824.95</ele>
        <time>2024-11-03T15:14:51Z</time>
      </trkpt>
      <trkpt lat="44.73731" lon="5.5136">
        <ele>824.47</ele>
        <time>2024-11-03T15:14:55Z</time>
      </trkpt>
      <trkpt lat="44.73734" lon="5.51357">
        <ele>824.47</ele>
        <time>2024-11-03T15:14:58Z</time>
      </trkpt>
      <trkpt lat="44.73736" lon="5.51353">
        <ele>823.03</ele>
        <time>2024-11-03T15:15:01Z</time>
      </trkpt>
      <trkpt lat="44.73738" lon="5.51348">
        <ele>823.03</ele>
        <time>2024-11-03T15:15:04Z</time>
      </trkpt>
      <trkpt lat="44.73746" lon="5.51336">
        <ele>822.55</ele>
        <time>2024-11-03T15:15:13Z</time>
      </trkpt>
      <trkpt lat="44.73749" lon="5.51331">
        <ele>821.58</ele>
        <time>2024-11-03T15:15:17Z</time>
      </trkpt>
      <trkpt lat="44.73753" lon="5.51323">
        <ele>820.62</ele>
        <time>2024-11-03T15:15:21Z</time>
      </trkpt>
      <trkpt lat="44.73763" lon="5.51312">
        <ele>818.22</ele>
        <time>2024-11-03T15:15:32Z</time>
      </trkpt>
      <trkpt lat="44.73767" lon="5.51306">
        <ele>817.74</ele>
        <time>2024-11-03T15:15:37Z</time>
      </trkpt>
      <trkpt lat="44.73771" lon="5.51302">
        <ele>817.74</ele>
        <time>2024-11-03T15:15:41Z</time>
      </trkpt>
      <trkpt lat="44.73776" lon="5.51294">
        <ele>816.3</ele>
        <time>2024-11-03T15:15:47Z</time>
      </trkpt>
      <trkpt lat="44.73779" lon="5.51289">
        <ele>816.3</ele>
        <time>2024-11-03T15:15:51Z</time>
      </trkpt>
      <trkpt lat="44.73792" lon="5.51273">
        <ele>814.85</ele>
        <time>2024-11-03T15:16:06Z</time>
      </trkpt>
      <trkpt lat="44.73793" lon="5.51269">
        <ele>814.85</ele>
        <time>2024-11-03T15:16:08Z</time>
      </trkpt>
      <trkpt lat="44.73797" lon="5.51263">
        <ele>814.85</ele>
        <time>2024-11-03T15:16:12Z</time>
      </trkpt>
      <trkpt lat="44.73806" lon="5.51251">
        <ele>812.45</ele>
        <time>2024-11-03T15:16:26Z</time>
      </trkpt>
      <trkpt lat="44.73814" lon="5.51239">
        <ele>810.53</ele>
        <time>2024-11-03T15:16:37Z</time>
      </trkpt>
      <trkpt lat="44.73827" lon="5.51227">
        <ele>808.13</ele>
        <time>2024-11-03T15:16:52Z</time>
      </trkpt>
      <trkpt lat="44.7383" lon="5.51224">
        <ele>808.13</ele>
        <time>2024-11-03T15:16:55Z</time>
      </trkpt>
      <trkpt lat="44.73846" lon="5.51215">
        <ele>806.2</ele>
        <time>2024-11-03T15:17:11Z</time>
      </trkpt>
      <trkpt lat="44.73863" lon="5.51203">
        <ele>803.32</ele>
        <time>2024-11-03T15:17:27Z</time>
      </trkpt>
      <trkpt lat="44.73884" lon="5.5119">
        <ele>799.95</ele>
        <time>2024-11-03T15:17:45Z</time>
      </trkpt>
      <trkpt lat="44.73889" lon="5.51185">
        <ele>799.47</ele>
        <time>2024-11-03T15:17:50Z</time>
      </trkpt>
      <trkpt lat="44.73897" lon="5.51169">
        <ele>797.55</ele>
        <time>2024-11-03T15:18:01Z</time>
      </trkpt>
      <trkpt lat="44.73909" lon="5.51157">
        <ele>794.19</ele>
        <time>2024-11-03T15:18:16Z</time>
      </trkpt>
      <trkpt lat="44.73918" lon="5.51155">
        <ele>792.26</ele>
        <time>2024-11-03T15:18:27Z</time>
      </trkpt>
      <trkpt lat="44.73919" lon="5.51153">
        <ele>791.78</ele>
        <time>2024-11-03T15:18:43Z</time>
      </trkpt>
      <trkpt lat="44.73924" lon="5.51142">
        <ele>791.3</ele>
        <time>2024-11-03T15:19:03Z</time>
      </trkpt>
      <trkpt lat="44.7393" lon="5.51141">
        <ele>791.3</ele>
        <time>2024-11-03T15:19:25Z</time>
      </trkpt>
      <trkpt lat="44.7393" lon="5.51143">
        <ele>791.3</ele>
        <time>2024-11-03T15:19:38Z</time>
      </trkpt>
      <trkpt lat="44.73937" lon="5.51148">
        <ele>788.9</ele>
        <time>2024-11-03T15:19:45Z</time>
      </trkpt>
      <trkpt lat="44.73942" lon="5.5114">
        <ele>787.94</ele>
        <time>2024-11-03T15:19:51Z</time>
      </trkpt>
      <trkpt lat="44.73947" lon="5.51127">
        <ele>787.46</ele>
        <time>2024-11-03T15:20:00Z</time>
      </trkpt>
      <trkpt lat="44.73957" lon="5.51117">
        <ele>786.02</ele>
        <time>2024-11-03T15:20:11Z</time>
      </trkpt>
      <trkpt lat="44.73963" lon="5.5112">
        <ele>784.09</ele>
        <time>2024-11-03T15:20:16Z</time>
      </trkpt>
      <trkpt lat="44.73973" lon="5.51131">
        <ele>782.17</ele>
        <time>2024-11-03T15:20:27Z</time>
      </trkpt>
      <trkpt lat="44.73981" lon="5.51131">
        <ele>781.69</ele>
        <time>2024-11-03T15:20:33Z</time>
      </trkpt>
      <trkpt lat="44.73997" lon="5.51144">
        <ele>781.69</ele>
        <time>2024-11-03T15:20:47Z</time>
      </trkpt>
      <trkpt lat="44.74003" lon="5.51145">
        <ele>780.25</ele>
        <time>2024-11-03T15:20:51Z</time>
      </trkpt>
      <trkpt lat="44.74006" lon="5.51144">
        <ele>779.77</ele>
        <time>2024-11-03T15:20:54Z</time>
      </trkpt>
      <trkpt lat="44.74007" lon="5.51128">
        <ele>779.29</ele>
        <time>2024-11-03T15:21:08Z</time>
      </trkpt>
      <trkpt lat="44.74007" lon="5.51103">
        <ele>778.81</ele>
        <time>2024-11-03T15:21:20Z</time>
      </trkpt>
      <trkpt lat="44.74003" lon="5.5109">
        <ele>778.81</ele>
        <time>2024-11-03T15:21:27Z</time>
      </trkpt>
      <trkpt lat="44.74003" lon="5.51072">
        <ele>777.36</ele>
        <time>2024-11-03T15:21:40Z</time>
      </trkpt>
      <trkpt lat="44.74008" lon="5.5105">
        <ele>775.44</ele>
        <time>2024-11-03T15:21:53Z</time>
      </trkpt>
      <trkpt lat="44.74011" lon="5.51047">
        <ele>774.96</ele>
        <time>2024-11-03T15:21:56Z</time>
      </trkpt>
      <trkpt lat="44.74025" lon="5.51038">
        <ele>772.56</ele>
        <time>2024-11-03T15:22:11Z</time>
      </trkpt>
      <trkpt lat="44.74027" lon="5.51035">
        <ele>772.08</ele>
        <time>2024-11-03T15:22:14Z</time>
      </trkpt>
      <trkpt lat="44.74037" lon="5.51035">
        <ele>770.15</ele>
        <time>2024-11-03T15:22:23Z</time>
      </trkpt>
      <trkpt lat="44.74046" lon="5.51031">
        <ele>768.71</ele>
        <time>2024-11-03T15:22:32Z</time>
      </trkpt>
      <trkpt lat="44.74057" lon="5.51025">
        <ele>766.79</ele>
        <time>2024-11-03T15:22:41Z</time>
      </trkpt>
      <trkpt lat="44.74076" lon="5.51019">
        <ele>763.9</ele>
        <time>2024-11-03T15:22:57Z</time>
      </trkpt>
      <trkpt lat="44.74089" lon="5.5102">
        <ele>761.98</ele>
        <time>2024-11-03T15:23:08Z</time>
      </trkpt>
      <trkpt lat="44.741" lon="5.51023">
        <ele>761.02</ele>
        <time>2024-11-03T15:23:16Z</time>
      </trkpt>
      <trkpt lat="44.74103" lon="5.51023">
        <ele>761.02</ele>
        <time>2024-11-03T15:23:18Z</time>
      </trkpt>
      <trkpt lat="44.74108" lon="5.51016">
        <ele>760.06</ele>
        <time>2024-11-03T15:23:23Z</time>
      </trkpt>
      <trkpt lat="44.7411" lon="5.51008">
        <ele>759.58</ele>
        <time>2024-11-03T15:23:28Z</time>
      </trkpt>
      <trkpt lat="44.74116" lon="5.50999">
        <ele>757.18</ele>
        <time>2024-11-03T15:23:37Z</time>
      </trkpt>
      <trkpt lat="44.74126" lon="5.50993">
        <ele>754.29</ele>
        <time>2024-11-03T15:23:48Z</time>
      </trkpt>
      <trkpt lat="44.7413" lon="5.50988">
        <ele>752.37</ele>
        <time>2024-11-03T15:23:54Z</time>
      </trkpt>
      <trkpt lat="44.74143" lon="5.50976">
        <ele>749.49</ele>
        <time>2024-11-03T15:24:07Z</time>
      </trkpt>
      <trkpt lat="44.74151" lon="5.50969">
        <ele>746.6</ele>
        <time>2024-11-03T15:24:19Z</time>
      </trkpt>
      <trkpt lat="44.74157" lon="5.50961">
        <ele>743.72</ele>
        <time>2024-11-03T15:24:27Z</time>
      </trkpt>
      <trkpt lat="44.74159" lon="5.50954">
        <ele>742.76</ele>
        <time>2024-11-03T15:24:32Z</time>
      </trkpt>
      <trkpt lat="44.7417" lon="5.50927">
        <ele>742.28</ele>
        <time>2024-11-03T15:24:49Z</time>
      </trkpt>
      <trkpt lat="44.74179" lon="5.50919">
        <ele>743.72</ele>
        <time>2024-11-03T15:24:59Z</time>
      </trkpt>
      <trkpt lat="44.74191" lon="5.50906">
        <ele>743.72</ele>
        <time>2024-11-03T15:25:12Z</time>
      </trkpt>
      <trkpt lat="44.74201" lon="5.50894">
        <ele>744.68</ele>
        <time>2024-11-03T15:25:23Z</time>
      </trkpt>
      <trkpt lat="44.74203" lon="5.50892">
        <ele>745.16</ele>
        <time>2024-11-03T15:25:26Z</time>
      </trkpt>
      <trkpt lat="44.74208" lon="5.50889">
        <ele>745.16</ele>
        <time>2024-11-03T15:25:30Z</time>
      </trkpt>
      <trkpt lat="44.74223" lon="5.50877">
        <ele>746.12</ele>
        <time>2024-11-03T15:25:44Z</time>
      </trkpt>
      <trkpt lat="44.7424" lon="5.50863">
        <ele>746.6</ele>
        <time>2024-11-03T15:25:59Z</time>
      </trkpt>
      <trkpt lat="44.74249" lon="5.50857">
        <ele>747.08</ele>
        <time>2024-11-03T15:26:08Z</time>
      </trkpt>
      <trkpt lat="44.74259" lon="5.50853">
        <ele>747.56</ele>
        <time>2024-11-03T15:26:15Z</time>
      </trkpt>
      <trkpt lat="44.7428" lon="5.50845">
        <ele>748.04</ele>
        <time>2024-11-03T15:26:31Z</time>
      </trkpt>
      <trkpt lat="44.74294" lon="5.50835">
        <ele>749</ele>
        <time>2024-11-03T15:26:44Z</time>
      </trkpt>
      <trkpt lat="44.7431" lon="5.50829">
        <ele>749.49</ele>
        <time>2024-11-03T15:26:58Z</time>
      </trkpt>
      <trkpt lat="44.74327" lon="5.50831">
        <ele>749.49</ele>
        <time>2024-11-03T15:27:11Z</time>
      </trkpt>
      <trkpt lat="44.74344" lon="5.50829">
        <ele>749.97</ele>
        <time>2024-11-03T15:27:24Z</time>
      </trkpt>
      <trkpt lat="44.74366" lon="5.50822">
        <ele>749.97</ele>
        <time>2024-11-03T15:27:39Z</time>
      </trkpt>
      <trkpt lat="44.74386" lon="5.50809">
        <ele>750.45</ele>
        <time>2024-11-03T15:27:57Z</time>
      </trkpt>
      <trkpt lat="44.74401" lon="5.50798">
        <ele>750.93</ele>
        <time>2024-11-03T15:28:10Z</time>
      </trkpt>
      <trkpt lat="44.74417" lon="5.50779">
        <ele>750.93</ele>
        <time>2024-11-03T15:28:24Z</time>
      </trkpt>
      <trkpt lat="44.7443" lon="5.50761">
        <ele>751.41</ele>
        <time>2024-11-03T15:28:38Z</time>
      </trkpt>
      <trkpt lat="44.74439" lon="5.50737">
        <ele>751.41</ele>
        <time>2024-11-03T15:28:54Z</time>
      </trkpt>
      <trkpt lat="44.74451" lon="5.50712">
        <ele>751.89</ele>
        <time>2024-11-03T15:29:10Z</time>
      </trkpt>
      <trkpt lat="44.7446" lon="5.50692">
        <ele>752.37</ele>
        <time>2024-11-03T15:29:22Z</time>
      </trkpt>
      <trkpt lat="44.74474" lon="5.50672">
        <ele>752.37</ele>
        <time>2024-11-03T15:29:37Z</time>
      </trkpt>
      <trkpt lat="44.74492" lon="5.50657">
        <ele>752.37</ele>
        <time>2024-11-03T15:29:53Z</time>
      </trkpt>
      <trkpt lat="44.74511" lon="5.50649">
        <ele>753.81</ele>
        <time>2024-11-03T15:30:09Z</time>
      </trkpt>
      <trkpt lat="44.74513" lon="5.50649">
        <ele>753.81</ele>
        <time>2024-11-03T15:30:11Z</time>
      </trkpt>
      <trkpt lat="44.7453" lon="5.50645">
        <ele>754.29</ele>
        <time>2024-11-03T15:30:25Z</time>
      </trkpt>
      <trkpt lat="44.74547" lon="5.50645">
        <ele>754.77</ele>
        <time>2024-11-03T15:30:40Z</time>
      </trkpt>
      <trkpt lat="44.74549" lon="5.50648">
        <ele>756.21</ele>
        <time>2024-11-03T15:30:44Z</time>
      </trkpt>
      <trkpt lat="44.74551" lon="5.50659">
        <ele>758.62</ele>
        <time>2024-11-03T15:30:56Z</time>
      </trkpt>
      <trkpt lat="44.74548" lon="5.50674">
        <ele>759.1</ele>
        <time>2024-11-03T15:31:10Z</time>
      </trkpt>
      <trkpt lat="44.74535" lon="5.5068">
        <ele>758.62</ele>
        <time>2024-11-03T15:31:27Z</time>
      </trkpt>
    </trkseg>
  </trk>
</gpx>